     2.10           OBSERVATION DATA    G (GPS)             RINEX VERSION / TYPE
teqc 2000Feb29 simon 20020108 09:29:01UTC                   PGM / RUN BY / DATE
Solaris 2.7|Ultra 2|cc SC5.0|=+-|*Sparc                     COMMENT
BIT 2 OF LLI FLAGS DATA COLLECTED UNDER A/S CONDITION       COMMENT
GS05                                                        MARKER NAME
gs05                                                        MARKER NUMBER
C_W -Unknown-                                               OBSERVER / AGENCY
501 ASHTECH Z-XII3 4J30                                     REC # / TYPE / VERS
108 ASH701933_M                                             ANT # / TYPE
 -2403195.0000 -4570564.0000  3733122.0000                  APPROX POSITION XYZ
        0.2370        0.0000        0.0000                  ANTENNA: DELTA H/E/N
     1     1                                                WAVELENGTH FACT L1/2
     7    L1    L2    C1    P1    P2    S1    S2            # / TYPES OF OBSERV
    30.0000                                                 INTERVAL
SNR is mapped to RINEX snr flag value [1-9]                 COMMENT
L1: 1 -> 1; 90 -> 5; 210 -> 9                               COMMENT
L2: 1 -> 1; 150 -> 5; 250 -> 9                              COMMENT
Original height was 0.0000                                  COMMENT
New height found assuming measured height 0.3010            COMMENT
and assuming radial 0.0000 vertical -0.0640                 COMMENT
  2001    12    19    20     6   30.0000000     GPS         TIME OF FIRST OBS
                                                            END OF HEADER
 01 12 19 20  6 30.0000000  0  8G31G 2G28G27G26G 7G 8G10
     38836.41455                  20219441.522
       210.000         149.000
    -16581.82059    -11060.30157  17693277.499    17693278.678    17693290.942
       240.000         209.000
    -63352.04759    -38247.39457  17020739.664    17020741.192    17020751.425
       234.000         204.000
     -2467.81459     -1496.24657  17440613.776    17440615.822    17440628.235
       239.000         206.000
    -84494.41155                  20123098.225
       216.000         161.000
    -27789.70656                  18712484.415                    18712502.584
       227.000         183.000
    -29617.92459    -15592.38557  16281799.073    16281800.393    16281811.145
       237.000         209.000
      8064.05253                  21409691.152
       208.000          74.000
 01 12 19 20  7  0.0000000  0  8G31G 2G28G27G26G 7G 8G10
    118387.67949     84172.58645  24127816.238    24127816.346    24127835.337
       207.000         152.000
    -29633.89249    -21230.78447  21588096.471    21588096.919    21588109.146
       240.000         209.000
   -119794.19249    -82228.30147  20907301.918    20907302.545    20907312.842
       234.000         205.000
     -4176.08949     -2827.48647  21337591.967    21337592.916    21337605.254
       240.000         206.000
   -263439.00459   -182055.42456  23996575.919    23996577.080    23996595.751
       216.000         166.000
   -228808.83059   -133771.98956  22583905.529    22583906.455    22583922.766
       228.000         183.000
    -72408.31059    -48935.56247  20170958.961    20170959.530    20170970.345
       238.000         209.000
     25783.78345                  25311320.941
       209.000         146.000
 01 12 19 20  7 30.0000000  0  8G31G 2G28G27G26G 7G 8G10
    177057.70559    129889.22355  24138981.159    24138981.660    24139000.599
       211.000         153.000
    -42333.29849    -31126.45247  21585680.181    21585680.393    21585692.524
       242.000         209.000
   -175766.71549   -125843.26247  20896651.013    20896651.396    20896661.634
       234.000         205.000
     -5295.81149     -3700.10647  21337379.329    21337379.952    21337392.274
       240.000         206.000
   -388115.90549   -279206.09146  23972850.990    23972852.212    23972870.376
       217.000         166.000
   -364392.36049   -239421.23646  22558105.189    22558105.634    22558121.997
       228.000         185.000
   -114616.41149    -81825.00547  20162927.338    20162927.564    20162938.427
       236.000         208.000
     43794.60545                  25315719.821                    25315743.712
       208.000         148.000
 01 12 19 20  8  0.0000000  0  8G31G 2G28G27G26G 7G 8G10
    236143.47149    175929.81545  24150225.066    24150225.358    24150244.475
       212.000         154.000
    -54719.40849    -40777.98847  21583323.361    21583323.445    21583335.521
       241.000         208.000
   -231290.26549   -169108.37847  20886085.438    20886085.675    20886095.889
       234.000         205.000
     -5870.16849     -4147.77047  21337270.276    21337270.727    21337283.078
       240.000         206.000
   -512253.66249   -375936.63046  23949228.547    23949229.494    23949247.736
       216.000         167.000
   -499531.67549   -344724.35846  22532389.121    22532389.414    22532405.801
       229.000         185.000
   -156267.26949   -114280.23147  20155001.588    20155001.676    20155012.586
       237.000         209.000
     84062.49849     62052.61645  25320178.875    25320179.382    25320203.043
       209.000         148.000
 01 12 19 20  8 30.0000000  0  8G31G 2G28G27G26G 7G 8G10
    295596.00149    222256.20445  24161538.717    24161538.921    24161557.880
       206.000         154.000
    -66839.29749    -50222.06547  21581017.152    21581017.142    21581029.203
       239.000         206.000
   -286411.83749   -212060.25447  20875596.251    20875596.384    20875606.641
       234.000         204.000
     -5945.08949     -4206.26147  21337256.194    21337256.512    21337268.858
       237.000         203.000
   -635896.04849   -472281.16146  23925700.357    23925701.150    23925719.267
       217.000         164.000
   -634271.02649   -449715.84445  22506749.136    22506749.343    22506765.698
       217.000         162.000
   -197406.01149   -146336.40047  20147173.260    20147173.251    20147184.175
       236.000         208.000
    107762.57859     80520.05455  25324688.809                    25324689.934
       205.000         134.000
 01 12 19 20  9  0.0000000  0  8G31G 2G28G27G26G 7G 8G10
    355422.15449    268873.72145  24172923.403    24172923.483    24172942.536
       212.000         162.000
    -78683.59249    -59451.37647  21578763.269    21578763.195    21578775.321
       232.000         199.000
   -341121.95549   -254691.49647  20865185.279    20865185.366    20865195.684
       233.000         200.000
     -5510.43149     -3867.69547  21337339.012    21337339.255    21337351.604
       240.000         208.000
   -759030.69849   -568230.05546  23902268.728    23902269.370    23902287.536
       222.000         171.000
   -768598.30449   -554386.23646  22481187.483    22481187.643    22481204.001
       223.000         173.000
   -238021.69649   -177985.01247  20139444.402    20139444.343    20139455.250
       236.000         207.000
    131737.93959     99202.07054  25329251.358    25329251.427    25329274.736
       201.000         129.000
 01 12 19 20  9 30.0000000  0  9G31G 2G28G27G26G 7G 8G10G11
    415569.03149    315741.12245  24184369.134    24184369.123    24184388.247
       213.000         159.000
    -90302.80649    -68505.35247  21576552.244    21576552.138    21576564.292
       239.000         208.000
   -395471.42549   -297041.75347  20854842.992    20854843.020    20854853.358
       235.000         205.000
     -4616.33949     -3171.05847  21337509.269    21337509.445    21337521.814
       239.000         204.000
   -881705.24249   -663820.42746  23878924.514    23878925.091    23878943.321
       218.000         168.000
   -902561.54149   -658772.95746  22455695.087    22455695.219    22455711.577
       230.000         183.000
   -278163.44749   -209264.29647  20131805.756    20131805.649    20131816.563
       237.000         209.000
    155934.34459    118056.17054  25333855.901    25333856.356    25333879.328
       200.000         124.000
    -31983.65153                  24104811.320
       210.000          74.000
 01 12 19 20 10  0.0000000  0  8G31G 2G28G27G26G 7G 8G11
    475995.22349    362826.22646  24195868.032    24195867.982    24195887.098
       214.000         164.000
   -101736.32849    -77414.58547  21574376.612    21574376.442    21574388.591
       243.000         205.000
   -449499.69249   -339141.67747  20844561.797    20844561.796    20844572.137
       233.000         200.000
     -3300.86949     -2146.08447  21337759.730    21337759.813    21337772.213
       233.000         201.000
  -1003955.86349   -759080.46746  23855660.941    23855661.497    23855679.753
       216.000         170.000
  -1036197.10549   -762904.35546  22430264.995    22430265.122    22430281.518
       225.000         177.000
   -317868.74749   -240203.47647  20124250.167    20124250.012    20124260.925
       235.000         205.000
   -159386.95149   -101129.13745  24087926.197    24087928.109    24087943.977
       209.000         149.000
 01 12 19 20 10 30.0000000  0  8G31G 2G28G27G26G 7G 8G11
    536679.73449    410112.48545  24207416.137    24207415.984    24207435.115
       215.000         158.000
   -113002.99849    -86193.84747  21572232.689    21572232.475    21572244.595
       243.000         208.000
   -503225.57449   -381006.02247  20834338.106    20834338.095    20834348.435
       237.000         207.000
     -1581.99949      -806.84947  21338086.920    21338086.950    21338099.381
       241.000         205.000
  -1125798.53449   -854022.71746  23832475.039    23832475.571    23832493.756
       220.000         170.000
  -1169521.40449   -866793.22546  22404894.113    22404894.282    22404910.648
       230.000         184.000
   -357154.96449   -270816.13047  20116774.243    20116774.076    20116785.039
       235.000         207.000
   -247752.68859   -169985.46255  24071111.362    24071112.107    24071131.416
       213.000         154.000
 01 12 19 20 11  0.0000000  0  8G31G 2G28G27G26G 7G 8G11
    597590.48449    457575.12045  24219007.364    24219007.045    24219026.152
       211.000         161.000
   -124132.66249    -94866.33147  21570114.911    21570114.623    21570126.708
       242.000         209.000
   -556679.13149   -422658.13347  20824166.273    20824166.243    20824176.573
       234.000         205.000
       511.11249       824.06747  21338485.388    21338485.336    21338497.750
       240.000         205.000
  -1247260.01549   -948667.82346  23809361.550    23809362.126    23809380.317
       219.000         166.000
  -1302561.44749   -970460.60547  22379577.349    22379577.514    22379593.866
       231.000         188.000
   -396050.47749   -301124.34447  20109372.693    20109372.510    20109383.481
       237.000         208.000
   -335774.95349   -238574.14545  24054361.481    24054362.090    24054380.749
       214.000         158.000
 01 12 19 20 11 30.0000000  0  9G31G 2G28G27G26G 7G 8G10G11
    658673.30949    505171.81345  24230631.292    24230630.824    24230649.983
       215.000         160.000
   -135177.41549   -103472.65947  21568013.280    21568012.929    21568024.991
       242.000         209.000
   -609912.42549   -464138.61947  20814036.388    20814036.301    20814046.628
       234.000         205.000
      2927.36649      2706.76847  21338945.326    21338945.221    21338957.636
       240.000         205.000
  -1368389.28049  -1043054.10246  23786311.355    23786311.958    23786330.107
       221.000         168.000
  -1435366.50549  -1073944.89647  22354305.350    22354305.478    22354321.784
       231.000         189.000
   -434605.65049   -331167.33847  20102035.953    20102035.728    20102046.656
       237.000         208.000
     16598.84553                  25352562.494
       208.000          77.000
   -423502.43449   -306933.12845  24037667.621    24037668.119    24037686.709
       214.000         158.000
 01 12 19 20 12  0.0000000  0  9G31G 2G28G27G26G 7G 8G10G11
    719913.38449    552891.02945  24242285.085    24242284.550    24242303.754
       213.000         159.000
   -146150.02349   -112022.77247  21565925.316    21565924.943    21565936.986
       242.000         209.000
   -662938.43649   -505457.58247  20803945.956    20803945.823    20803956.107
       234.000         205.000
      5654.84549      4831.98447  21339464.476    21339464.328    21339476.752
       239.000         205.000
  -1489196.03249  -1137189.07046  23763322.519    23763323.119    23763341.255
       221.000         168.000
  -1567946.75249  -1177254.00947  22329076.071    22329076.209    22329092.472
       231.000         188.000
   -472831.72149   -360953.88047  20094761.843    20094761.581    20094772.468
       237.000         208.000
     35917.74345                  25357281.783
       209.000         148.000
   -510944.88649   -375069.97845  24021027.937    24021028.326    24021046.973
       213.000         158.000
 01 12 19 20 12 30.0000000  0  9G31G 2G28G27G26G 7G 8G10G11
    781312.16449    600733.91545  24253969.084    24253968.494    24253987.727
       214.000         161.000
   -157046.82549   -120513.82047  21563851.745    21563851.378    21563863.406
       241.000         208.000
   -715753.45749   -546612.13547  20793895.632    20793895.475    20793905.730
       234.000         205.000
      8697.89749      7203.11847  21340043.635    21340043.465    21340055.915
       240.000         205.000
  -1609673.50549  -1231067.47246  23740396.391    23740396.936    23740415.074
       219.000         168.000
  -1700295.81249  -1280382.98747  22303890.740    22303890.938    22303907.152
       231.000         188.000
   -510723.40849   -390479.86747  20087551.336    20087551.063    20087561.923
       238.000         208.000
     78285.83749     55281.97445  25362011.327    25362012.296    25362036.413
       207.000         150.000
   -598095.85749   -442979.67645  24004443.643    24004443.973    24004462.607
       216.000         158.000
 01 12 19 20 13  0.0000000  0  9G31G 2G28G27G26G 7G 8G10G11
    842885.80949    648713.05345  24265686.371    24265685.737    24265704.992
       213.000         161.000
   -167849.44049   -128931.48547  21561796.075    21561795.719    21561807.748
       241.000         208.000
   -768339.19049   -587588.02747  20783888.889    20783888.753    20783899.007
       234.000         205.000
     12075.49749      9834.94047  21340686.415    21340686.240    21340698.730
       239.000         204.000
  -1729800.57649  -1324672.81646  23717536.859    23717537.436    23717555.563
       219.000         168.000
  -1832392.88749  -1383315.62347  22278753.393    22278753.599    22278769.776
       231.000         188.000
   -548260.93449   -419729.88347  20080408.231    20080407.938    20080418.773
       239.000         208.000
    103211.65149     74704.44745  25366754.792    25366754.852    25366779.986
       206.000         149.000
   -684934.00749   -510645.60645  23987918.925    23987919.180    23987937.828
       217.000         161.000
 01 12 19 20 13 30.0000000  0  9G31G 2G28G27G26G 7G 8G10G11
    904637.90549    696831.24245  24277437.580    24277436.936    24277456.248
       213.000         161.000
   -178551.99749   -137271.18047  21559759.442    21559759.104    21559771.132
       241.000         208.000
   -820690.04649   -628380.88847  20773926.854    20773926.727    20773936.973
       234.000         205.000
     15794.36149     12732.67847  21341394.136    21341393.971    21341406.499
       239.000         204.000
  -1849568.45049  -1417998.28646  23694745.647    23694746.257    23694764.413
       218.000         169.000
  -1964229.40149  -1486045.23247  22253665.600    22253665.849    22253681.965
       231.000         188.000
   -585436.91849   -448698.17647  20073333.858    20073333.586    20073344.435
       239.000         208.000
    128215.54059     94187.75755  25371513.188    25371513.873    25371538.078
       209.000         149.000
   -771450.26949   -578060.67245  23971455.404    23971455.629    23971474.297
       215.000         160.000
 01 12 19 20 14  0.0000000  0 10G31G 2G28G27G26G 7G 8G10G11G13
    966558.65149    745080.83845  24289220.901    24289220.225    24289239.601
       215.000         161.000
   -189162.00349   -145538.76547  21557740.460    21557740.113    21557752.125
       242.000         208.000
   -872813.80649   -668996.80147  20764008.053    20764007.928    20764018.170
       235.000         206.000
     19847.70849     15891.04447  21342165.517    21342165.333    21342177.916
       238.000         203.000
  -1968981.68649  -1511047.41246  23672021.909    23672022.575    23672040.733
       217.000         168.000
  -2095810.17649  -1588575.56447  22228626.502    22228626.732    22228642.812
       231.000         189.000
   -622257.45649   -477389.50047  20066327.107    20066326.856    20066337.730
       238.000         208.000
    153287.16349    113723.86145  25376284.413    25376284.796    25376309.323
       208.000         148.000
   -857649.21849   -645228.46545  23955052.146    23955052.466    23955071.119
       212.000         156.000
     14081.05553                  24767772.929
       202.000          74.000
 01 12 19 20 14 30.0000000  0 10G31G 2G28G27G26G 7G 8G10G11G13
   1028671.80949    793480.38245  24301040.854    24301040.172    24301059.584
       215.000         159.000
   -199653.68449   -153714.15547  21555744.025    21555743.651    21555755.662
       242.000         208.000
   -924684.48949   -709415.50247  20754137.410    20754137.257    20754147.519
       234.000         206.000
     24262.11649     19330.75947  21343005.575    21343005.415    21343018.016
       239.000         203.000
  -2088011.47049  -1603797.75246  23649371.178    23649371.872    23649390.000
       220.000         169.000
  -2227106.89049  -1690884.55147  22203641.410    22203641.692    22203657.744
       232.000         189.000
   -658695.11549   -505782.46947  20059393.245    20059392.995    20059403.892
       238.000         208.000
    178450.34149    133331.25845  25381072.996    25381073.218    25381097.839
       210.000         148.000
   -943502.14649   -712126.58845  23938714.750    23938715.080    23938733.757
       212.000         153.000
     68222.70445                  24780996.281
       200.000         136.000
 01 12 19 20 15  0.0000000  0 10G31G 2G28G27G26G 7G 8G10G11G13
   1090964.01449    842019.44445  24312894.875    24312894.198    24312913.612
       214.000         158.000
   -210038.27549   -161806.10347  21553767.962    21553767.569    21553779.585
       242.000         209.000
   -976313.72449   -749646.06647  20744312.656    20744312.533    20744322.814
       234.000         205.000
     29026.84849     23043.46947  21343912.296    21343912.146    21343924.769
       238.000         203.000
  -2206666.06649  -1696255.74746  23626791.873    23626792.554    23626810.647
       220.000         169.000
  -2358128.12749  -1792978.88247  22178708.734    22178709.041    22178725.089
       231.000         189.000
   -694759.62149   -533884.66947  20052530.388    20052530.162    20052541.076
       239.000         209.000
    203691.47949    152999.45445  25385876.555    25385876.538    25385901.023
       210.000         148.000
  -1029017.42949   -778761.61545  23922441.685    23922442.021    23922460.620
       213.000         154.000
    172930.15949    122351.77945  24794216.557    24794219.604    24794240.532
       205.000         149.000
 01 12 19 20 15 30.0000000  0  9G31G 2G28G27G26G 7G 8G11G13
   1153443.91949    890704.75245  24324784.586    24324783.916    24324803.429
       213.000         158.000
   -220304.79049   -169806.04847  21551814.343    21551813.961    21551825.982
       241.000         208.000
  -1027690.67949   -789680.04447  20734535.890    20734535.822    20734546.105
       235.000         206.000
     34153.52849     27038.20747  21344887.913    21344887.774    21344900.395
       238.000         202.000
  -2324931.80049  -1788410.73346  23604286.532    23604287.254    23604305.295
       220.000         169.000
  -2488860.48249  -1894848.10647  22153831.044    22153831.375    22153847.401
       232.000         190.000
   -730438.77849   -561686.60647  20045740.868    20045740.642    20045751.569
       239.000         208.000
  -1114181.28349   -845122.80245  23906235.275    23906235.689    23906254.418
       212.000         154.000
    242390.42749    176476.12755  24807434.921    24807437.030    24807460.312
       205.000         151.000
 01 12 19 20 16  0.0000000  0  9G31G 2G28G27G26G 7G 8G11G13
   1216111.97349    939536.69445  24336710.166    24336709.451    24336729.061
       213.000         158.000
   -230450.39849   -177711.79047  21549883.713    21549883.341    21549895.372
       241.000         208.000
  -1078812.57749   -829515.27447  20724807.743    20724807.666    20724817.944
       235.000         206.000
     39645.73549     31317.76647  21345933.103    21345932.963    21345945.582
       238.000         202.000
  -2442802.84049  -1880258.14746  23581856.253    23581857.007    23581875.059
       220.000         170.000
  -2619298.53049  -1996487.99847  22129009.404    22129009.722    22129025.724
       232.000         190.000
   -765728.05949   -589184.74547  20039025.518    20039025.305    20039036.237
       238.000         209.000
  -1198987.70149   -911205.42545  23890096.867    23890097.361    23890116.218
       212.000         154.000
    311845.78559    230596.64945  24820652.133    24820653.363    24820676.541
       208.000         150.000
 01 12 19 20 16 30.0000000  0  9G31G 2G28G27G26G 7G 8G11G13
   1278950.13449    988501.19545  24348668.094    24348667.362    24348687.058
       214.000         159.000
   -240490.89649   -185535.62347  21547973.064    21547972.705    21547984.763
       241.000         207.000
  -1129695.44049   -869164.24647  20715125.037    20715124.967    20715135.245
       234.000         206.000
     45488.24849     35870.28847  21347044.957    21347044.800    21347057.431
       238.000         202.000
  -2560292.06349  -1971808.03646  23559498.608    23559499.433    23559517.471
       219.000         168.000
  -2749455.41449  -2097908.79347  22104241.291    22104241.591    22104257.545
       232.000         191.000
   -800642.09949   -616390.49147  20032381.566    20032381.383    20032392.313
       238.000         208.000
  -1283450.09149   -977019.96945  23874023.955    23874024.530    23874043.366
       212.000         155.000
    381278.29849    284699.37045  24833865.085    24833866.373    24833889.654
       206.000         148.000
 01 12 19 20 17  0.0000000  0  9G31G 2G28G27G26G 7G 8G11G13
   1341960.92249   1037600.21845  24360658.836    24360658.110    24360677.920
       215.000         159.000
   -250421.41549   -193273.76547  21546083.373    21546083.029    21546095.076
       241.000         208.000
  -1180334.57149   -908623.29947  20705488.668    20705488.628    20705498.921
       234.000         205.000
     51686.56149     40700.04947  21348224.487    21348224.356    21348236.990
       238.000         202.000
  -2677391.93849  -2063054.54446  23537215.150    23537215.958    23537233.976
       222.000         170.000
  -2879324.06249  -2199104.97747  22079528.010    22079528.303    22079544.212
       232.000         190.000
   -835174.49749   -643298.85647  20025810.239    20025810.071    20025820.999
       238.000         208.000
  -1367560.63349  -1042560.35145  23858018.014    23858018.589    23858037.450
       211.000         155.000
    450691.11349    338786.69245  24847074.282    24847075.373    24847098.815
       205.000         151.000
 01 12 19 20 17 30.0000000  0  9G31G 2G28G27G26G 7G 8G11G13
   1405146.14249   1086835.16345  24372682.788    24372682.082    24372702.016
       213.000         158.000
   -260238.17549   -200923.25647  21544215.384    21544215.018    21544227.069
       242.000         208.000
  -1230726.29349   -947889.55947  20695899.380    20695899.377    20695909.689
       234.000         205.000
     58245.11449     45810.51047  21349472.605    21349472.458    21349485.100
       238.000         202.000
  -2794095.66849  -2153992.35646  23515007.088    23515007.874    23515025.839
       222.000         169.000
  -3008897.93449  -2300071.45647  22054870.838    22054871.113    22054886.966
       233.000         191.000
   -869320.08349   -669905.80847  20019312.536    20019312.383    20019323.308
       238.000         208.000
  -1451312.53149  -1107821.27045  23842080.337    23842080.977    23842099.835
       215.000         158.000
    520085.66349    392859.82045  24860280.110    24860280.972    24860304.419
       206.000         149.000
 01 12 19 20 17 59.9990000  0  9G31G 2G28G27G26G 7G 8G11G13
   1468507.34649   1136207.24545  24384740.191    24384739.493    24384759.567
       212.000         157.000
   -269935.10849   -208479.38847  21542370.193    21542369.800    21542381.874
       242.000         208.000
  -1280863.40549   -986957.42147  20686358.598    20686358.590    20686368.889
       234.000         205.000
     65170.08949     51206.49747  21350790.498    21350790.334    21350802.957
       238.000         202.000
  -2910390.70449  -2244611.68846  23492876.768    23492877.563    23492895.492
       222.000         169.000
  -3138164.37949  -2400798.37547  22030272.122    22030272.426    22030288.230
       233.000         191.000
   -903070.39249   -696204.75147  20012890.080    20012889.926    20012900.860
       239.000         208.000
  -1534694.42249  -1172793.86745  23826213.161    23826213.805    23826232.642
       214.000         158.000
    589463.88449    446920.20545  24873482.795    24873483.413    24873506.904
       205.000         149.000
 01 12 19 20 18 29.9990000  0  9G31G 2G28G27G26G 7G 8G11G13
   1532052.10349   1185722.35345  24396832.561    24396831.858    24396852.034
       212.000         156.000
   -279507.23449   -215938.26347  21540548.706    21540548.325    21540560.418
       242.000         208.000
  -1330743.88949  -1025825.31347  20676866.658    20676866.628    20676876.943
       234.000         205.000
     72467.96549     56893.03847  21352179.314    21352179.138    21352191.796
       238.000         202.000
  -3026276.58249  -2334912.23046  23470824.337    23470825.087    23470842.990
       223.000         170.000
  -3267124.13049  -2501286.30747  22005731.801    22005732.089    22005747.837
       233.000         191.000
   -936420.92849   -722192.17947  20006543.701    20006543.528    20006554.454
       239.000         208.000
  -1617703.76749  -1237476.18645  23810416.848    23810417.524    23810436.256
       213.000         157.000
    658833.91249    500974.20945  24886683.904    24886684.337    24886707.745
       209.000         153.000
 01 12 19 20 18 59.9990000  0  9G31G 2G28G27G26G 7G 8G11G13
   1595789.68649   1235387.70145  24408961.662    24408960.880    24408981.144
       215.000         157.000
   -288940.67749   -223289.07547  21538753.636    21538753.248    21538765.339
       242.000         208.000
  -1380352.51549  -1064481.36247  20667426.421    20667426.417    20667436.712
       233.000         205.000
     80152.69649     62881.02547  21353641.757    21353641.554    21353654.244
       238.000         202.000
  -3141732.89249  -2424878.01546  23448853.689    23448854.388    23448872.222
       224.000         170.000
  -3395756.67949  -2601519.26647  21981253.743    21981254.023    21981269.719
       234.000         192.000
   -969355.49849   -747855.48447  20000276.486    20000276.305    20000287.225
       239.000         208.000
  -1700321.19849  -1301853.10945  23794694.966    23794695.744    23794714.420
       212.000         153.000
    728205.10549    555029.08545  24899885.194    24899885.500    24899908.921
       210.000         152.000
 01 12 19 20 19 29.9990000  0  9G31G 2G28G27G26G 7G 8G11G13
   1659711.92449   1285196.94645  24421125.942    24421125.133    24421145.403
       214.000         158.000
   -298241.41949   -230536.48747  21536983.880    21536983.442    21536995.548
       242.000         208.000
  -1429695.60249  -1102930.50047  20658036.714    20658036.713    20658047.031
       234.000         205.000
     88218.85449     69166.23147  21355176.782    21355176.581    21355189.273
       238.000         202.000
  -3256762.99149  -2514511.69446  23426964.159    23426964.803    23426982.564
       223.000         171.000
  -3524065.72449  -2701500.14047  21956837.223    21956837.516    21956853.149
       233.000         192.000
  -1001878.76349   -773198.29547  19994087.487    19994087.321    19994098.245
       238.000         208.000
  -1782549.86149  -1365927.13145  23779047.065    23779047.894    23779066.500
       215.000         158.000
    797569.60449    609078.82645  24913085.164    24913085.350    24913108.760
       206.000         150.000
 01 12 19 20 19 59.9990000  0  9G31G 2G28G27G26G 7G 8G11G13
   1723795.64849   1335132.04245  24433320.981    24433320.097    24433340.425
       215.000         159.000
   -307430.39949   -237696.80747  21535235.402    21535234.917    21535247.020
       242.000         208.000
  -1478794.19249  -1141189.13147  20648693.532    20648693.541    20648703.869
       234.000         206.000
     96646.14649     75732.84447  21356780.535    21356780.319    21356793.055
       238.000         202.000
  -3371384.83149  -2603827.23046  23405152.252    23405152.923    23405170.581
       224.000         171.000
  -3652069.64249  -2801243.25247  21932478.768    21932479.049    21932494.629
       234.000         192.000
  -1034010.32049   -798235.87647  19987973.067    19987972.877    19987983.822
       238.000         208.000
  -1864408.13849  -1429712.58145  23763469.791    23763470.592    23763489.157
       218.000         160.000
    866904.54149    663105.47245  24926279.558    24926279.645    24926303.115
       208.000         147.000
 01 12 19 20 20 29.9990000  0  9G31G 2G28G27G26G 7G 8G11G13
   1788037.71649   1385190.48545  24445546.142    24445545.189    24445565.598
       214.000         160.000
   -316508.65149   -244770.84347  21533507.980    21533507.467    21533519.552
       242.000         208.000
  -1527649.47749  -1179258.16447  20639396.716    20639396.698    20639407.006
       234.000         206.000
    105433.78249     82580.22947  21358452.852    21358452.638    21358465.413
       238.000         202.000
  -3485596.81149  -2692823.42146  23383418.285    23383418.984    23383436.570
       225.000         170.000
  -3779767.13649  -2900747.58547  21908178.580    21908178.873    21908194.411
       234.000         192.000
  -1065749.83849   -822967.97947  19981933.299    19981933.069    19981943.988
       239.000         208.000
  -1945894.24449  -1493208.02445  23747963.345    23747964.122    23747982.606
       219.000         162.000
    936206.94049    717106.80445  24939467.773    24939467.739    24939491.235
       210.000         152.000
 01 12 19 20 20 59.9990000  0  9G31G 2G28G27G26G 7G 8G11G13
   1852394.33449   1435338.17945  24457793.051    24457792.103    24457812.578
       213.000         161.000
   -325517.71449   -251790.96447  21531793.667    21531793.153    21531805.243
       242.000         208.000
  -1576303.10349  -1217170.06547  20630138.280    20630138.217    20630148.507
       234.000         206.000
    114540.73149     89676.42147  21360185.922    21360185.691    21360198.537
       237.000         202.000
  -3599437.75349  -2781530.47546  23361754.891    23361755.637    23361773.194
       223.000         170.000
  -3907197.35449  -3000043.65047  21883929.274    21883929.576    21883945.060
       234.000         192.000
  -1097137.68249   -847426.04547  19975960.463    19975960.197    19975971.078
       240.000         209.000
  -2027047.15449  -1556443.83845  23732520.280    23732521.046    23732539.519
       217.000         162.000
   1005433.23549    771048.80545  24952641.603    24952641.377    24952664.927
       207.000         149.000
 01 12 19 20 21 29.9990000  0  9G31G 2G28G27G26G 7G 8G11G13
   1916827.38849   1485545.43845  24470054.501    24470053.545    24470074.047
       214.000         162.000
   -334493.33649   -258785.02047  21530085.705    21530085.205    21530097.293
       242.000         208.000
  -1624791.26749  -1254953.03747  20620911.252    20620911.209    20620921.496
       234.000         205.000
    123931.69949     96993.93647  21361973.015    21361972.803    21361985.684
       237.000         201.000
  -3712940.61949  -2869974.08846  23340155.856    23340156.629    23340174.142
       225.000         171.000
  -4034393.52349  -3099157.33147  21859724.539    21859724.810    21859740.245
       234.000         193.000
  -1128208.18449   -871636.83947  19970048.038    19970047.728    19970058.554
       239.000         208.000
  -2107899.79449  -1619445.70545  23717134.319    23717135.101    23717153.562
       218.000         161.000
   1074546.00949    824902.36145  24965793.806    24965793.484    24965816.962
       208.000         147.000
 01 12 19 20 21 59.9990000  0  9G31G 2G28G27G26G 7G 8G11G13
   1981336.33749   1535811.83946  24482330.387    24482329.409    24482350.039
       215.000         163.000
   -343433.90749   -265751.76547  21528384.424    21528383.923    21528396.022
       242.000         208.000
  -1673112.47049  -1292605.91647  20611716.027    20611715.977    20611726.264
       234.000         205.000
    133608.97349    104534.54647  21363814.639    21363814.407    21363827.320
       237.000         200.000
  -3826101.11549  -2958150.92646  23318621.988    23318622.780    23318640.216
       224.000         172.000
  -4161351.76649  -3198085.61547  21835565.081    21835565.323    21835580.715
       233.000         193.000
  -1158958.56149   -895598.19347  19964196.471    19964196.157    19964206.947
       239.000         209.000
  -2188447.91249  -1682210.28545  23701806.331    23701807.146    23701825.481
       217.000         161.000
   1143544.89849    878667.15045  24978924.310    24978923.817    24978947.442
       205.000         144.000
 01 12 19 20 22 29.9990000  0  9G31G 2G28G27G26G 7G 8G11G13
   2045938.04149   1586150.51546  24494623.926    24494622.922    24494643.632
       216.000         163.000
   -352320.27649   -272676.26447  21526693.455    21526692.961    21526705.080
       242.000         208.000
  -1721247.89349  -1330114.02747  20602556.181    20602556.110    20602566.378
       234.000         206.000
    143591.81249    112313.25547  21365714.434    21365714.188    21365727.105
       237.000         200.000
  -3938897.54149  -3046044.07946  23297157.446    23297158.224    23297175.605
       225.000         173.000
  -4288050.61549  -3296811.76147  21811454.939    21811455.180    21811470.547
       234.000         193.000
  -1189368.47749   -919294.25147  19958409.649    19958409.349    19958420.143
       239.000         209.000
  -2268669.88149  -1744720.72645  23686540.445    23686541.223    23686559.513
       217.000         162.000
   1212446.81649    932356.43645  24992036.366    24992035.718    24992059.399
       210.000         148.000
 01 12 19 20 22 59.9990000  0  9G31G 2G28G27G26G 7G 8G11G13
   2110622.25149   1636553.47946  24506933.146    24506932.140    24506952.960
       216.000         164.000
   -361160.54849   -279564.84247  21525011.244    21525010.763    21525022.913
       242.000         208.000
  -1769205.83849  -1367483.85047  20593430.086    20593430.001    20593440.270
       234.000         206.000
    153872.60249    120324.12847  21367670.886    21367670.637    21367683.594
       237.000         200.000
  -4051335.34849  -3133657.78046  23275761.141    23275761.928    23275779.243
       226.000         173.000
  -4414495.85549  -3395340.30247  21787393.069    21787393.294    21787408.648
       234.000         195.000
  -1219444.84349   -942730.40547  19952686.310    19952686.015    19952696.792
       239.000         208.000
  -2348570.82249  -1806981.02445  23671335.593    23671336.370    23671354.634
       217.000         161.000
   1281241.87449    985962.42845  25005128.089    25005127.395    25005151.168
       205.000         148.000
 01 12 19 20 23 29.9990000  0  9G31G 2G28G27G26G 7G 8G11G13
   2175383.23049   1687016.26646  24519256.941    24519255.965    24519276.888
       217.000         166.000
   -369958.04649   -286420.08547  21523337.202    21523336.700    21523348.875
       242.000         208.000
  -1816990.00849  -1404718.26647  20584337.044    20584336.958    20584347.226
       234.000         206.000
    164448.36049    128564.85547  21369683.487    21369683.223    21369696.207
       236.000         200.000
  -4163415.17149  -3220992.52346  23254432.898    23254433.729    23254450.998
       226.000         173.000
  -4540688.65649  -3493672.14247  21763379.214    21763379.444    21763394.755
       235.000         195.000
  -1249189.62449   -965908.19047  19947026.023    19947025.764    19947036.529
       239.000         208.000
  -2428151.85149  -1868992.05745  23656191.538    23656192.384    23656210.670
       215.000         160.000
   1349924.75549   1039480.94145  25018198.422    25018197.689    25018221.625
       204.000         141.000
 01 12 19 20 23 59.9990000  0  9G31G 2G28G27G26G 7G 8G11G13
   2240216.72749   1737535.59046  24531594.590    24531593.594    24531614.586
       218.000         165.000
   -378715.05849   -293243.77947  21521670.870    21521670.348    21521682.553
       242.000         208.000
  -1864602.86449  -1441819.18847  20575276.618    20575276.537    20575286.799
       235.000         206.000
    175317.31749    137034.05047  21371751.863    21371751.591    21371764.615
       236.000         200.000
  -4275136.54949  -3308047.95646  23233172.908    23233173.730    23233190.942
       225.000         174.000
  -4666628.82549  -3591807.13247  21739413.444    21739413.678    21739428.935
       235.000         195.000
  -1278603.89249   -988828.42747  19941428.688    19941428.411    19941439.187
       239.000         208.000
  -2507412.57449  -1930753.52545  23641108.498    23641109.351    23641127.636
       217.000         160.000
   1418491.27749   1092908.90345  25031246.569    25031245.804    25031269.731
       205.000         140.000
 01 12 19 20 24 29.9990000  0  9G31G 2G28G27G26G 7G 8G11G13
   2305128.24849   1788115.70646  24543947.085    24543946.058    24543967.132
       218.000         166.000
   -387423.76149   -300029.83147  21520013.706    21520013.189    21520025.420
       242.000         209.000
  -1912036.69349  -1478780.61147  20566250.319    20566250.198    20566260.433
       234.000         206.000
    186487.53949    145737.99047  21373877.637    21373877.323    21373890.352
       237.000         199.000
  -4386489.36049  -3394816.19546  23211983.043    23211983.872    23212001.019
       226.000         174.000
  -4792306.37249  -3689737.48347  21715497.618    21715497.871    21715513.087
       234.000         194.000
  -1307678.78249  -1011484.22947  19935895.916    19935895.659    19935906.432
       239.000         209.000
  -2586342.69649  -1992257.39445  23626088.477    23626089.248    23626107.470
       218.000         159.000
   1486947.12549   1146250.59445  25044273.696    25044272.940    25044296.936
       204.000         143.000
 01 12 19 20 24 59.9990000  0  9G31G 2G28G27G26G 7G 8G11G13
   2370122.15449   1838760.04646  24556315.279    24556314.221    24556335.380
       217.000         164.000
   -396077.59349   -306773.12247  21518366.968    21518366.470    21518378.730
       242.000         208.000
  -1959285.44849  -1515597.81747  20557259.168    20557259.043    20557269.298
       234.000         206.000
    197965.90349    154682.04747  21376062.068    21376061.709    21376074.695
       237.000         199.000
  -4497464.30049  -3481290.01446  23190865.107    23190865.947    23190882.990
       226.000         175.000
  -4917712.40349  -3787456.26647  21691633.461    21691633.715    21691648.909
       234.000         194.000
  -1336406.32849  -1033869.36647  19930429.296    19930429.017    19930439.786
       239.000         208.000
  -2664933.02449  -2053496.49845  23611133.207    23611133.914    23611152.003
       220.000         161.000
   1555296.82749   1199509.51145  25057280.616    25057279.871    25057304.021
       206.000         144.000
 01 12 19 20 25 29.9990000  0  9G31G 2G28G27G26G 7G 8G11G13
   2435209.01049   1889476.80346  24568701.109    24568700.076    24568721.306
       219.000         165.000
   -404663.73249   -313463.66547  21516733.096    21516732.614    21516744.890
       242.000         208.000
  -2006336.37349  -1552260.86947  20548305.663    20548305.538    20548315.794
       234.000         205.000
    209765.57649    163876.47847  21378307.547    21378307.193    21378320.203
       236.000         199.000
  -4608045.96949  -3567457.38246  23169822.038    23169822.829    23169839.813
       227.000         176.000
  -5042831.98749  -3884951.85047  21667823.803    21667824.063    21667839.238
       235.000         195.000
  -1364772.95249  -1055973.26147  19925031.339    19925031.041    19925041.822
       239.000         209.000
  -2743168.47149  -2114459.09945  23596245.396    23596246.043    23596264.089
       218.000         161.000
   1623551.59849   1252694.47445  25070269.396    25070268.722    25070292.859
       202.000         141.000
 01 12 19 20 25 59.9990000  0  9G31G 2G28G27G26G 7G 8G11G13
   2500378.69249   1940258.10445  24581102.695    24581101.664    24581122.951
       218.000         162.000
   -413190.30849   -320107.79247  21515110.551    21515110.070    21515122.385
       241.000         207.000
  -2053197.93649  -1588776.36647  20539388.195    20539388.058    20539398.311
       234.000         205.000
    221878.53649    173315.01647  21380612.645    21380612.311    21380625.353
       237.000         200.000
  -4718239.92449  -3653322.62246  23148852.732    23148853.501    23148870.395
       227.000         175.000
  -5167671.00149  -3982228.81547  21644067.544    21644067.816    21644082.966
       234.000         196.000
  -1392785.35249  -1077801.14147  19919700.805    19919700.477    19919711.273
       239.000         209.000
  -2821054.50649  -2175149.43845  23581424.014    23581424.672    23581442.703
       218.000         161.000
   1691701.08949   1305797.42145  25083238.207    25083237.478    25083261.736
       199.000         134.000
 01 12 19 20 26 29.9990000  0  9G31G 2G28G27G26G 7G 8G11G13
   2565638.89849   1991109.96545  24593521.503    24593520.481    24593541.833
       216.000         160.000
   -421647.32049   -326697.71047  21513501.246    21513500.793    21513513.110
       241.000         208.000
  -2099860.56449  -1625136.84747  20530508.535    20530508.437    20530518.680
       234.000         205.000
    234315.30849    183005.89647  21382979.365    21382979.044    21382992.134
       236.000         200.000
  -4828033.69149  -3738876.02346  23127959.516    23127960.325    23127977.161
       228.000         176.000
  -5292217.12749  -4079277.56247  21620367.054    21620367.328    21620382.442
       235.000         196.000
  -1420432.46849  -1099344.38647  19914439.767    19914439.429    19914450.218
       239.000         208.000
  -2898578.51049  -2235557.64446  23566671.622    23566672.211    23566690.182
       219.000         163.000
   1759753.53349   1358824.69045  25096188.543    25096187.809    25096212.222
       201.000         137.000
 01 12 19 20 26 59.9990000  0  8G31G 2G28G27G26G 7G 8G11
   2631006.12149   2042045.18745  24605960.687    24605959.663    24605981.075
       214.000         157.000
   -430016.12149   -333218.89447  21511908.748    21511908.302    21511920.637
       242.000         208.000
  -2146305.44549  -1661327.64747  20521670.354    20521670.257    20521680.482
       234.000         205.000
    247094.68849    192963.74247  21385411.348    21385410.990    21385424.113
       237.000         199.000
  -4937405.94549  -3824100.96446  23107146.558    23107147.347    23107164.114
       227.000         176.000
  -5416449.42249  -4176081.76247  21596726.288    21596726.546    21596741.643
       234.000         196.000
  -1447694.42249  -1120587.51247  19909252.005    19909251.685    19909262.473
       239.000         209.000
  -2975719.17049  -2295667.15646  23551992.170    23551992.701    23552010.672
       219.000         165.000
 01 12 19 20 27 29.9990000  0  8G31G 2G28G27G26G 7G 8G11
   2696460.71849   2093048.52045  24618416.493    24618415.459    24618436.949
       214.000         155.000
   -438314.20849   -339684.96947  21510329.765    21510329.285    21510341.593
       242.000         208.000
  -2192550.53349  -1697362.76247  20512870.203    20512870.104    20512880.309
       234.000         205.000
    260199.47749    203175.15247  21387905.179    21387904.848    21387917.962
       236.000         198.000
  -5046371.69449  -3909009.16246  23086410.919    23086411.719    23086428.401
       226.000         176.000
  -5540383.13649  -4272653.31447  21573142.354    21573142.592    21573157.671
       236.000         197.000
  -1474587.68249  -1141543.33847  19904134.404    19904134.088    19904144.871
       239.000         208.000
  -3052491.72249  -2355489.79346  23537382.647    23537383.214    23537401.226
       218.000         163.000
 01 12 19 20 27 59.9990000  0  8G31G 2G28G27G26G 7G 8G11
   2762004.13549   2144121.04645  24630889.165    24630888.184    24630909.701
       211.000         153.000
   -446537.90449   -346093.08447  21508764.925    21508764.429    21508776.713
       242.000         208.000
  -2238592.30849  -1733239.45047  20504108.704    20504108.626    20504118.849
       234.000         206.000
    273633.44249    213643.06047  21390461.690    21390461.341    21390474.473
       237.000         199.000
  -5154924.82549  -3993595.85546  23065753.762    23065754.595    23065771.206
       227.000         176.000
  -5664012.56349  -4368987.77347  21549616.377    21549616.587    21549631.582
       238.000         198.000
  -1501107.42249  -1162208.11147  19899087.853    19899087.557    19899098.338
       239.000         208.000
  -3128890.12249  -2415020.89046  23522844.371    23522844.955    23522862.920
       218.000         163.000
 01 12 19 20 28 29.9990000  0  8G31G 2G28G27G26G 7G 8G11
   2827637.52449   2195263.67545  24643378.963    24643378.021    24643399.560
       209.000         151.000
   -454683.42449   -352440.28347  21507214.920    21507214.428    21507226.730
       241.000         208.000
  -2284427.57449  -1768955.22147  20495386.533    20495386.462    20495396.684
       234.000         206.000
    287400.64049    224370.63447  21393081.644    21393081.281    21393094.412
       237.000         199.000
  -5263059.38549  -4077856.38646  23045176.283    23045177.122    23045193.700
       227.000         175.000
  -5787331.97149  -4465080.65947  21526149.437    21526149.587    21526164.476
       238.000         197.000
  -1527248.83549  -1182578.07447  19894113.306    19894113.008    19894123.803
       239.000         208.000
  -3204908.28049  -2474255.69746  23508378.530    23508379.084    23508397.019
       219.000         163.000
 01 12 19 20 28 59.9990000  0  8G31G 2G28G27G26G 7G 8G11
   2893358.40049   2246474.49045  24655885.357    24655884.467    24655906.066
       207.000         149.000
   -462751.37049   -358727.02847  21505679.707    21505679.198    21505691.487
       243.000         208.000
  -2330057.09849  -1804510.67147  20486703.556    20486703.453    20486713.659
       234.000         206.000
    301500.66449    235357.55147  21395764.905    21395764.532    21395777.673
       237.000         199.000
  -5370773.22449  -4161789.07946  23024678.918    23024679.743    23024696.222
       228.000         175.000
  -5910339.54749  -4560930.56847  21502741.801    21502741.921    21502756.719
       237.000         197.000
  -1553011.61249  -1202652.99347  19889210.799    19889210.526    19889221.327
       239.000         208.000
  -3280544.45749  -2533192.85345  23493985.384    23493985.892    23494003.784
       217.000         160.000
 01 12 19 20 29 29.9990000  0  8G31G 2G28G27G26G 7G 8G11
   2959165.67549   2297752.61145  24668408.232    24668407.371    24668429.084
       204.000         142.000
   -470740.46549   -364952.33447  21504159.475    21504158.967    21504171.259
       242.000         208.000
  -2375479.92349  -1839905.05547  20478059.829    20478059.747    20478069.965
       235.000         205.000
    315934.77449    246604.79647  21398511.766    21398511.374    21398524.518
       236.000         198.000
  -5478062.78349  -4245391.14646  23004262.246    23004263.075    23004279.552
       227.000         175.000
  -6033031.97549  -4656534.90547  21479394.099    21479394.205    21479408.935
       237.000         197.000
  -1578393.22049  -1222430.90347  19884380.872    19884380.593    19884391.382
       239.000         208.000
  -3355794.97449  -2591829.46346  23479665.550    23479666.058    23479683.961
       218.000         163.000
 01 12 19 20 29 59.9990000  0  8G31G 2G28G27G26G 7G 8G11
   3025076.47349   2349111.43345  24680950.868    24680949.908    24680971.704
       203.000         134.000
   -478631.29749   -371101.07147  21502657.940    21502657.438    21502669.742
       242.000         208.000
  -2420676.89149  -1875123.45147  20469459.100    20469459.018    20469469.232
       234.000         205.000
    330722.53749    258127.62147  21401325.871    21401325.504    21401338.640
       235.000         197.000
  -5584906.14749  -4328645.55446  22983930.457    22983931.320    22983947.792
       226.000         174.000
  -6155387.77349  -4751876.94147  21456110.412    21456110.544    21456125.228
       237.000         197.000
  -1603373.39049  -1241896.00347  19879627.334    19879627.045    19879637.840
       240.000         208.000
  -3430638.06549  -2650148.59746  23465423.290    23465423.782    23465441.685
       219.000         165.000
 01 12 19 20 30 29.9990000  0  8G31G 2G28G27G26G 7G 8G11
   3091079.43549   2400542.04045  24693510.990    24693510.063    24693531.949
       202.000         135.000
   -486433.20449   -377180.51447  21501173.297    21501172.815    21501185.155
       242.000         208.000
  -2465657.61549  -1910173.34247  20460899.518    20460899.452    20460909.667
       235.000         206.000
    345854.83049    269918.92147  21404205.526    21404205.169    21404218.303
       236.000         196.000
  -5691310.26049  -4411557.68046  22963682.246    22963683.135    22963699.626
       227.000         174.000
  -6277414.32349  -4846962.41947  21432889.431    21432889.535    21432904.147
       238.000         198.000
  -1627960.55849  -1261054.85547  19874948.598    19874948.296    19874959.094
       239.000         209.000
  -3505080.80749  -2708155.78246  23451257.257    23451257.684    23451275.595
       218.000         166.000
 01 12 19 20 30 59.9990000  0  8G31G 2G28G27G26G 7G 8G11
   3157189.13049   2452055.80945  24706091.418    24706090.402    24706112.474
       200.000         132.000
   -494129.57949   -383177.72547  21499708.725    21499708.257    21499720.625
       241.000         208.000
  -2510405.96049  -1945042.16447  20452384.166    20452384.104    20452394.324
       235.000         205.000
    361348.31249    281991.66247  21407153.943    21407153.578    21407166.709
       236.000         196.000
  -5797256.39849  -4494112.94546  22943521.242    22943522.117    22943538.609
       227.000         174.000
  -6399092.84649  -4941776.71447  21409734.672    21409734.775    21409749.293
       238.000         198.000
  -1652137.16149  -1279893.79147  19870347.991    19870347.673    19870358.472
       239.000         209.000
  -3579104.40549  -2765836.35446  23437170.928    23437171.327    23437189.202
       219.000         166.000
 01 12 19 20 31 29.9990000  0  8G31G 2G28G27G26G 7G 8G11
   3223388.13749   2503639.17844  24718688.748    24718687.801    24718709.963
       196.000         127.000
   -501735.39549   -389104.37547  21498261.411    21498260.949    21498273.362
       241.000         209.000
  -2554937.24449  -1979741.84647  20443910.143    20443910.084    20443920.282
       235.000         206.000
    377188.12449    294334.25947  21410168.188    21410167.865    21410181.016
       235.000         195.000
  -5902756.97049  -4576321.03346  22923445.048    22923445.880    22923462.345
       226.000         175.000
  -6520436.39949  -5036329.98247  21386643.665    21386643.743    21386658.186
       238.000         197.000
  -1675917.07249  -1298423.61247  19865822.890    19865822.546    19865833.340
       240.000         208.000
  -3652721.44049  -2823200.12646  23423161.899    23423162.337    23423180.231
       220.000         167.000
 01 12 19 20 31 59.9990000  0  8G31G 2G28G27G26G 7G 8G11
   3289662.45048   2555281.23844  24731300.423    24731300.014    24731324.654
       194.000         120.000
   -509262.49949   -394969.69247  21496829.037    21496828.605    21496841.055
       242.000         208.000
  -2599263.56249  -2014281.81547  20435475.145    20435475.060    20435485.228
       235.000         206.000
    393362.59849    306937.62647  21413246.102    21413245.815    21413259.002
       234.000         195.000
  -6007821.71549  -4658189.51046  22903451.787    22903452.608    22903468.998
       228.000         174.000
  -6641454.78649  -5130629.88347  21363614.493    21363614.573    21363628.974
       237.000         198.000
  -1699311.25249  -1316652.87047  19861371.142    19861370.808    19861381.601
       240.000         208.000
  -3725941.76149  -2880254.76246  23409228.476    23409228.877    23409246.724
       223.000         170.000
 01 12 19 20 32 29.9990000  0  8G31G 2G28G27G26G 7G 8G11
   3356017.64448   2606986.27944  24743927.568    24743928.652    24743952.288
       187.000         111.000
   -516703.18449   -400767.67047  21495413.171    21495412.730    21495425.174
       242.000         208.000
  -2643377.65849  -2048656.42047  20427080.466    20427080.410    20427090.571
       235.000         206.000
    409879.39649    319807.75247  21416389.190    21416388.926    21416402.127
       234.000         195.000
  -6112440.44249  -4739710.43346  22883543.466    22883544.217    22883560.512
       229.000         174.000
  -6762138.24749  -5224668.79047  21340649.031    21340649.133    21340663.516
       237.000         198.000
  -1722311.01549  -1334574.77947  19856994.489    19856994.127    19857004.941
       240.000         208.000
  -3798755.23149  -2936992.38846  23395372.511    23395372.856    23395390.611
       224.000         170.000
 01 12 19 20 32 59.9990000  0  8G31G 2G28G27G26G 7G 8G11
                   2658758.42544  24756571.103
       180.000         100.000
   -524050.04949   -406492.54447  21494015.149    21494014.701    21494027.137
       242.000         208.000
  -2687272.33649  -2082860.05547  20418727.598    20418727.525    20418737.675
       235.000         206.000
    426745.84849    332950.33647  21419598.890    21419598.607    21419611.785
       235.000         195.000
  -6216603.49849  -4820876.30246  22863721.738    22863722.503    22863738.735
       227.000         175.000
  -6882477.29849  -5318439.32947  21317749.173    21317749.241    21317763.602
       237.000         198.000
  -1744908.08149  -1352182.90047  19852694.446    19852694.078    19852704.888
       240.000         209.000
  -3871152.31949  -2993405.54346  23381595.741    23381596.105    23381613.763
       224.000         170.000
 01 12 19 20 33 29.9990000  0  8G31G 2G28G27G26G 7G 8G11
                   2710621.95654  24769236.870
       171.000          96.000
   -531269.66249   -412118.25947  21492641.383    21492640.899    21492653.339
       242.000         209.000
  -2730914.51849  -2116866.94247  20410422.754    20410422.689    20410432.822
       234.000         206.000
    443995.41649    346391.45547  21422881.479    21422881.181    21422894.369
       234.000         195.000
  -6320275.25249  -4901659.33446  22843993.555    22843994.303    22844010.486
       228.000         175.000
  -7002436.71349  -5411914.04647  21294921.508    21294921.599    21294935.910
       237.000         198.000
  -1767068.19949  -1369450.55047  19848477.534    19848477.177    19848487.989
       240.000         209.000
  -3943097.42349  -3049466.49246  23367904.957    23367905.294    23367922.929
       225.000         171.000
 01 12 19 20 33 59.9990000  0  7G 2G28G27G26G 7G 8G11
   -538363.86949   -417646.25947  21491291.444    21491290.953    21491303.397
       242.000         208.000
  -2774306.52249  -2150678.88847  20402165.497    20402165.443    20402175.573
       234.000         206.000
    461626.28949    360129.68247  21426236.596    21426236.315    21426249.553
       234.000         195.000
  -6423455.35049  -4982059.28046  22824358.900    22824359.661    22824375.822
       226.000         177.000
  -7122016.30149  -5505092.79247  21272166.164    21272166.236    21272180.501
       237.000         198.000
  -1788792.33649  -1386378.45447  19844343.588    19844343.239    19844354.066
       240.000         209.000
  -4014590.20049  -3105174.96246  23354300.224    23354300.556    23354318.147
       224.000         169.000
 01 12 19 20 34 29.9990000  0  7G 2G28G27G26G 7G 8G11
   -545368.45349   -423104.42947  21489958.539    21489958.058    21489970.511
       241.000         208.000
  -2817484.41349  -2184323.99947  20393949.009    20393948.944    20393959.092
       235.000         206.000
    479602.55649    374137.05747  21429657.459    21429657.155    21429670.455
       234.000         195.000
  -6526177.44549  -5062102.34446  22804811.367    22804812.150    22804828.328
       227.000         177.000
  -7241250.06149  -5598002.06547  21249476.621    21249476.682    21249490.899
       237.000         198.000
  -1810115.50149  -1402993.91947  19840285.933    19840285.587    19840296.442
       239.000         208.000
  -4085664.58249  -3160557.40746  23340775.120    23340775.468    23340792.952
       225.000         166.000
 01 12 19 20 34 59.9990000  0  7G 2G28G27G26G 7G 8G11
   -552287.30249   -428495.79447  21488641.988    21488641.490    21488653.945
       242.000         209.000
  -2860452.16649  -2217805.36447  20385772.519    20385772.458    20385782.606
       235.000         206.000
    497920.49249    388410.66847  21433143.323    21433143.022    21433156.355
       235.000         194.000
  -6628442.96749  -5141789.61846  22785350.733    22785351.556    22785367.723
       227.000         177.000
  -7360139.78149  -5690643.24947  21226852.571    21226852.609    21226866.776
       237.000         199.000
  -1831040.51549  -1419299.14447  19836304.062    19836303.707    19836314.563
       240.000         208.000
  -4156322.16449  -3215615.07046  23327329.362    23327329.689    23327347.106
       224.000         167.000
 01 12 19 20 35 29.9980000  0  7G 2G28G27G26G 7G 8G11
   -559126.18849   -433824.84547  21487340.609    21487340.131    21487352.582
       241.000         208.000
  -2903214.93049  -2251126.99447  20377635.063    20377634.969    20377645.130
       235.000         206.000
    516573.21649    402945.15747  21436692.883    21436692.588    21436705.950
       235.000         194.000
  -6730252.49849  -5221121.58946  22765976.914    22765977.713    22765993.868
       227.000         178.000
  -7478685.61849  -5783016.47147  21204293.932    21204293.969    21204308.100
       237.000         199.000
  -1851571.89249  -1435297.61947  19832397.071    19832396.716    19832407.582
       240.000         208.000
  -4226564.50949  -3270349.17246  23313962.580    23313962.907    23313980.285
       224.000         168.000
 01 12 19 20 35 59.9980000  0  7G 2G28G27G26G 7G 8G11
   -565883.14049   -439090.05647  21486054.871    21486054.366    21486066.850
       242.000         208.000
  -2945773.28749  -2284289.35547  20369536.477    20369536.369    20369546.514
       235.000         206.000
    535564.49649    417743.45547  21440306.911    21440306.611    21440319.961
       234.000         193.000
  -6831608.17549  -5300099.89646  22746689.451    22746690.256    22746706.355
       226.000         177.000
  -7596891.10949  -5875124.48647  21181800.033    21181800.089    21181814.187
       237.000         199.000
  -1871707.86749  -1450988.00147  19828565.363    19828565.011    19828575.857
       240.000         209.000
  -4296391.56849  -3324759.69146  23300674.787    23300675.128    23300692.477
       225.000         170.000
 01 12 19 20 36 29.9980000  0  7G 2G28G27G26G 7G 8G11
   -572556.95349   -444290.48647  21484784.919    21484784.409    21484796.917
       241.000         208.000
  -2988125.51049  -2317291.09347  20361477.118    20361477.017    20361487.142
       235.000         207.000
    554894.21449    432805.48147  21443985.321    21443985.013    21443998.378
       234.000         193.000
  -6932503.60849  -5378719.57046  22727489.609    22727490.378    22727506.403
       227.000         177.000
  -7714749.85749  -5966962.31047  21159372.135    21159372.191    21159386.269
       238.000         199.000
  -1891445.98149  -1466368.36547  19824809.391    19824809.001    19824819.826
       240.000         209.000
  -4365798.63149  -3378842.94446  23287466.945    23287467.337    23287484.570
       225.000         168.000
 01 12 19 20 36 59.9980000  0  7G 2G28G27G26G 7G 8G11
   -579159.35149   -449435.27347  21483528.553    21483528.045    21483540.573
       241.000         208.000
  -3030283.50349  -2350141.48147  20353454.755    20353454.632    20353464.744
       235.000         207.000
    574550.67149    448122.09047  21447725.881    21447725.579    21447738.984
       234.000         194.000
  -7032948.49449  -5456988.19946  22708375.490    22708376.240    22708392.200
       226.000         178.000
  -7832271.54349  -6058537.49547  21137008.384    21137008.442    21137022.495
       238.000         200.000
  -1910797.31549  -1481447.33747  19821126.976    19821126.593    19821137.401
       239.000         208.000
  -4434795.22549  -3432606.38246  23274337.230    23274337.616    23274354.705
       225.000         167.000
 01 12 19 20 37 29.9980000  0  7G 2G28G27G26G 7G 8G11
   -585688.80049   -454523.21047  21482286.108    21482285.586    21482298.116
       242.000         208.000
  -3072246.14149  -2382839.64547  20345469.533    20345469.406    20345479.516
       234.000         206.000
    594535.25649    463694.39847  21451528.923    21451528.599    21451542.021
       234.000         194.000
  -7132939.19349  -5534902.90546  22689347.764    22689348.531    22689364.468
       227.000         178.000
  -7949452.90749  -6149847.49247  21114709.427    21114709.477    21114723.467
       238.000         200.000
  -1929759.55549  -1496223.10647  19817518.583    19817518.214    19817529.026
       240.000         208.000
  -4503377.93449  -3486047.31846  23261286.262    23261286.654    23261303.672
       225.000         168.000
 01 12 19 20 37 59.9980000  0  7G 2G28G27G26G 7G 8G11
   -592143.51849   -459552.91747  21481057.858    21481057.321    21481069.866
       241.000         207.000
  -3114012.12549  -2415384.56847  20337521.689    20337521.584    20337531.717
       235.000         206.000
    614849.62149    479523.67047  21455394.724    21455394.392    21455407.827
       233.000         194.000
  -7232471.71649  -5612460.58046  22670407.307    22670408.041    22670423.917
       227.000         178.000
  -8066290.11949  -6240889.32247  21092475.972    21092475.992    21092489.940
       238.000         200.000
  -1948330.16049  -1510693.71347  19813984.709    19813984.355    19813995.165
       240.000         208.000
  -4571542.68449  -3539162.57346  23248314.888    23248315.235    23248332.173
       224.000         167.000
 01 12 19 20 38 29.9980000  0  7G 2G28G27G26G 7G 8G11
   -598515.90849   -464518.46847  21479845.187    21479844.720    21479857.288
       240.000         207.000
  -3155574.01449  -2447770.45447  20329612.739    20329612.612    20329622.728
       235.000         207.000
    635501.11649    495615.64247  21459324.711    21459324.349    21459337.823
       233.000         194.000
  -7331536.49949  -5689653.79146  22651555.863    22651556.546    22651572.370
       227.000         178.000
  -8182773.88549  -6331655.73247  21070309.748    21070309.766    21070323.686
       238.000         201.000
  -1966500.64849  -1524852.53347  19810526.955    19810526.618    19810537.424
       240.000         208.000
  -4639280.03949  -3591944.81846  23235424.742    23235425.102    23235442.060
       222.000         167.000
 01 12 19 20 38 59.9980000  0  7G 2G28G27G26G 7G 8G11
   -604809.94549   -469422.97147  21478647.457    21478647.007    21478659.641
       241.000         208.000
  -3196936.32149  -2480000.82047  20321741.770    20321741.637    20321751.738
       236.000         207.000
    656485.56249    511967.04547  21463317.967    21463317.632    21463331.183
       233.000         193.000
  -7430135.40649  -5766483.97646  22632793.007    22632793.694    22632809.474
       228.000         179.000
  -8298906.62049  -6422148.61347  21048210.332    21048210.328    21048224.237
       239.000         201.000
  -1984274.47949  -1538702.27647  19807144.680    19807144.358    19807155.190
       240.000         208.000
  -4706592.41149  -3644395.93146  23222615.483    23222615.864    23222632.764
       224.000         167.000
 01 12 19 20 39 29.9980000  0  7G 2G28G27G26G 7G 8G11
   -611027.12549   -474267.58547  21477464.390    21477463.952    21477476.631
       241.000         208.000
  -3238100.80849  -2512077.04047  20313908.476    20313908.315    20313918.360
       236.000         207.000
    677801.24149    528576.54447  21467374.289    21467373.938    21467387.543
       233.000         192.000
  -7528268.15149  -5842950.91746  22614118.856    22614119.549    22614135.311
       227.000         179.000
  -8414687.88349  -6512367.62847  21026177.809    21026177.777    21026191.669
       238.000         201.000
  -2001652.38949  -1552243.50947  19803837.750    19803837.444    19803848.319
       240.000         208.000
  -4773479.00249  -3696515.29946  23209887.298    23209887.649    23209904.506
       225.000         167.000
 01 12 19 20 39 59.9980000  0  7G 2G28G27G26G 7G 8G11
   -617164.71049   -479050.16947  21476296.483    21476296.041    21476308.740
       240.000         207.000
  -3279065.13249  -2543997.28447  20306113.297    20306113.098    20306123.107
       236.000         207.000
    699450.73549    545446.16647  21471494.143    21471493.796    21471507.404
       234.000         192.000
  -7625929.89249  -5919050.84346  22595534.306    22595535.027    22595550.792
       227.000         180.000
  -8530113.27349  -6602309.33947  21004212.960    21004212.955    21004226.821
       239.000         201.000
  -2018630.94349  -1565473.54647  19800606.799    19800606.528    19800617.426
       240.000         208.000
  -4839935.38749  -3748299.42946  23197240.978    23197241.335    23197258.153
       225.000         171.000
 01 12 19 20 40 29.9980000  0  7G 2G28G27G26G 7G 8G11
   -623213.24749   -483763.36547  21475145.538    21475145.079    21475157.775
       240.000         207.000
  -3319820.30149  -2575754.55347  20298357.832    20298357.647    20298367.645
       235.000         207.000
    721443.15149    562582.98047  21475679.271    21475678.912    21475692.520
       233.000         191.000
  -7723109.20249  -5994774.84546  22577041.525    22577042.282    22577058.069
       227.000         179.000
  -8645171.63149  -6691965.05347  20982317.993    20982317.954    20982331.815
       238.000         202.000
  -2035200.19249  -1578384.64947  19797453.777    19797453.502    19797464.443
       240.000         209.000
  -4905950.30049  -3799739.56846  23184678.713    23184679.033    23184695.858
       226.000         172.000
 01 12 19 20 40 59.9980000  0  7G 2G28G27G26G 7G 8G11
   -629174.67149   -488408.68047  21474011.167    21474010.690    21474023.391
       240.000         207.000
  -3360368.66349  -2607350.66347  20290641.717    20290641.552    20290651.555
       235.000         207.000
    743776.23049    579985.25847  21479929.150    21479928.832    21479942.467
       232.000         191.000
  -7819806.23249  -6070123.04546  22558640.536    22558641.332    22558657.115
       227.000         179.000
  -8759863.32549  -6781335.05347  20960492.747    20960492.732    20960506.598
       238.000         202.000
  -2051361.32449  -1590977.74447  19794378.451    19794378.165    19794389.097
       240.000         209.000
  -4971523.81049  -3850835.78246  23172200.399    23172200.742    23172217.522
       225.000         170.000
 01 12 19 20 41 29.9980000  0  7G 2G28G27G26G 7G 8G11
   -635062.35649   -492996.53447  21472890.823    21472890.343    21472903.044
       240.000         207.000
  -3400724.02449  -2638796.38347  20282962.291    20282962.149    20282972.178
       236.000         207.000
    766436.33449    597642.36347  21484241.350    21484241.002    21484254.634
       233.000         191.000
  -7916032.36449  -6145104.32046  22540329.250    22540330.013    22540345.752
       227.000         180.000
  -8874199.93349  -6870428.37247  20938735.081    20938735.089    20938748.941
       239.000         203.000
  -2067127.31749  -1603262.94047  19791378.299    19791377.995    19791388.929
       240.000         208.000
  -5036667.53949  -3901597.09846  23159803.815    23159804.199    23159820.946
       224.000         168.000
 01 12 19 20 41 59.9980000  0  7G 2G28G27G26G 7G 8G11
   -640872.49149   -497523.96247  21471785.219    21471784.753    21471797.456
       241.000         207.000
  -3440882.80549  -2670088.92147  20275320.304    20275320.181    20275330.210
       236.000         208.000
    789427.15049    615557.15547  21488616.455    21488616.112    21488629.744
       232.000         190.000
  -8011781.94149  -6219714.23646  22522108.611    22522109.387    22522125.086
       227.000         179.000
  -8988176.10249  -6959240.83147  20917046.034    20917046.041    20917059.857
       239.000         202.000
  -2082493.65649  -1615236.71747  19788454.188    19788453.889    19788464.838
       240.000         208.000
  -5101375.78649  -3952019.07346  23147490.193    23147490.576    23147507.184
       224.000         168.000
 01 12 19 20 42 29.9980000  0  7G 2G28G27G26G 7G 8G11
   -646591.16349   -501980.11947  21470697.015    21470696.565    21470709.260
       240.000         206.000
  -3480831.64749  -2701217.87147  20267718.303    20267718.168    20267728.187
       236.000         208.000
    812762.24649    633740.21947  21493057.010    21493056.710    21493070.386
       232.000         190.000
  -8107038.96749  -6293940.34946  22503981.663    22503982.474    22503998.147
       228.000         179.000
  -9101776.00249  -7047760.09247  20895428.576    20895428.584    20895442.363
       239.000         202.000
  -2097445.60249  -1626887.58447  19785608.886    19785608.615    19785619.578
       239.000         208.000
  -5165633.09349  -4002089.65746  23135262.370    23135262.732    23135279.285
       224.000         168.000
 01 12 19 20 42 59.9980000  0  7G 2G28G27G26G 7G 8G11
   -652225.46049   -506370.53647  21469624.842    21469624.428    21469637.114
       240.000         206.000
  -3520577.78749  -2732188.87947  20260154.852    20260154.725    20260164.731
       236.000         208.000
    836434.11449    652185.69847  21497561.636    21497561.380    21497575.106
       232.000         190.000
  -8201808.93749  -6367786.94746  22485947.436    22485948.232    22485963.919
       227.000         179.000
  -9215005.35449  -7135990.62447  20873881.636    20873881.647    20873895.376
       239.000         203.000
  -2111990.02349  -1638220.90547  19782841.204    19782840.912    19782851.867
       239.000         208.000
  -5229444.85349  -4051813.06746  23123119.349    23123119.678    23123136.212
       226.000         169.000
 01 12 19 20 43 29.9980000  0  7G 2G28G27G26G 7G 8G11
   -657770.83249   -510691.65747  21468569.644    21468569.206    21468581.915
       240.000         206.000
  -3560117.30149  -2762998.87947  20252630.682    20252630.589    20252640.608
       236.000         208.000
    860446.82749    670896.77447  21502131.208    21502130.932    21502144.668
       233.000         190.000
  -8296085.52649  -6441249.08746  22468007.068    22468007.886    22468023.599
       228.000         181.000
  -9327858.09749  -7223927.69147  20852406.378    20852406.378    20852420.075
       239.000         203.000
  -2126121.73849  -1649232.63847  19780152.002    19780151.723    19780162.694
       239.000         208.000
  -5292804.73649  -4101184.34046  23111062.304    23111062.620    23111079.154
       224.000         170.000
 01 12 19 20 43 59.9980000  0  7G 2G28G27G26G 7G 8G11
   -663225.60349   -514942.18647  21467531.612    21467531.208    21467543.942
       239.000         205.000
  -3599448.91749  -2793646.87847  20245146.080    20245146.010    20245156.037
       236.000         208.000
    884801.62549    689874.41647  21506765.902    21506765.603    21506779.320
       233.000         190.000
  -8389865.22549  -6514324.04546  22450161.353    22450162.119    22450177.806
       228.000         181.000
  -9440330.83549  -7311568.65547  20831003.433    20831003.434    20831017.095
       239.000         204.000
  -2139838.36849  -1659920.93347  19777541.774    19777541.533    19777552.491
       238.000         208.000
  -5355709.45849  -4150200.91946  23099091.855    23099092.160    23099108.711
       225.000         170.000
 01 12 19 20 44 29.9980000  0  7G 2G28G27G26G 7G 8G11
   -668591.06749   -519123.12647  21466510.651    21466510.216    21466522.952
       240.000         206.000
  -3638574.20249  -2824134.10947  20237700.754    20237700.688    20237710.750
       236.000         208.000
    909496.92049    709117.36647  21511465.343    21511465.048    21511478.797
       233.000         191.000
  -8483147.53149  -6587011.42946  22432410.164    22432410.984    22432426.646
       227.000         181.000
  -9552423.37149  -7398913.36047  20809672.842    20809672.845    20809686.460
       239.000         204.000
  -2153140.98949  -1670286.61947  19775010.351    19775010.114    19775021.107
       238.000         208.000
  -5418158.61049  -4198862.51446  23087208.115    23087208.422    23087224.933
       225.000         170.000
 01 12 19 20 44 59.9980000  0  7G 2G28G27G26G 7G 8G11
   -673875.05449   -523240.57847  21465505.163    21465504.748    21465517.491
       240.000         205.000
  -3677501.67349  -2854467.20047  20230293.126    20230293.048    20230303.102
       237.000         209.000
    934524.45049    728619.20847  21516228.039    21516227.730    21516241.543
       233.000         190.000
  -8575938.54249  -6659315.97646  22414752.442    22414753.307    22414768.975
       228.000         180.000
  -9664142.07149  -7485966.76247  20788413.410    20788413.396    20788426.978
       240.000         204.000
  -2166036.72549  -1680335.25647  19772556.343    19772556.120    19772567.111
       238.000         207.000
  -5480158.56249  -4247174.06946  23075409.787    23075410.127    23075426.654
       226.000         169.000
 01 12 19 20 45 29.9980000  0  7G 2G28G27G26G 7G 8G11
   -679076.63849   -527293.81447  21464515.419    21464514.967    21464527.706
       240.000         206.000
  -3716230.64349  -2884645.61247  20222923.294    20222923.172    20222933.232
       237.000         209.000
    959884.61649    748380.24447  21521054.043    21521053.724    21521067.572
       232.000         189.000
  -8668235.72349  -6731235.72246  22397188.805    22397189.648    22397205.245
       228.000         180.000
  -9775484.59449  -7572727.04047  20767225.551    20767225.537    20767239.061
       240.000         205.000
  -2178524.50449  -1690066.00347  19770180.016    19770179.788    19770190.775
       238.000         208.000
  -5541706.57949  -4295133.44446  23063697.494    23063697.830    23063714.425
       227.000         171.000
 01 12 19 20 45 59.9980000  0  7G 2G28G27G26G 7G 8G11
   -684200.74549   -531286.68047  21463540.393    21463539.919    21463552.679
       239.000         205.000
  -3754766.43749  -2914673.50247  20215590.167    20215590.058    20215600.094
       236.000         209.000
    985572.03749    768396.29147  21525942.298    21525941.979    21525955.850
       233.000         188.000
  -8760042.34349  -6802773.21346  22379718.457    22379719.296    22379734.899
       227.000         180.000
  -9886454.29349  -7659196.81247  20746108.671    20746108.632    20746122.097
       240.000         205.000
  -2190608.81349  -1699482.35847  19767880.518    19767880.249    19767891.207
       239.000         208.000
  -5602806.03349  -4342743.27446  23052070.639    23052070.934    23052087.532
       229.000         172.000
 01 12 19 20 46 29.9980000  0  7G 2G28G27G26G 7G 8G11
   -689245.53049   -535217.73647  21462580.472    21462579.990    21462592.748
       240.000         205.000
  -3793107.79949  -2944549.88847  20208294.037    20208293.939    20208303.956
       237.000         208.000
   1011587.93049    788668.30947  21530893.034    21530892.714    21530906.608
       232.000         188.000
  -8851354.83749  -6873925.67746  22362342.124    22362342.961    22362358.578
       227.000         181.000
  -9997047.79449  -7745373.44247  20725063.366    20725063.298    20725076.714
       240.000         205.000
  -2202287.25849  -1708582.45047  19765658.228    19765657.938    19765668.867
       239.000         208.000
  -5663453.78549  -4390001.12346  23040529.735    23040530.008    23040546.601
       228.000         173.000
 01 12 19 20 46 59.9980000  0  7G 2G28G27G26G 7G 8G11
   -694211.02149   -539086.99547  21461635.633    21461635.145    21461647.893
       240.000         205.000
  -3831255.14449  -2974275.08747  20201034.869    20201034.745    20201044.736
       237.000         208.000
   1037931.92549    809195.97547  21535906.214    21535905.905    21535919.835
       231.000         189.000
  -8942171.59649  -6944691.85446  22345060.204    22345061.004    22345076.603
       228.000         181.000
 -10107263.86449  -7831255.97147  20704089.842    20704089.790    20704103.143
       240.000         205.000
  -2213559.34449  -1717365.90647  19763513.263    19763512.960    19763523.872
       239.000         208.000
  -5723648.34449  -4436905.84046  23029074.965    23029075.287    23029091.878
       227.000         171.000
 01 12 19 20 47 29.9980000  0  7G 2G28G27G26G 7G 8G11
   -699082.28049   -542882.82947  21460708.731    21460708.214    21460720.963
       239.000         205.000
  -3869193.89349  -3003837.74547  20193815.388    20193815.234    20193825.216
       237.000         208.000
   1064618.39749    829990.50047  21540984.560    21540984.256    21540998.272
       231.000         190.000
  -9032476.26149  -7015058.99446  22327875.730    22327876.506    22327892.064
       228.000         182.000
 -10217086.11549  -7916831.64047  20683191.270    20683191.223    20683204.527
       240.000         206.000
  -2224410.09349  -1725821.05647  19761448.446    19761448.135    19761459.058
       239.000         208.000
  -5783373.37449  -4483444.69546  23017709.499    23017709.887    23017726.461
       228.000         171.000
 01 12 19 20 47 59.9980000  0  7G 2G28G27G26G 7G 8G11
   -703852.21949   -546599.70847  21459801.051    21459800.555    21459813.333
       239.000         205.000
  -3906917.97749  -3033233.13147  20186636.698    20186636.560    20186646.537
       237.000         208.000
   1091653.81049    851056.94047  21546129.295    21546129.008    21546143.084
       231.000         188.000
  -9122259.97249  -7085020.19946  22310790.431    22310791.152    22310806.652
       229.000         182.000
 -10326505.93749  -8002093.72347  20662369.242    20662369.210    20662382.513
       240.000         206.000
  -2234832.01449  -1733942.05847  19759465.197    19759464.902    19759475.850
       238.000         208.000
  -5842620.59549  -4529611.24346  23006435.079    23006435.417    23006451.990
       229.000         172.000
 01 12 19 20 48 29.9980000  0  7G 2G28G27G26G 7G 8G11
   -708532.87049   -550247.01047  21458910.333    21458909.875    21458922.669
       239.000         205.000
  -3944438.98849  -3062470.27947  20179496.636    20179496.527    20179506.553
       236.000         208.000
   1119025.92049    872385.72846  21551338.140    21551337.836    21551351.963
       230.000         187.000
  -9211533.13249  -7154583.57146  22293802.229    22293802.929    22293818.383
       228.000         182.000
 -10435534.02649  -8087050.56647  20641621.730    20641621.738    20641635.044
       240.000         206.000
  -2244836.43749  -1741737.73847  19757561.394    19757561.124    19757572.086
       238.000         208.000
  -5901400.10149  -4575413.34646  22995249.689    22995249.974    22995266.493
       229.000         173.000
 01 12 19 20 48 59.9980000  0  7G 2G28G27G26G 7G 8G11
   -713132.12949   -553830.89347  21458035.159    21458034.711    21458047.525
       239.000         205.000
  -3981765.55749  -3091555.91347  20172393.610    20172393.505    20172403.554
       237.000         209.000
   1146726.07149    893970.14646  21556609.363    21556609.064    21556623.256
       230.000         187.000
  -9300302.21649  -7223754.15646  22276909.916    22276910.618    22276926.066
       228.000         183.000
 -10544176.82849  -8171707.18547  20620947.590    20620947.588    20620960.881
       240.000         206.000
  -2254431.02649  -1749214.07047  19755735.630    19755735.349    19755746.308
       239.000         207.000
  -5959718.40949  -4620856.07846  22984151.967    22984152.277    22984168.792
       229.000         174.000
 01 12 19 20 49 29.9980000  0  7G 2G28G27G26G 7G 8G11
   -717655.07449   -557355.31747  21457174.525    21457174.067    21457186.901
       239.000         205.000
  -4018902.88649  -3120494.09147  20165326.624    20165326.517    20165336.568
       237.000         209.000
   1174748.81249    915805.92546  21561941.990    21561941.706    21561955.948
       230.000         186.000
  -9388570.50349  -7292534.51946  22260112.908    22260113.601    22260129.025
       228.000         183.000
 -10652438.10249  -8256066.51047  20600346.055    20600346.049    20600359.337
       240.000         207.000
  -2263620.67449  -1756374.86847  19753986.936    19753986.645    19753997.583
       239.000         208.000
  -6017579.16249  -4665942.27546  22973141.369    22973141.654    22973158.191
       229.000         173.000
 01 12 19 20 49 59.9980000  0  7G 2G28G27G26G 7G 8G11
   -722101.31549   -560819.97247  21456328.477    21456328.019    21456340.838
       239.000         204.000
  -4055851.36449  -3149285.11147  20158295.577    20158295.470    20158305.477
       237.000         208.000
   1203093.58749    937892.63646  21567335.953    21567335.629    21567349.935
       230.000         187.000
  -9476336.51249  -7360923.49646  22243411.520    22243412.190    22243427.580
       228.000         183.000
 -10760316.13849  -8340127.20547  20579817.487    20579817.459    20579830.743
       240.000         207.000
  -2272404.62749  -1763219.54847  19752315.436    19752315.143    19752326.076
       239.000         207.000
  -6074981.13649  -4710671.01546  22962218.131    22962218.381    22962234.932
       228.000         173.000
 01 12 19 20 50 29.9980000  0  7G 2G28G27G26G 7G 8G11
   -726464.21749   -564219.68747  21455498.307    21455497.823    21455510.642
       239.000         204.000
  -4092604.35749  -3177923.79947  20151301.756    20151301.615    20151311.590
       237.000         208.000
   1231766.34549    960234.92147  21572792.326    21572791.983    21572806.348
       229.000         188.000
  -9563591.93649  -7428914.60846  22226807.248    22226807.959    22226823.298
       229.000         184.000
 -10867803.04649  -8423883.13047  20559363.362    20559363.310    20559376.556
       241.000         207.000
  -2280776.04449  -1769742.77447  19750722.446    19750722.126    19750733.065
       239.000         207.000
  -6131915.44949  -4755035.33746  22951383.828    22951384.078    22951400.622
       228.000         173.000
 01 12 19 20 50 59.9980000  0  7G 2G28G27G26G 7G 8G11
   -730738.79249   -567550.58047  21454684.961    21454684.458    21454697.274
       239.000         204.000
  -4129157.81149  -3206407.00647  20144345.865    20144345.719    20144355.690
       237.000         208.000
   1260771.54649    982836.24446  21578311.951    21578311.589    21578326.014
       230.000         186.000
  -9650330.46249  -7496502.94346  22210301.413    22210302.100    22210317.367
       229.000         183.000
 -10974892.53549  -8507329.37947  20538984.879    20538984.789    20538997.984
       241.000         207.000
  -2288729.64049  -1775940.43047  19749208.970    19749208.632    19749219.569
       238.000         207.000
  -6188376.34849  -4799030.77246  22940639.615    22940639.861    22940656.384
       230.000         174.000
 01 12 19 20 51 29.9980000  0  7G 2G28G27G26G 7G 8G11
   -734930.33049   -570816.75647  21453887.396    21453886.890    21453899.696
       239.000         203.000
  -4165517.59149  -3234739.30247  20137426.798    20137426.664    20137436.640
       236.000         208.000
   1290103.13249   1005691.88646  21583893.703    21583893.320    21583907.775
       230.000         187.000
  -9736555.93149  -7563691.49546  22193893.176    22193893.858    22193909.070
       229.000         184.000
 -11081588.66249  -8590469.11347  20518681.204    20518681.111    20518694.273
       241.000         207.000
  -2296270.51049  -1781816.47847  19747774.028    19747773.677    19747784.613
       238.000         207.000
  -6244368.07649  -4842660.63246  22929984.741    22929984.942    22930001.371
       231.000         173.000
 01 12 19 20 51 59.9980000  0  7G 2G28G27G26G 7G 8G11
   -739034.11449   -574014.56047  21453106.503    21453105.986    21453118.824
       238.000         204.000
  -4201679.09049  -3262917.09047  20130545.451    20130545.326    20130555.327
       237.000         208.000
   1319765.40149   1028805.21346  21589538.362    21589537.967    21589552.445
       227.000         185.000
  -9822262.23549  -7630475.51046  22177583.737    22177584.406    22177599.562
       230.000         184.000
 -11187885.41749  -8673297.65047  20498453.545    20498453.438    20498466.561
       241.000         208.000
  -2303393.62449  -1787367.00447  19746418.553    19746418.203    19746429.161
       239.000         207.000
  -6299884.50749  -4885920.12446  22919420.312    22919420.504    22919436.800
       231.000         173.000
 01 12 19 20 52 29.9980000  0  7G 2G28G27G26G 7G 8G11
   -743065.41849   -577155.88747  21452339.402    21452338.897    21452351.757
       238.000         203.000
  -4237658.58949  -3290953.05647  20123698.785    20123698.658    20123708.617
       237.000         208.000
   1349742.27149   1052163.67546  21595242.874    21595242.482    21595257.011
       228.000         185.000
  -9907463.26349  -7696865.79846  22161370.475    22161371.120    22161386.200
       230.000         184.000
 -11293796.78349  -8755825.88247  20478299.215    20478299.099    20478312.184
       242.000         207.000
  -2310114.17049  -1792603.84347  19745139.730    19745139.358    19745150.345
       240.000         207.000
  -6354940.24049  -4928820.62046  22908943.502    22908943.698    22908959.950
       229.000         173.000
 01 12 19 20 52 59.9970000  0  7G 2G28G27G26G 7G 8G11
   -747025.44549   -580241.68347  21451585.866    21451585.368    21451598.239
       238.000         203.000
  -4273456.04349  -3318847.16547  20116886.776    20116886.642    20116896.566
       237.000         208.000
   1380030.67849   1075764.90646  21601006.708    21601006.271    21601020.837
       228.000         185.000
  -9992156.18049  -7762860.16646  22145253.906    22145254.542    22145269.511
       231.000         184.000
 -11399319.49149  -8838051.26547  20458218.823    20458218.719    20458231.762
       241.000         207.000
  -2316432.98249  -1797527.64447  19743937.375    19743936.982    19743947.960
       240.000         207.000
  -6409532.89849  -4971360.25546  22898554.798    22898555.003    22898571.236
       230.000         173.000
 01 12 19 20 53 29.9970000  0  7G 2G28G27G26G 7G 8G11
   -750910.20049   -583268.81747  21450846.631    21450846.151    21450859.046
       239.000         202.000
  -4309070.06849  -3346598.34847  20110109.702    20110109.525    20110119.467
       238.000         208.000
   1410636.02949   1099613.10146  21606830.815    21606830.369    21606844.938
       228.000         185.000
 -10076341.31749  -7828458.84646  22129233.945    22129234.582    22129249.463
       230.000         184.000
 -11504455.41449  -8919975.24847  20438212.011    20438211.918    20438224.929
       240.000         207.000
  -2322346.50149  -1802135.63147  19742812.147    19742811.716    19742822.705
       240.000         207.000
  -6463660.47649  -5013537.49146  22888254.586    22888254.820    22888270.946
       230.000         173.000
 01 12 19 20 53 59.9970000  0  7G 2G28G27G26G 7G 8G11
   -754693.07549   -586216.56847  21450126.851    21450126.347    21450139.247
       239.000         202.000
  -4344473.79449  -3374185.66447  20103372.625    20103372.438    20103382.374
       237.000         209.000
   1441582.94849   1123727.44546  21612719.884    21612719.472    21612734.087
       228.000         184.000
 -10159988.03249  -7893637.98646  22113316.414    22113317.050    22113331.904
       230.000         183.000
 -11609173.20149  -9001573.40747  20418284.748    20418284.683    20418297.673
       241.000         208.000
  -2327827.58149  -1806406.65947  19741769.197    19741768.759    19741779.736
       239.000         208.000
  -6517294.10749  -5055329.84346  22878048.385    22878048.607    22878064.633
       231.000         173.000
 01 12 19 20 54 29.9970000  0  7G 2G28G27G26G 7G 8G11
   -758380.54049   -589089.97347  21449425.206    21449424.690    21449437.592
       238.000         202.000
  -4379673.84249  -3401614.26747  20096674.257    20096674.088    20096684.007
       237.000         208.000
   1472864.28649   1148102.36246  21618672.653    21618672.225    21618686.831
       228.000         184.000
 -10243101.38149  -7958401.51246  22097500.290    22097501.000    22097515.882
       229.000         184.000
 -11713477.97249  -9082849.73947  20398436.173    20398436.073    20398449.010
       242.000         208.000
  -2332882.47649  -1810345.58847  19740807.360    19740806.897    19740817.870
       239.000         208.000
  -6570438.99349  -5096741.34146  22867935.154    22867935.379    22867951.362
       231.000         176.000
 01 12 19 20 54 59.9970000  0  7G 2G28G27G26G 7G 8G11
   -761985.71749   -591899.26647  21448739.208    21448738.676    21448751.605
       238.000         203.000
  -4414683.94749  -3428894.85847  20090012.028    20090011.858    20090021.793
       237.000         208.000
   1504466.36749   1172727.20746  21624686.385    21624685.979    21624700.628
       227.000         184.000
 -10325693.26749  -8022758.71246  22081783.483    22081784.181    22081799.082
       230.000         184.000
 -11817381.86749  -9163813.69947  20378663.839    20378663.738    20378676.626
       241.000         208.000
  -2337524.24449  -1813962.59547  19739924.129    19739923.649    19739934.606
       239.000         207.000
  -6623107.12949  -5137781.35046  22857912.585    22857912.871    22857928.913
       231.000         176.000
 01 12 19 20 55 29.9970000  0  7G 2G28G27G26G 7G 8G11
   -765503.52349   -594640.46547  21448069.884    21448069.329    21448082.227
       239.000         203.000
  -4449499.55749  -3456023.89447  20083386.750    20083386.625    20083396.579
       238.000         207.000
   1536393.35049   1197605.22746  21630761.982    21630761.576    21630776.234
       227.000         184.000
 -10407757.47549  -8086704.72646  22066167.124    22066167.804    22066182.665
       231.000         185.000
 -11920878.68749  -9244460.45747  20358968.982    20358968.868    20358981.702
       242.000         208.000
  -2341747.95849  -1817253.83747  19739120.400    19739119.934    19739130.891
       238.000         207.000
  -6675292.28349  -5178445.00046  22847981.944    22847982.274    22847998.370
       232.000         178.000
 01 12 19 20 55 59.9970000  0  7G 2G28G27G26G 7G 8G11
   -768940.37349   -597318.58647  21447415.922    21447415.373    21447428.279
       238.000         202.000
  -4484127.53149  -3483006.71447  20076797.236    20076797.118    20076807.093
       239.000         208.000
   1568637.86549   1222730.66946  21636897.994    21636897.592    21636912.299
       225.000         183.000
 -10489299.37549  -8150243.76246  22050650.134    22050650.829    22050665.628
       230.000         184.000
 -12023973.94749  -9324794.31547  20339350.505    20339350.419    20339363.202
       242.000         209.000
  -2345559.77649  -1820224.12447  19738394.999    19738394.598    19738405.556
       239.000         207.000
  -6727000.25749  -5218736.81246  22838142.192    22838142.501    22838158.605
       231.000         176.000
 01 12 19 20 56 29.9970000  0  7G 2G28G27G26G 7G 8G11
   -772286.38749   -599925.92847  21446779.232    21446778.702    21446791.618
       238.000         203.000
  -4518558.56349  -3509836.07547  20070245.223    20070245.104    20070255.070
       239.000         208.000
   1601208.74349   1248110.41546  21643096.058    21643095.698    21643110.488
       226.000         184.000
 -10570307.95449  -8213367.21146  22035234.605    22035235.324    22035250.065
       230.000         185.000
 -12126656.76349  -9404806.78547  20319810.499    20319810.431    20319823.191
       241.000         209.000
  -2348950.03749  -1822865.91447  19737749.838    19737749.467    19737760.433
       239.000         207.000
  -6778220.11549  -5258648.29146  22828395.321    22828395.607    22828411.677
       232.000         177.000
 01 12 19 20 56 59.9970000  0  7G 2G28G27G26G 7G 8G11
   -775542.39849   -602463.13847  21446159.700    21446159.160    21446172.061
       238.000         201.000
  -4552793.75249  -3536512.83647  20063730.465    20063730.372    20063740.351
       239.000         209.000
   1634104.54349   1273743.34046  21649356.055    21649355.680    21649370.496
       228.000         184.000
 -10650782.74949  -8276074.73446  22019920.680    22019921.394    22019936.092
       231.000         185.000
 -12228926.74949  -9484497.57247  20300349.010    20300348.996    20300361.736
       241.000         209.000
  -2351919.25749  -1825179.62647  19737184.842    19737184.472    19737195.425
       239.000         207.000
  -6828951.45249  -5298179.11346  22818741.393    22818741.690    22818757.714
       230.000         175.000
 01 12 19 20 57 29.9970000  0  7G 2G28G27G26G 7G 8G11
   -778716.03849   -604936.15747  21445555.788    21445555.276    21445568.188
       238.000         201.000
  -4586841.06749  -3563043.20047  20057251.498    20057251.386    20057261.342
       239.000         209.000
   1667316.88449   1299622.94846  21655676.318    21655675.922    21655690.738
       227.000         185.000
 -10730730.25849  -8338371.38546  22004707.091    22004707.799    22004722.479
       231.000         185.000
 -12330790.44449  -9563871.77047  20280964.869    20280964.867    20280977.600
       241.000         209.000
  -2354475.08849  -1827171.20847  19736698.535    19736698.154    19736709.085
       239.000         207.000
  -6879201.01649  -5337334.51846  22809179.106    22809179.428    22809195.420
       230.000         174.000
 01 12 19 20 57 59.9970000  0  7G 2G28G27G26G 7G 8G11
   -781800.95649   -607340.05247  21444968.744    21444968.258    21444981.199
       238.000         201.000
  -4620694.79249  -3589422.71547  20050809.341    20050809.249    20050819.162
       239.000         209.000
   1700851.24549   1325753.44446  21662057.804    21662057.423    21662072.268
       226.000         184.000
 -10810143.01549  -8400251.34446  21989595.224    21989595.952    21989610.601
       231.000         185.000
 -12432240.43249  -9642923.60047  20261659.463    20261659.483    20261672.198
       241.000         209.000
  -2356611.31249  -1828835.83247  19736292.074    19736291.682    19736302.612
       239.000         207.000
  -6928961.33849  -5376108.73446  22799709.972    22799710.292    22799726.240
       230.000         174.000
 01 12 19 20 58 29.9970000  0  7G 2G28G27G26G 7G 8G11
   -784812.61249   -609686.86447  21444395.650    21444395.189    21444408.148
       238.000         201.000
  -4654370.74949  -3615663.71247  20044400.996    20044400.910    20044410.844
       239.000         209.000
   1734690.89749   1352121.84646  21668497.402    21668497.013    21668511.908
       226.000         183.000
 -10889035.83649  -8461726.15946  21974582.322    21974583.056    21974597.674
       231.000         186.000
 -12533291.55449  -9721664.62447  20242430.010    20242430.002    20242442.703
       241.000         210.000
  -2358343.41649  -1830185.55547  19735962.474    19735962.097    19735973.058
       239.000         207.000
  -6978247.15149  -5414513.22846  22790331.198    22790331.474    22790347.331
       230.000         175.000
 01 12 19 20 58 59.9970000  0  7G 2G28G27G26G 7G 8G11
   -787733.49949   -611962.94247  21443839.873    21443839.410    21443852.364
       238.000         201.000
  -4687852.17849  -3641753.13347  20038029.679    20038029.594    20038039.536
       240.000         209.000
   1768852.59849   1378741.18946  21674998.191    21674997.857    21675012.826
       224.000         183.000
 -10967390.00549  -8522781.24646  21959671.903    21959672.649    21959687.238
       231.000         186.000
 -12633925.29049  -9800080.41447  20223279.971    20223279.956    20223292.645
       241.000         210.000
  -2359653.99249  -1831206.81447  19735713.089    19735712.710    19735723.731
       239.000         207.000
  -7027040.24449  -5452533.79246  22781046.153    22781046.417    22781062.219
       228.000         174.000
 01 12 19 20 59 29.9970000  0  7G 2G28G27G26G 7G 8G11
   -790562.60449   -614167.50647  21443301.522    21443301.074    21443314.084
       238.000         201.000
  -4721138.45449  -3667690.47947  20031695.508    20031695.431    20031705.349
       240.000         209.000
   1803336.52549   1405611.62546  21681560.389    21681560.028    21681575.064
       224.000         182.000
 -11045203.57249  -8583415.08146  21944864.325    21944865.138    21944879.695
       232.000         186.000
 -12734139.67449  -9878169.43847  20204209.730    20204209.707    20204222.373
       241.000         210.000
  -2360542.13949  -1831898.91247  19735544.041    19735543.710    19735554.782
       239.000         207.000
  -7075338.86449  -5490169.06046  22771855.143    22771855.414    22771871.200
       227.000         173.000
 01 12 19 20 59 59.9970000  0  7G 2G28G27G26G 7G 8G11
   -793300.96249   -616301.36647  21442780.465    21442780.029    21442793.055
       238.000         201.000
  -4754230.97349  -3693476.85147  20025398.212    20025398.136    20025408.047
       239.000         209.000
   1838140.56749   1432731.50946  21688183.506    21688183.114    21688198.198
       224.000         181.000
 -11122476.50049  -8643627.64346  21930159.654    21930160.478    21930175.039
       231.000         187.000
 -12833934.72449  -9955931.70947  20185219.277    20185219.262    20185231.907
       242.000         210.000
  -2361008.85049  -1832262.61247  19735455.304    19735454.945    19735466.031
       239.000         207.000
  -7123142.96349  -5527419.00446  22762758.324    22762758.579    22762774.240
       227.000         173.000
 01 12 19 21  0 29.9970000  0  7G 2G28G27G26G 7G 8G11
   -795950.85749   -618366.29247  21442276.302    21442275.837    21442288.860
       238.000         200.000
  -4787132.29049  -3719114.23647  20019137.265    20019137.194    20019147.123
       240.000         209.000
   1873261.55349   1460098.35146  21694866.902    21694866.506    21694881.676
       222.000         181.000
 -11199210.05849  -8703419.91346  21915557.641    21915558.463    21915573.014
       231.000         187.000
 -12933311.67149 -10033368.18747  20166308.368    20166308.364    20166320.998
       241.000         210.000
  -2361056.44349  -1832299.74047  19735446.245    19735445.884    19735457.022
       238.000         207.000
  -7170453.74149  -5564284.55846  22753755.345    22753755.585    22753771.172
       226.000         174.000
 01 12 19 21  0 59.9970000  0  7G 2G28G27G26G 7G 8G11
   -798516.99049   -620365.95747  21441788.013    21441787.558    21441800.619
       238.000         200.000
  -4819847.84949  -3744606.87647  20012911.692    20012911.632    20012921.559
       240.000         209.000
   1908693.51649   1487707.50946  21701609.422    21701609.065    21701624.319
       223.000         181.000
 -11275408.29049  -8762795.05147  21901057.574    21901058.337    21901072.885
       232.000         188.000
 -13032274.67249 -10110482.10247  20147476.251    20147476.249    20147488.851
       241.000         210.000
  -2360689.85749  -1832014.13147  19735515.960    19735515.664    19735526.823
       239.000         207.000
  -7217275.60149  -5600769.11746  22744845.393    22744845.641    22744861.252
       227.000         173.000
 01 12 19 21  1 29.9970000  0  7G 2G28G27G26G 7G 8G11
   -801002.79849   -622303.03447  21441315.095    21441314.594    21441327.665
       238.000         200.000
  -4852381.46049  -3769957.73747  20006720.747    20006720.679    20006730.604
       240.000         210.000
   1944432.20049   1515555.66546  21708410.391    21708410.016    21708425.348
       222.000         181.000
 -11351073.49349  -8821754.83347  21886658.962    21886659.673    21886674.184
       232.000         188.000
 -13130826.11649 -10187275.32547  20128722.461    20128722.448    20128735.010
       241.000         210.000
  -2359912.64549  -1831408.54847  19735663.901    19735663.583    19735674.762
       239.000         206.000
  -7263611.04849  -5636874.65946  22736028.044    22736028.260    22736043.851
       226.000         173.000
 01 12 19 21  1 59.9970000  0  7G 2G28G27G26G 7G 8G11
   -803400.22149   -624171.23047  21440858.964    21440858.447    21440871.502
       238.000         199.000
  -4884725.67649  -3795161.02247  20000565.870    20000565.783    20000575.723
       240.000         210.000
   1980484.48949   1543648.19046  21715271.097    21715270.676    21715286.052
       223.000         182.000
 -11426197.07949  -8880292.58247  21872363.369    21872364.059    21872378.513
       232.000         188.000
 -13228957.33549 -10263741.09747  20110048.693    20110048.640    20110061.139
       242.000         210.000
  -2358717.17549  -1830477.05147  19735891.407    19735891.094    19735902.267
       239.000         206.000
  -7309451.46349  -5672594.45946  22727304.917    22727305.095    22727320.645
       226.000         171.000
 01 12 19 21  2 29.9970000  0  7G 2G28G27G26G 7G 8G11
   -805724.34249   -625982.32147  21440416.736    21440416.224    21440429.305
       237.000         200.000
  -4916896.16049  -3820228.93047  19994444.026    19994443.924    19994453.855
       240.000         210.000
   2016834.07949   1571972.38346  21722188.364    21722187.916    21722203.271
       223.000         181.000
 -11500793.48949  -8938419.54047  21858168.046    21858168.741    21858183.158
       231.000         188.000
 -13326682.70949 -10339890.63047  20091452.141    20091452.056    20091464.512
       242.000         210.000
  -2357118.67249  -1829231.50247  19736195.634    19736195.310    19736206.469
       239.000         206.000
  -7354811.40549  -5707939.86546  22718673.180    22718673.345    22718688.878
       226.000         172.000
 01 12 19 21  2 59.9970000  0  7G 2G28G27G26G 7G 8G11
   -807969.43949   -627731.83447  21439989.595    21439989.066    21440002.148
       238.000         200.000
  -4948887.60749  -3845157.32847  19988356.298    19988356.176    19988366.083
       241.000         210.000
   2053485.86449   1600532.04846  21729163.100    21729162.647    21729178.059
       225.000         182.000
 -11574855.86449  -8996130.37346  21844074.328    21844075.031    21844089.420
       231.000         187.000
 -13423995.56549 -10415718.71447  20072934.071    20072933.965    20072946.368
       243.000         210.000
  -2355111.64849  -1827667.63447  19736577.614    19736577.264    19736588.430
       239.000         206.000
  -7399684.18149  -5742905.66946  22710134.119    22710134.302    22710149.856
       225.000         173.000
 01 12 19 21  3 29.9970000  0  7G 2G28G27G26G 7G 8G11
   -810138.97349   -629422.46047  21439576.820    21439576.271    21439589.321
       237.000         199.000
  -4980703.77449  -3869949.14747  19982301.918    19982301.783    19982311.649
       240.000         210.000
   2090435.45849   1629323.76346  21736194.468    21736194.037    21736209.476
       224.000         180.000
 -11648386.79949  -9053427.08847  21830081.760    21830082.468    21830096.815
       231.000         188.000
 -13520898.45249 -10491227.35147  20054494.010    20054493.893    20054506.234
       243.000         210.000
  -2352699.41849  -1825788.01147  19737036.702    19737036.340    19737047.502
       239.000         206.000
  -7444072.50049  -5777493.96746  22701687.323    22701687.474    22701703.025
       226.000         174.000
 01 12 19 21  3 59.9970000  0  7G 2G28G27G26G 7G 8G11
   -812242.73049   -631061.83247  21439176.553    21439175.993    21439189.045
       237.000         198.000
  -5012354.93549  -3894612.39147  19976278.948    19976278.791    19976288.625
       241.000         210.000
   2127671.65349   1658338.81246  21743280.462    21743279.986    21743295.457
       224.000         180.000
 -11721395.68249  -9110317.00447  21816188.502    21816189.253    21816203.563
       232.000         188.000
 -13617400.70049 -10566423.80247  20036130.166    20036130.053    20036142.353
       243.000         210.000
  -2349892.32149  -1823600.70147  19737570.953    19737570.556    19737581.718
       239.000         206.000
  -7487985.81949  -5811712.11846  22693330.943    22693331.038    22693346.570
       227.000         174.000
 01 12 19 21  4 29.9970000  0  7G 2G28G27G26G 7G 8G11
   -814262.44549   -632635.71947  21438792.284    21438791.714    21438804.769
       237.000         199.000
  -5043823.38349  -3919133.26047  19970290.746    19970290.553    19970300.348
       241.000         210.000
   2165211.68249   1687590.61246  21750424.271    21750423.750    21750439.237
       222.000         179.000
 -11793863.28949  -9166785.15747  21802398.346    21802399.064    21802413.358
       233.000         188.000
 -13713483.13449 -10641293.12547  20017846.192    20017846.080    20017858.367
       243.000         210.000
  -2346672.26849  -1821091.60747  19738183.785    19738183.345    19738194.501
       239.000         206.000
  -7531405.27149  -5845545.42046  22685068.522    22685068.593    22685084.149
       226.000         174.000
 01 12 19 21  4 59.9970000  0  7G 2G28G27G26G 7G 8G11
   -816208.08949   -634151.88047  21438422.155    21438421.556    21438434.596
       237.000         199.000
  -5075119.52549  -3943519.85747  19964335.310    19964335.100    19964344.882
       241.000         210.000
   2203044.53749   1717070.58346  21757623.822    21757623.270    21757638.743
       223.000         179.000
 -11865799.03549  -9222838.87747  21788709.423    21788710.100    21788724.351
       233.000         189.000
 -13809155.12149 -10715842.61747  19999640.327    19999640.217    19999652.474
       243.000         210.000
  -2343049.53649  -1818268.73547  19738873.181    19738872.761    19738883.921
       239.000         206.000
  -7574339.96249  -5879000.98946  22676898.260    22676898.379    22676913.944
       225.000         174.000
 01 12 19 21  5 29.9970000  0  7G 2G28G27G26G 7G 8G11
   -818080.83449   -635611.24047  21438065.839    21438065.238    21438078.285
       236.000         198.000
  -5106245.05649  -3967773.51947  19958412.324    19958412.110    19958421.897
       241.000         210.000
   2241167.79949   1746776.83946  21764878.614    21764878.047    21764893.501
       222.000         178.000
 -11937203.44649  -9278478.58147  21775121.607    21775122.242    21775136.442
       234.000         188.000
 -13904417.10249 -10790072.63147  19981512.502    19981512.389    19981524.601
       243.000         210.000
  -2339025.76449  -1815133.37647  19739638.961    19739638.511    19739649.675
       240.000         206.000
  -7616790.90349  -5912079.60846  22668820.109    22668820.196    22668835.753
       226.000         175.000
 01 12 19 21  5 59.9970000  0  7G 2G28G27G26G 7G 8G11
   -819873.05049   -637007.84647  21437724.861    21437724.244    21437737.319
       236.000         198.000
  -5137192.94649  -3991888.74847  19952523.133    19952522.916    19952532.710
       240.000         210.000
   2279587.78549   1776714.31946  21772189.829    21772189.263    21772204.745
       224.000         178.000
 -12008068.28349  -9333697.83547  21761636.410    21761637.050    21761651.190
       234.000         189.000
 -13999260.88849 -10863976.78447  19963464.231    19963464.124    19963476.295
       243.000         210.000
  -2334593.57949  -1811679.75647  19740482.472    19740481.983    19740493.157
       239.000         207.000
  -7658750.12649  -5944775.08046  22660835.595    22660835.628    22660851.131
       226.000         173.000
 01 12 19 21  6 29.9970000  0  7G 2G28G27G26G 7G 8G11
   -821578.00349   -638336.44747  21437400.516    21437399.884    21437412.951
       238.000         199.000
  -5167956.57049  -4015860.39447  19946669.012    19946668.800    19946678.572
       241.000         209.000
   2318310.29649   1806887.52146  21779558.642    21779558.064    21779573.497
       225.000         178.000
 -12078386.12349  -9388490.86447  21748255.356    21748255.957    21748270.035
       234.000         190.000
 -14093679.00149 -10937549.24247  19945496.987    19945496.887    19945509.008
       243.000         210.000
  -2329746.39049  -1807902.76247  19741404.880    19741404.409    19741415.613
       239.000         206.000
  -7700210.18049  -5977081.57146  22652946.018    22652946.024    22652961.523
       225.000         174.000
 01 12 19 21  6 59.9970000  0  7G 2G28G27G26G 7G 8G11
   -823196.65949   -639597.80547  21437092.576    21437091.946    21437104.994
       236.000         198.000
  -5198537.48649  -4039689.67247  19940849.629    19940849.421    19940859.240
       241.000         209.000
   2357333.17849   1837294.80446  21786984.706    21786984.053    21786999.443
       223.000         179.000
 -12148157.41049  -9442858.00547  21734978.293    21734978.865    21734992.895
       234.000         190.000
 -14187671.80049 -11010790.28847  19927610.692    19927610.579    19927622.687
       243.000         210.000
  -2324485.49349  -1803803.39147  19742405.986    19742405.545    19742416.765
       239.000         206.000
  -7741171.65349  -6008999.55646  22645151.245    22645151.280    22645166.780
       226.000         174.000
 01 12 19 21  7 29.9970000  0  7G 2G28G27G26G 7G 8G11
   -824726.25249   -640789.76647  21436801.533    21436800.936    21436813.977
       236.000         197.000
  -5228933.65349  -4063374.98647  19935065.404    19935065.223    19935075.025
       241.000         210.000
   2396657.90649   1867937.27046  21794468.071    21794467.456    21794482.820
       223.000         178.000
 -12217378.94349  -9496796.77447  21721805.812    21721806.373    21721820.371
       234.000         189.000
 -14281236.09549 -11083697.43347  19909805.983    19909805.826    19909817.905
       243.000         210.000
  -2318808.78649  -1799380.01147  19743486.267    19743485.819    19743497.034
       240.000         206.000
  -7781631.32249  -6040526.51346  22637451.959    22637452.027    22637467.548
       226.000         174.000
 01 12 19 21  7 59.9970000  0  7G 2G28G27G26G 7G 8G11
   -826167.48649   -641912.86047  21436527.361    21436526.746    21436539.777
       237.000         198.000
  -5259146.27349  -4086917.26947  19929316.183    19929315.969    19929325.727
       242.000         210.000
   2436282.50649   1898813.41546  21802008.481    21802007.891    21802023.285
       222.000         178.000
 -12286050.89249  -9550307.29947  21708737.879    21708738.465    21708752.444
       233.000         190.000
 -14374371.94049 -11156270.72647  19892082.770    19892082.586    19892094.656
       243.000         210.000
  -2312717.30749  -1794633.44147  19744645.489    19744645.041    19744656.240
       239.000         206.000
  -7821589.42249  -6071662.62546  22629848.165    22629848.228    22629863.744
       227.000         175.000
 01 12 19 21  8 29.9970000  0  7G 2G28G27G26G 7G 8G11
   -827521.87549   -642968.28347  21436269.684    21436269.084    21436282.117
       236.000         197.000
  -5289177.09649  -4110317.89447  19923601.501    19923601.290    19923611.046
       241.000         210.000
   2476204.24549   1929921.09146  21809605.464    21809604.886    21809620.311
       222.000         178.000
 -12354174.07649  -9603390.21747  21695774.366    21695774.984    21695788.967
       233.000         190.000
 -14467080.20649 -11228510.84547  19874440.862    19874440.701    19874452.778
       242.000         210.000
  -2306213.02249  -1789565.19947  19745883.290    19745882.822    19745894.017
       240.000         206.000
  -7861047.17349  -6102408.85346  22622339.595    22622339.675    22622355.135
       226.000         174.000
 01 12 19 21  8 59.9970000  0  7G 2G28G27G26G 7G 8G11
   -828798.06249   -643962.78047  21436026.855    21436026.272    21436039.339
       236.000         197.000
  -5319035.33449  -4133584.03747  19917919.651    19917919.449    19917929.197
       241.000         209.000
   2516413.13149   1961252.52846  21817257.148    21817256.556    21817271.981
       224.000         179.000
 -12421757.06949  -9656052.21847  21682913.719    21682914.305    21682928.280
       233.000         190.000
 -14559369.13149 -11300424.20247  19856878.725    19856878.615    19856890.690
       242.000         210.000
  -2299305.01449  -1784182.36847  19747197.872    19747197.408    19747208.594
       239.000         206.000
  -7900013.05149  -6132771.79646  22614924.574    22614924.657    22614940.146
       227.000         176.000
 01 12 19 21  9 29.9970000  0  7G 2G28G27G26G 7G 8G11
   -830002.14549   -644901.08747  21435797.822    21435797.214    21435810.311
       236.000         198.000
  -5348727.40349  -4156720.69747  19912269.455    19912269.239    19912278.966
       242.000         209.000
   2556902.08049   1992802.17846  21824962.147    21824961.527    21824976.933
       223.000         177.000
 -12488805.12249  -9708297.38147  21670154.853    21670155.424    21670169.396
       234.000         190.000
 -14651244.16149 -11372015.05147  19839395.411    19839395.296    19839407.348
       242.000         210.000
  -2291999.52349  -1778489.81747  19748588.109    19748587.637    19748598.806
       239.000         206.000
  -7938492.64549  -6162755.82546  22607602.089    22607602.214    22607617.659
       228.000         175.000
 01 12 19 21  9 59.9960000  0  7G 2G28G27G26G 7G 8G11
   -831120.54949   -645772.61947  21435585.082    21435584.463    21435597.556
       237.000         196.000
  -5378239.35149  -4179717.00447  19906653.548    19906653.324    19906662.971
       241.000         209.000
   2597681.92349   2024578.52546  21832722.474    21832721.816    21832737.245
       224.000         177.000
 -12555302.29249  -9760113.28247  21657500.821    21657501.363    21657515.310
       233.000         189.000
 -14742688.21049 -11443270.06947  19821994.131    19821993.999    19822005.999
       242.000         210.000
  -2284283.96149  -1772477.72347  19750056.364    19750055.904    19750067.045
       239.000         206.000
  -7976471.01149  -6192349.28746  22600374.995    22600375.114    22600390.521
       228.000         176.000
 01 12 19 21 10 29.9960000  0  7G 2G28G27G26G 7G 8G11
   -832167.25849   -646588.28347  21435385.986    21435385.337    21435398.425
       236.000         196.000
  -5407587.75849  -4202585.87847  19901068.733    19901068.492    19901078.117
       241.000         209.000
   2638739.79149   2056571.50146  21840535.655    21840534.984    21840550.451
       225.000         178.000
 -12621266.71649  -9811514.06247  21644948.115    21644948.675    21644962.587
       234.000         189.000
 -14833721.26649 -11514204.83247  19804671.081    19804670.932    19804682.876
       242.000         210.000
  -2276172.48449  -1766157.12647  19751599.959    19751599.502    19751610.633
       239.000         206.000
  -8013964.62249  -6221565.01546  22593240.198    22593240.295    22593255.709
       229.000         176.000
 01 12 19 21 10 59.9960000  0  7G 2G28G27G26G 7G 8G11
   -833130.92049   -647339.23447  21435202.695    21435202.029    21435215.112
       237.000         197.000
  -5436760.76349  -4225318.07747  19895517.292    19895517.062    19895526.647
       241.000         209.000
   2680084.42749   2088787.92546  21848403.463    21848402.777    21848418.235
       225.000         178.000
 -12686684.55949  -9862488.92947  21632499.426    21632500.007    21632513.870
       233.000         189.000
 -14924328.19949 -11584807.55447  19787429.120    19787428.952    19787440.866
       241.000         210.000
  -2267654.33849  -1759519.65347  19753220.928    19753220.478    19753231.636
       239.000         206.000
  -8050960.26349  -6250392.72246  22586200.173    22586200.238    22586215.630
       229.000         176.000
 01 12 19 21 11 29.9960000  0  7G 2G28G27G26G 7G 8G11
   -834007.01349   -648021.94147  21435035.998    21435035.357    21435048.468
       236.000         197.000
  -5465754.35049  -4247910.47047  19889999.958    19889999.753    19890009.337
       241.000         209.000
   2721719.11349   2121230.36546  21856326.416    21856325.744    21856341.221
       222.000         176.000
 -12751550.88349  -9913034.05447  21620155.697    21620156.277    21620170.099
       233.000         189.000
 -15014504.17449 -11655074.46247  19770269.167    19770268.973    19770280.864
       240.000         210.000
  -2258725.48749  -1752562.15747  19754920.044    19754919.615    19754930.794
       239.000         206.000
  -8087453.45649  -6278828.91246  22579255.687    22579255.785    22579271.187
       227.000         175.000
 01 12 19 21 11 59.9960000  0  7G 2G28G27G26G 7G 8G11
   -834800.91049   -648640.60247  21434884.898    21434884.315    21434897.472
       236.000         196.000
  -5494574.43249  -4270367.66347  19884515.637    19884515.458    19884525.057
       240.000         209.000
   2763637.10949   2153893.55846  21864303.238    21864302.608    21864318.097
       222.000         176.000
 -12815870.86849  -9963153.45447  21607915.922    21607916.523    21607930.293
       234.000         190.000
 -15104254.23449 -11725009.48947  19753190.197    19753190.030    19753201.919
       241.000         210.000
  -2249392.07849  -1745289.41447  19756696.187    19756695.745    19756706.944
       239.000         206.000
  -8123449.53549  -6306877.77146  22572405.740    22572405.864    22572421.282
       228.000         174.000
 01 12 19 21 12 29.9960000  0  7G 2G28G27G26G 7G 8G11
   -835517.82849   -649199.28247  21434748.513    21434747.933    21434761.127
       236.000         196.000
  -5523226.65449  -4292694.06247  19879063.309    19879063.121    19879072.744
       241.000         210.000
   2805831.66649   2186772.25046  21872332.640    21872332.087    21872347.618
       222.000         175.000
 -12879649.40649 -10012850.95247  21595779.220    21595779.820    21595793.522
       234.000         191.000
 -15193583.11349 -11794616.31847  19736191.398    19736191.239    19736203.131
       241.000         210.000
  -2239659.87349  -1737705.92347  19758548.230    19758547.774    19758558.967
       240.000         206.000
  -8158953.18549  -6334542.91146  22565649.591    22565649.708    22565665.092
       228.000         173.000
 01 12 19 21 12 59.9960000  0  7G 2G28G27G26G 7G 8G11
   -836155.27449   -649696.04147  21434627.151    21434626.639    21434639.900
       235.000         195.000
  -5551708.83149  -4314887.95847  19873643.295    19873643.142    19873652.757
       241.000         209.000
   2848304.03649   2219867.42646  21880414.954    21880414.455    21880430.008
       223.000         175.000
 -12942883.66649 -10062124.34647  21583746.140    21583746.697    21583760.357
       235.000         191.000
 -15282487.79249 -11863892.61047  19719273.353    19719273.184    19719285.047
       240.000         210.000
  -2229526.77049  -1729810.05747  19760476.567    19760476.082    19760487.270
       240.000         206.000
  -8193961.94849  -6361822.45146  22558987.647    22558987.742    22559003.064
       228.000         174.000
 01 12 19 21 13 29.9960000  0  7G 2G28G27G26G 7G 8G11
   -836702.71449   -650122.65947  21434522.992    21434522.473    21434535.770
       235.000         195.000
  -5580010.85749  -4336941.48147  19868257.603    19868257.441    19868267.040
       241.000         209.000
   2891063.39049   2253186.20746  21888551.935    21888551.429    21888566.978
       221.000         175.000
 -13005562.85649 -10110965.21747  21571818.663    21571819.205    21571832.844
       235.000         191.000
 -15370957.44149 -11932829.91347  19702438.089    19702437.915    19702449.741
       240.000         209.000
  -2218982.64549  -1721593.91447  19762483.108    19762482.616    19762493.784
       240.000         206.000
  -8228465.09649  -6388708.00146  22552421.948    22552422.006    22552437.269
       229.000         175.000
 01 12 19 21 13 59.9960000  0  7G 2G28G27G26G 7G 8G11
   -837164.37949   -650482.43147  21434435.193    21434434.653    21434447.943
       236.000         195.000
  -5608137.59149  -4358858.41647  19862905.299    19862905.108    19862914.688
       241.000         210.000
   2934103.94049   2286724.12646  21896742.492    21896741.948    21896757.493
       223.000         175.000
 -13067691.16249 -10159376.83247  21559996.025    21559996.543    21560010.187
       235.000         192.000
 -15458996.12149 -12001431.39647  19685684.830    19685684.647    19685696.431
       240.000         209.000
  -2208032.70149  -1713061.54147  19764566.827    19764566.363    19764577.520
       239.000         206.000
  -8262467.10949  -6415203.07346  22545951.593    22545951.614    22545966.878
       228.000         174.000
 01 12 19 21 14 29.9960000  0  7G 2G28G27G26G 7G 8G11
   -837542.29549   -650776.94247  21434363.360    21434362.803    21434376.076
       236.000         195.000
  -5636091.53149  -4380640.71847  19857585.860    19857585.648    19857595.227
       241.000         209.000
   2977422.24849   2320478.46946  21904985.847    21904985.274    21905000.898
       222.000         175.000
 -13129270.46149 -10207360.64247  21548277.827    21548278.352    21548292.003
       235.000         191.000
 -15546605.53749 -12069698.39447  19669013.308    19669013.087    19669024.792
       241.000         210.000
  -2196679.44049  -1704214.89847  19766727.288    19766726.828    19766737.995
       239.000         206.000
  -8295969.86149  -6441309.13646  22539576.199    22539576.236    22539591.449
       227.000         172.000
 01 12 19 21 14 59.9960000  0  7G 2G28G27G26G 7G 8G11
   -837841.75649   -651010.33647  21434306.390    21434305.851    21434319.183
       235.000         196.000
  -5663878.49249  -4402292.90947  19852298.206    19852297.981    19852307.538
       242.000         209.000
   3021011.58849   2354444.01046  21913280.790    21913280.212    21913295.865
       222.000         174.000
 -13190306.09049 -10254920.82547  21536663.123    21536663.609    21536677.259
       236.000         191.000
 -15633790.66349 -12137634.77647  19652422.476    19652422.263    19652433.925
       241.000         210.000
  -2184928.83049  -1695058.63547  19768963.370    19768962.920    19768974.076
       239.000         205.000
  -8328978.66149  -6467030.32246  22533294.814    22533294.858    22533310.043
       228.000         173.000
 01 12 19 21 15 29.9960000  0  7G 2G28G27G26G 7G 8G11
   -838060.40349   -651180.76047  21434264.826    21434264.282    21434277.649
       236.000         195.000
  -5691496.50749  -4423813.45647  19847042.700    19847042.448    19847051.984
       242.000         210.000
   3064872.76149   2388621.35046  21921627.408    21921626.852    21921642.542
       221.000         172.000
 -13250795.39549 -10302055.29147  21525152.319    21525152.812    21525166.469
       236.000         191.000
 -15720549.03949 -12205238.62447  19635912.863    19635912.626    19635924.262
       241.000         210.000
  -2172779.31349  -1685591.52747  19771275.383    19771274.938    19771286.091
       239.000         205.000
  -8361491.00549  -6492364.67646  22527107.966    22527107.972    22527123.095
       225.000         171.000
 01 12 19 21 15 59.9960000  0  7G 2G28G27G26G 7G 8G11
   -838196.06549   -651286.51347  21434239.092    21434238.520    21434251.900
       237.000         195.000
  -5718943.88849  -4445201.04747  19841819.608    19841819.385    19841828.909
       241.000         209.000
   3109006.52949   2423011.10746  21930025.923    21930025.353    21930041.119
       220.000         172.000
 -13310736.34649 -10348762.47047  21513745.865    21513746.362    21513760.002
       235.000         191.000
 -15806878.05149 -12272507.91447  19619484.945    19619484.712    19619496.292
       240.000         210.000
  -2160229.48249  -1675812.48647  19773663.589    19773663.127    19773674.319
       239.000         206.000
  -8393504.92649  -6517310.66146  22521015.853    22521015.908    22521031.030
       224.000         170.000
 01 12 19 21 16 29.9960000  0  7G 2G28G27G26G 7G 8G11
   -838245.23549   -651324.86847  21434229.839    21434229.235    21434242.599
       236.000         194.000
  -5746217.68349  -4466453.37847  19836629.552    19836629.346    19836638.858
       241.000         209.000
   3153414.88349   2457614.81946  21938476.689    21938476.105    21938491.958
       220.000         172.000
 -13370125.25549 -10395039.49147  21502444.528    21502444.992    21502458.571
       236.000         191.000
 -15892774.12349 -12339439.84747  19603139.410    19603139.177    19603150.707
       240.000         209.000
  -2147276.44549  -1665719.25347  19776128.540    19776128.069    19776139.252
       239.000         205.000
  -8425017.04449  -6541865.62546  22515019.255    22515019.304    22515034.449
       224.000         172.000
 01 12 19 21 16 59.9960000  0  7G 2G28G27G26G 7G 8G11
   -838216.66449   -651302.64847  21434235.373    21434234.727    21434248.078
       235.000         194.000
  -5773326.99549  -4487577.54147  19831470.807    19831470.607    19831480.119
       241.000         209.000
   3198087.68849   2492424.58746  21946977.745    21946977.182    21946993.087
       220.000         172.000
 -13428970.90849 -10440893.18847  21491246.534    21491246.989    21491260.540
       235.000         191.000
 -15978245.81949 -12406041.09147  19586874.623    19586874.394    19586885.889
       240.000         209.000
  -2133929.71249  -1655319.25347  19778668.393    19778667.915    19778679.109
       239.000         205.000
  -8456036.12049  -6566036.41346  22509116.517    22509116.561    22509131.755
       225.000         173.000
 01 12 19 21 17 29.9960000  0  7G 2G28G27G26G 7G 8G11
   -838108.43549   -651218.35247  21434256.010    21434255.383    21434268.711
       236.000         194.000
  -5800270.43949  -4508572.45047  19826343.671    19826343.457    19826352.957
       242.000         209.000
   3243025.13149   2527440.57546  21955529.169    21955528.606    21955544.603
       219.000         171.000
 -13487271.46749 -10486322.14347  21480152.214    21480152.709    21480166.247
       235.000         191.000
 -16063291.05849 -12472310.03547  19570690.977    19570690.766    19570702.219
       240.000         209.000
  -2120188.10849  -1644611.55147  19781283.391    19781282.898    19781294.107
       239.000         205.000
  -8486560.40849  -6589821.64946  22503307.950    22503307.996    22503323.237
       226.000         173.000
 01 12 19 21 17 59.9960000  0  7G 2G28G27G26G 7G 8G11
   -837914.43749   -651067.24147  21434292.898    21434292.308    21434305.682
       234.000         193.000
  -5827042.25849  -4529433.63147  19821249.207    19821248.975    19821258.447
       242.000         209.000
   3288231.97649   2562666.47546  21964131.843    21964131.308    21964147.422
       219.000         172.000
 -13545020.90249 -10531321.65447  21469162.796    21469163.299    21469176.831
       235.000         191.000
 -16147903.34849 -12538241.62147  19554589.729    19554589.523    19554600.944
       240.000         209.000
  -2106046.11449  -1633591.86047  19783974.621    19783974.099    19783985.306
       240.000         206.000
  -8516583.66049  -6613216.47146  22497594.728    22497594.735    22497610.046
       223.000         171.000
 01 12 19 21 18 29.9960000  0  7G 2G28G27G26G 7G 8G11
   -837628.15149   -650844.21647  21434347.383    21434346.813    21434360.187
       235.000         193.000
  -5853636.65849  -4550156.56047  19816188.493    19816188.252    19816197.722
       243.000         209.000
   3333713.04549   2598106.05846  21972786.710    21972786.187    21972802.397
       218.000         170.000
 -13602212.75749 -10575886.67847  21458279.528    21458280.026    21458293.509
       236.000         191.000
 -16232076.33349 -12603830.88747  19538572.072    19538571.870    19538583.286
       241.000         209.000
  -2091498.29449  -1622255.93547  19786743.052    19786742.501    19786753.729
       240.000         206.000
  -8546099.88849  -6636216.21046  22491978.010    22491977.996    22491993.336
       225.000         171.000
 01 12 19 21 18 59.9960000  0  7G 2G28G27G26G 7G 8G11
   -837259.17249   -650556.74347  21434417.713    21434417.086    21434430.433
       235.000         195.000
  -5880063.65849  -4570749.04847  19811159.704    19811159.392    19811168.846
       242.000         209.000
   3379457.12449   2633750.58646  21981491.627    21981491.080    21981507.432
       219.000         171.000
 -13658856.88349 -10620024.90547  21447500.476    21447500.949    21447514.436
       236.000         191.000
 -16315819.40749 -12669085.16047  19522636.245    19522636.046    19522647.442
       240.000         210.000
  -2076555.02449  -1610611.86847  19789586.731    19789586.167    19789597.406
       241.000         206.000
  -8575118.71349  -6658828.36846  22486455.961    22486455.919    22486471.278
       224.000         172.000
 01 12 19 21 19 29.9960000  0  7G 2G28G27G26G 7G 8G11
   -836808.99749   -650206.01247  21434503.379    21434502.782    21434516.176
       235.000         195.000
  -5906325.18349  -4591212.58447  19806162.349    19806162.026    19806171.451
       242.000         210.000
   3425461.36449   2669597.83546  21990246.146    21990245.561    21990261.951
       219.000         170.000
 -13714954.68249 -10663737.42047  21436825.346    21436825.849    21436839.310
       235.000         191.000
 -16399133.91149 -12734005.47947  19506782.008    19506781.771    19506793.149
       240.000         210.000
  -2061218.42849  -1598661.30847  19792505.216    19792504.667    19792515.922
       240.000         206.000
  -8603641.74149  -6681054.16046  22481028.157    22481028.152    22481043.577
       225.000         172.000
 01 12 19 21 19 59.9960000  0  7G 2G28G27G26G 7G 8G11
   -836275.66849   -649790.48947  21434604.866    21434604.276    21434617.729
       235.000         194.000
  -5932419.63749  -4611545.93947  19801196.750    19801196.435    19801205.868
       242.000         210.000
   3471726.11549   2705648.07246  21999050.202    21999049.615    21999066.046
       221.000         170.000
 -13770504.37249 -10707022.84347  21426254.598    21426255.051    21426268.472
       236.000         191.000
 -16482017.97849 -12798590.39847  19491009.663    19491009.415    19491020.765
       240.000         209.000
  -2045487.33249  -1586403.34447  19795498.777    19795498.241    19795509.519
       241.000         206.000
  -8631667.47549  -6702892.45046  22475695.094    22475695.063    22475710.493
       226.000         172.000
 01 12 19 21 20 29.9960000  0  7G 2G28G27G26G 7G 8G11
   -835671.38349   -649319.67647  21434719.885    21434719.321    21434732.785
       235.000         194.000
  -5958359.67949  -4631758.97047  19796260.508    19796260.205    19796269.658
       242.000         209.000
   3518237.46949   2741890.47646  22007901.135    22007900.578    22007917.064
       219.000         167.000
 -13825518.57149 -10749890.99947  21415785.682    21415786.147    21415799.548
       236.000         191.000
 -16564483.69249 -12862849.32447  19475316.927    19475316.670    19475327.990
       240.000         209.000
  -2029375.12649  -1573848.41347  19798564.864    19798564.330    19798575.642
       240.000         206.000
  -8659208.38649  -6724352.94246  22470454.347    22470454.275    22470469.679
       226.000         171.000
 01 12 19 21 20 59.9960000  0  7G 2G28G27G26G 7G 8G11
   -834971.68849   -648774.51647  21434853.068    21434852.507    21434865.977
       235.000         193.000
  -5984121.38349  -4651833.03247  19791358.190    19791357.896    19791367.393
       241.000         209.000
   3565018.51149   2778343.00246  22016803.510    22016802.907    22016819.445
       219.000         168.000
 -13879972.89649 -10792322.88947  21405423.345    21405423.797    21405437.163
       236.000         191.000
 -16646506.34149 -12926763.00947  19459708.496    19459708.228    19459719.530
       240.000         209.000
  -2012857.94449  -1560977.91947  19801708.020    19801707.505    19801718.832
       240.000         205.000
  -8686240.39449  -6745416.89946  22465310.397    22465310.286    22465325.740
       226.000         169.000
 01 12 19 21 21 29.9960000  0  7G 2G28G27G26G 7G 8G11
   -834171.82249   -648151.30247  21435005.278    21435004.732    21435018.225
       234.000         191.000
  -6009700.53549  -4671764.84247  19786490.598    19786490.343    19786499.840
       241.000         209.000
   3612072.25049   2815008.02746  22025757.684    22025757.084    22025773.721
       220.000         171.000
 -13933862.92049 -10834315.06747  21395168.393    21395168.830    21395182.149
       236.000         192.000
 -16728081.51849 -12990328.01947  19444185.168    19444184.931    19444196.204
       240.000         209.000
  -1995931.98349  -1547788.89247  19804929.008    19804928.463    19804939.780
       240.000         205.000
  -8712758.81449  -6766080.66846  22460264.182    22460264.053    22460279.488
       226.000         170.000
 01 12 19 21 21 59.9960000  0  7G 2G28G27G26G 7G 8G11
   -833269.59649   -647448.32847  21435176.979    21435176.459    21435189.941
       233.000         189.000
  -6035095.43249  -4691553.07647  19781658.086    19781657.861    19781667.381
       241.000         210.000
   3659398.92949   2851885.76146  22034763.900    22034763.260    22034779.898
       221.000         170.000
 -13987186.88749 -10875866.15947  21385021.182    21385021.586    21385034.865
       237.000         192.000
 -16809206.94849 -13053542.57647  19428747.448    19428747.222    19428758.461
       240.000         209.000
  -1978596.31849  -1534280.62047  19808227.855    19808227.340    19808238.667
       240.000         204.000
  -8738762.10049  -6786343.00346  22455316.026    22455315.885    22455331.230
       227.000         171.000
 01 12 19 21 22 29.9960000  0  7G 2G28G27G26G 7G 8G11
   -832292.38949   -646686.93747  21435362.906    21435362.416    21435375.937
       233.000         191.000
  -6060333.94249  -4711219.44747  19776855.359    19776855.123    19776864.678
       241.000         209.000
   3706969.67749   2888953.64646  22043816.508    22043815.839    22043832.548
       220.000         167.000
 -14039972.41049 -10916997.68047  21374976.378    21374976.790    21374990.059
       236.000         193.000
 -16889910.10949 -13116428.09447  19413390.115    19413389.877    19413401.079
       240.000         209.000
  -1960879.02049  -1520474.97847  19811599.338    19811598.857    19811610.185
       239.000         204.000
  -8764278.01449  -6806225.56546  22450460.588    22450460.408    22450475.747
       227.000         170.000
 01 12 19 21 22 59.9960000  0  7G 2G28G27G26G 7G 8G11
   -831212.66849   -645845.67847  21435568.401    21435567.892    21435581.467
       233.000         191.000
  -6085388.67349  -4730742.61347  19772087.633    19772087.382    19772096.930
       241.000         210.000
   3754810.49549   2926231.95746  22052920.507    22052919.829    22052936.605
       219.000         169.000
 -14092192.08049 -10957688.28047  21365039.226    21365039.661    21365052.939
       236.000         192.000
 -16970163.28149 -13178962.97447  19398118.413    19398118.165    19398129.341
       240.000         210.000
  -1942753.32649  -1506351.10947  19815048.560    19815048.094    19815059.435
       239.000         205.000
  -8789279.18949  -6825707.03446  22445703.091    22445702.885    22445718.222
       226.000         168.000
 01 12 19 21 23 29.9960000  0  7G 2G28G27G26G 7G 8G11
   -829987.98449   -644891.44847  21435801.564    21435801.008    21435814.547
       234.000         192.000
  -6110217.76049  -4750089.95147  19767362.843    19767362.585    19767372.111
       241.000         210.000
   3802962.08849   2963752.46646  22062083.613    22062082.927    22062099.746
       221.000         171.000
 -14143803.95449 -10997905.27547  21355217.769    21355218.201    21355231.490
       236.000         193.000
 -17049924.22649 -13241114.30547  19382940.347    19382940.115    19382951.273
       239.000         209.000
  -1924177.92749  -1491876.82647  19818583.379    19818582.913    19818594.265
       240.000         204.000
  -8813723.75649  -6844754.80046  22441051.515    22441051.292    22441066.594
       224.000         168.000
 01 12 19 21 23 59.9960000  0  8G 4G 2G28G27G26G 7G 8G11
  -2345188.64059  -1794951.64955  23807621.921    23807623.075    23807653.171
       206.000         141.000
   -828683.19149   -643874.79447  21436049.956    21436049.384    21436062.870
       235.000         191.000
  -6134886.50149  -4769312.34747  19762668.545    19762668.294    19762677.790
       241.000         209.000
   3851357.87849   3001463.25146  22071293.189    22071292.479    22071309.354
       221.000         169.000
 -14194873.34149 -11037699.55347  21345499.544    21345500.010    21345513.271
       236.000         193.000
 -17129257.82449 -13302932.63547  19367843.626    19367843.381    19367854.521
       239.000         209.000
  -1905218.63649  -1477103.40247  19822191.213    19822190.766    19822202.125
       239.000         204.000
  -8837677.12649  -6863419.79946  22436493.343    22436493.139    22436508.485
       224.000         167.000
 01 12 19 21 24 29.9960000  0  8G 4G 2G28G27G26G 7G 8G11
  -2493589.19849  -1910587.82245  23779381.876    23779383.115    23779413.119
       209.000         145.000
   -827282.30849   -642783.25347  21436316.592    21436316.018    21436329.464
       234.000         191.000
  -6159379.38949  -4788397.70447  19758007.671    19758007.442    19758016.922
       241.000         209.000
   3900012.02949   3039375.31746  22080551.875    22080551.198    22080568.249
       219.000         165.000
 -14245384.52449 -11077058.86147  21335887.502    21335887.997    21335901.286
       236.000         192.000
 -17208148.23849 -13364405.62847  19352831.201    19352830.985    19352842.115
       239.000         210.000
  -1885860.38149  -1462019.09247  19825874.976    19825874.532    19825885.927
       239.000         204.000
  -8861123.50449  -6881689.74546  22432031.649    22432031.463    22432046.844
       224.000         168.000
 01 12 19 21 24 59.9960000  0  8G 4G 2G28G27G26G 7G 8G11
  -2642137.67349  -2026339.24745  23751113.638    23751114.931    23751144.887
       204.000         141.000
   -825790.17149   -641620.61847  21436600.586    21436600.009    21436613.442
       234.000         192.000
  -6183701.77349  -4807350.20547  19753379.224    19753379.041    19753388.517
       241.000         209.000
   3948918.12349   3077483.75746  22089858.574    22089857.896    22089874.968
       218.000         165.000
 -14295342.95849 -11115987.45647  21326380.668    21326381.166    21326394.451
       236.000         193.000
 -17286600.49349 -13425537.19847  19337902.187    19337901.977    19337913.095
       239.000         210.000
  -1866109.09249  -1446628.53447  19829633.475    19829633.083    19829644.506
       239.000         204.000
  -8884068.52149  -6899568.99346  22427665.321    22427665.160    22427680.619
       223.000         167.000
 01 12 19 21 25 29.9960000  0  8G 4G 2G28G27G26G 7G 8G11
  -2790834.48249  -2142206.14145  23722817.145    23722818.537    23722848.352
       202.000         142.000
   -824209.60349   -640389.08047  21436901.341    21436900.802    21436914.258
       234.000         191.000
  -6207856.92449  -4826172.39347  19748782.676    19748782.469    19748791.925
       241.000         210.000
   3998071.61849   3115784.98245  22099212.339    22099211.667    22099228.776
       217.000         162.000
 -14344751.85649 -11154487.84147  21316978.396    21316978.916    21316992.175
       236.000         192.000
 -17364617.37249 -13486329.51147  19323056.064    19323055.827    19323066.921
       239.000         209.000
  -1845968.62449  -1430934.72547  19833466.112    19833465.711    19833477.164
       240.000         204.000
  -8906515.37849  -6917060.05946  22423393.784    22423393.653    22423409.137
       224.000         166.000
 01 12 19 21 25 59.9960000  0  8G 4G 2G28G27G26G 7G 8G11
  -2939672.76149  -2258183.15345  23694493.614    23694495.088    23694524.895
       207.000         148.000
   -822536.06849   -639085.10347  21437219.858    21437219.323    21437232.791
       234.000         192.000
  -6231840.87449  -4844861.17147  19744218.673    19744218.480    19744227.959
       241.000         209.000
   4047475.19249   3154281.03345  22108613.652    22108613.023    22108630.276
       215.000         161.000
 -14393607.24049 -11192556.91347  21307681.432    21307681.978    21307695.250
       236.000         192.000
 -17442194.76249 -13546779.36347  19308293.531    19308293.290    19308304.385
       239.000         209.000
  -1825435.52849  -1414934.97847  19837373.470    19837373.074    19837384.543
       239.000         204.000
  -8928460.11749  -6934159.87246  22419217.863    22419217.737    22419233.171
       223.000         165.000
 01 12 19 21 26 29.9960000  0  8G 4G 2G28G27G26G 7G 8G11
  -3088661.55649  -2374277.47745  23666141.467    23666143.066    23666172.898
       208.000         150.000
   -820780.91049   -637717.51747  21437553.895    21437553.355    21437566.859
       232.000         190.000
  -6255664.99449  -4863425.40447  19739685.097    19739684.906    19739694.390
       241.000         210.000
   4097115.76249   3192961.80746  22118060.129    22118059.490    22118076.780
       216.000         163.000
 -14441920.96749 -11230203.91347  21298487.605    21298488.125    21298501.432
       237.000         193.000
 -17519343.96149 -13606895.55847  19293612.490    19293612.255    19293623.315
       238.000         210.000
  -1804521.97849  -1398638.77447  19841353.273    19841352.834    19841364.319
       239.000         203.000
  -8949914.80949  -6950877.82846  22415135.167    22415135.061    22415150.461
       221.000         163.000
 01 12 19 21 26 59.9950000  0  8G 4G 2G28G27G26G 7G 8G11
  -3237779.41049  -2490472.34745  23637764.644    23637766.368    23637796.206
       205.000         143.000
   -818929.94949   -636275.28247  21437906.182    21437905.637    21437919.148
       231.000         189.000
  -6279315.18849  -4881854.10847  19735184.644    19735184.429    19735193.915
       241.000         209.000
   4147004.16949   3231835.66645  22127553.695    22127553.056    22127570.425
       219.000         158.000
 -14489677.88449 -11267417.02847  21289399.768    21289400.267    21289413.539
       236.000         193.000
 -17596048.67449 -13666665.40047  19279016.029    19279015.786    19279026.836
       239.000         209.000
  -1783216.03749  -1382036.80747  19845407.682    19845407.251    19845418.734
       239.000         202.000
  -8970864.96149  -6967202.64546  22411148.430    22411148.374    22411163.733
       220.000         163.000
 01 12 19 21 27 29.9950000  0  8G 4G 2G28G27G26G 7G 8G11
  -3387035.09549  -2606774.64245  23609361.638    23609363.441    23609393.218
       204.000         142.000
   -816984.34249   -634759.31047  21438276.450    21438275.920    21438289.445
       232.000         189.000
  -6302794.73849  -4900149.84347  19730716.623    19730716.429    19730725.917
       241.000         210.000
   4197140.62749   3270902.76245  22137094.468    22137093.863    22137111.370
       216.000         161.000
 -14536882.91049 -11304200.10747  21280416.938    21280417.395    21280430.650
       235.000         192.000
 -17672315.29149 -13726093.86547  19264502.894    19264502.680    19264513.712
       238.000         209.000
  -1761518.16749  -1365129.44547  19849536.687    19849536.250    19849547.735
       239.000         203.000
  -8991313.88149  -6983136.87646  22407257.116    22407257.080    22407272.464
       221.000         164.000
 01 12 19 21 27 59.9950000  0  8G 4G 2G28G27G26G 7G 8G11
  -3536422.16249  -2723179.25345  23580933.565    23580935.526    23580965.134
       202.000         144.000
   -814944.91249   -633170.22647  21438664.647    21438664.079    21438677.632
       233.000         190.000
  -6326103.87649  -4918312.79047  19726281.075    19726280.862    19726290.331
       241.000         210.000
   4247520.85249   3310159.88446  22146681.482    22146680.973    22146698.605
       216.000         163.000
 -14583536.05449 -11340553.14147  21271539.078    21271539.544    21271552.785
       234.000         193.000
 -17748142.40149 -13785179.86147  19250073.413    19250073.203    19250084.238
       238.000         209.000
  -1739431.14949  -1347918.85447  19853739.761    19853739.318    19853750.824
       239.000         203.000
  -9011262.67849  -6998681.40546  22403460.993    22403460.949    22403476.346
       220.000         163.000
 01 12 19 21 28 29.9950000  0  8G 4G 2G28G27G26G 7G 8G11
  -3685959.69449  -2839701.07645  23552476.906    23552478.877    23552508.436
       208.000         147.000
   -812833.15849   -631524.79347  21439066.584    21439065.998    21439079.617
       233.000         190.000
  -6349264.57349  -4936360.06847  19721873.684    19721873.505    19721882.994
       241.000         209.000
   4298121.52449   3349588.76845  22156310.637    22156310.135    22156327.814
       214.000         157.000
 -14629659.44749 -11376493.38747  21262762.008    21262762.502    21262775.737
       234.000         192.000
 -17823551.96249 -13843940.49147  19235723.425    19235723.203    19235734.217
       238.000         209.000
  -1716977.80849  -1330422.82347  19858012.580    19858012.100    19858023.639
       239.000         204.000
  -9030733.12749  -7013853.15746  22399755.926    22399755.884    22399771.263
       222.000         163.000
 01 12 19 21 28 59.9950000  0  8G 4G 2G28G27G26G 7G 8G11
  -3835614.50149  -2956314.39445  23523997.918    23523999.948    23524029.391
       211.000         152.000
   -810618.31849   -629799.04147  21439488.132    21439487.520    21439501.184
       233.000         190.000
  -6372246.68249  -4954268.19447  19717500.296    19717500.119    19717509.643
       241.000         209.000
   4348971.54449   3389211.90745  22165987.313    22165986.736    22166004.572
       215.000         161.000
 -14675222.91749 -11411997.32747  21254091.488    21254092.011    21254105.234
       235.000         192.000
 -17898513.34149 -13902351.88947  19221458.675    19221458.466    19221469.485
       238.000         209.000
  -1694128.57049  -1312618.30547  19862360.686    19862360.204    19862371.785
       238.000         203.000
  -9049695.57049  -7028629.07446  22396147.579    22396147.494    22396162.815
       222.000         163.000
 01 12 19 21 29 29.9950000  0  8G 4G 2G28G27G26G 7G 8G11
  -3985414.76549  -3073041.03345  23495491.269    23495493.342    23495522.592
       206.000         148.000
   -808330.74649   -628016.60447  21439923.526    21439922.901    21439936.570
       233.000         189.000
  -6395080.98949  -4972061.14747  19713155.055    19713154.881    19713164.415
       241.000         209.000
   4400038.91649   3429004.46645  22175705.257    22175704.666    22175722.571
       217.000         162.000
 -14720257.55949 -11447089.18647  21245521.622    21245522.151    21245535.371
       235.000         193.000
 -17973057.18249 -13960437.93447  19207273.392    19207273.191    19207284.198
       238.000         209.000
  -1670914.81649  -1294529.74547  19866778.148    19866777.661    19866789.291
       238.000         202.000
  -9068180.91449  -7043033.21545  22392629.995    22392629.895    22392645.157
       221.000         162.000
 01 12 19 21 29 59.9950000  0  8G 4G 2G28G27G26G 7G 8G11
  -4135369.70449  -3189888.22745  23466955.148    23466957.302    23466986.385
       205.000         144.000
   -805982.30649   -626186.75847  21440370.481    21440369.870    21440383.549
       233.000         190.000
  -6417779.70949  -4989748.44947  19708835.653    19708835.460    19708844.974
       241.000         209.000
   4451309.81849   3468955.54745  22185461.916    22185461.297    22185479.341
       217.000         158.000
 -14764776.08249 -11481778.88847  21237050.000    21237050.500    21237063.730
       235.000         193.000
 -18047195.75849 -14018208.18747  19193165.247    19193165.041    19193176.021
       238.000         209.000
  -1647349.46649  -1276167.21147  19871262.528    19871262.052    19871273.696
       238.000         202.000
  -9086201.84549  -7057075.47145  22389200.679    22389200.616    22389215.965
       220.000         162.000
 01 12 19 21 30 29.9950000  0  8G 4G 2G28G27G26G 7G 8G11
  -4285445.68249  -3306829.77045  23438396.085    23438398.202    23438427.079
       208.000         148.000
   -803541.89449   -624285.24747  21440834.917    21440834.312    21440848.026
       232.000         190.000
  -6440312.14249  -5007306.18447  19704547.830    19704547.672    19704557.176
       240.000         209.000
   4502813.24749   3509087.89845  22195263.102    22195262.332    22195280.298
       213.000         158.000
 -14808748.03249 -11516042.69147  21228682.346    21228682.866    21228696.106
       235.000         193.000
 -18120898.26749 -14075638.64747  19179140.089    19179139.877    19179150.835
       238.000         209.000
  -1623402.81949  -1257507.57147  19875819.460    19875818.983    19875830.662
       238.000         202.000
  -9103727.90649  -7070732.08446  22385865.588    22385865.512    22385880.857
       220.000         163.000
 01 12 19 21 30 59.9950000  0  8G 4G 2G28G27G26G 7G 8G11
  -4435510.14949  -3423762.29345  23409839.197    23409841.368    23409870.029
       208.000         154.000
   -800879.44849   -622210.71647  21441341.601    21441341.010    21441354.775
       232.000         190.000
  -6462548.49949  -5024633.21047  19700316.347    19700316.205    19700325.724
       240.000         209.000
   4554677.80449   3549501.60445  22205132.688    22205131.993    22205149.958
       214.000         155.000
 -14852044.05249 -11549779.79647  21220443.371    21220443.877    21220457.080
       236.000         194.000
 -18194034.96249 -14132628.21047  19165222.571    19165222.369    19165233.333
       238.000         209.000
  -1598945.88149  -1238450.30147  19880473.496    19880473.015    19880484.750
       238.000         202.000
  -9120629.63049  -7083902.23346  22382649.322    22382649.253    22382664.564
       221.000         165.000
 01 12 19 21 31 29.9950000  0  8G 4G 2G28G27G26G 7G 8G11
  -4585495.77749  -3540633.39545  23381297.318    23381299.465    23381327.920
       206.000         150.000
   -797930.10249   -619912.63147  21441902.870    21441902.282    21441916.094
       232.000         189.000
  -6484424.52549  -5041679.46847  19696153.472    19696153.315    19696162.863
       241.000         209.000
   4606966.50849   3590245.81145  22215082.943    22215082.261    22215100.377
       213.000         158.000
 -14894599.97349 -11582940.18647  21212345.221    21212345.728    21212358.880
       236.000         193.000
 -18266541.12349 -14189126.45347  19151425.073    19151424.865    19151435.812
       238.000         209.000
  -1573914.79449  -1218945.63947  19885236.756    19885236.305    19885248.093
       238.000         202.000
  -9136843.16949  -7096536.11546  22379563.996    22379563.924    22379579.251
       220.000         164.000
 01 12 19 21 31 59.9950000  0  8G 4G 2G28G27G26G 7G 8G11
  -4735556.49649  -3657562.98345  23352740.990    23352743.227    23352771.627
       207.000         150.000
   -794849.83749   -617512.53347  21442489.073    21442488.495    21442502.335
       232.000         190.000
  -6506096.67549  -5058566.86447  19692029.401    19692029.246    19692038.786
       241.000         209.000
   4659521.17349   3631197.31345  22225083.987    22225083.288    22225101.389
       210.000         151.000
 -14936572.92949 -11615646.34247  21204357.955    21204358.504    21204371.616
       235.000         194.000
 -18338573.52749 -14245255.53847  19137717.728    19137717.515    19137728.458
       238.000         209.000
  -1548467.29249  -1199116.50347  19890079.283    19890078.838    19890090.662
       238.000         202.000
  -9152525.57049  -7108756.16545  22376579.835    22376579.686    22376594.990
       220.000         162.000
 01 12 19 21 32 29.9950000  0  8G 4G 2G28G27G26G 7G 8G11
  -4885680.80349  -3774542.19145  23324172.805    23324174.957    23324203.195
       207.000         149.000
   -791629.82249   -615003.53047  21443101.899    21443101.307    21443115.179
       232.000         189.000
  -6527556.60549  -5075288.90247  19687945.778    19687945.568    19687955.076
       241.000         209.000
   4712348.76249   3672361.40245  22235136.951    22235136.233    22235154.435
       213.000         157.000
 -14977954.97649 -11647892.04047  21196483.179    21196483.719    21196496.816
       236.000         194.000
 -18410123.74749 -14301008.89747  19124102.128    19124101.910    19124112.871
       238.000         209.000
  -1522595.61449  -1178956.83047  19895002.568    19895002.097    19895013.951
       238.000         202.000
  -9167668.88649  -7120556.16346  22373698.188    22373698.004    22373713.356
       220.000         163.000
 01 12 19 21 32 59.9950000  0  8G 4G 2G28G27G26G 7G 8G11
  -5035864.93949  -3891567.99445  23295593.059    23295595.310    23295623.362
       206.000         151.000
   -788268.84249   -612384.68247  21443741.549    21443740.944    21443754.836
       232.000         188.000
  -6548803.34749  -5091844.82447  19683902.709    19683902.463    19683911.957
       241.000         209.000
   4765448.89249   3713737.92045  22245241.836    22245241.028    22245259.186
       208.000         150.000
 -15018745.59449 -11679676.89447  21188720.991    21188721.512    21188734.544
       235.000         194.000
 -18481190.83449 -14356385.79747  19110578.505    19110578.249    19110589.214
       238.000         209.000
  -1496299.58849  -1158466.50047  19900006.565    19900006.097    19900017.995
       236.000         201.000
  -9182272.60949  -7131935.73846  22370919.191    22370919.025    22370934.357
       221.000         164.000
 01 12 19 21 33 29.9950000  0  8G 4G 2G28G27G26G 7G 8G11
  -5186111.17959  -4008642.17155  23267001.602    23267003.720    23267031.767
       207.000         150.000
   -784771.45849   -609659.53046  21444407.162    21444406.555    21444420.440
       232.000         186.000
  -6569841.79649  -5108238.44547  19679899.259    19679898.990    19679908.480
       242.000         209.000
   4818815.04149   3755321.65045  22255397.382    22255396.540    22255414.763
       207.000         150.000
 -15058950.24949 -11711005.16647  21181070.297    21181070.788    21181083.796
       237.000         193.000
 -18551779.80349 -14411390.13947  19097145.869    19097145.593    19097156.514
       239.000         209.000
  -1469585.39249  -1137650.32947  19905090.135    19905089.673    19905101.622
       237.000         200.000
  -9196342.11149  -7142899.03946  22368241.831    22368241.693    22368257.047
       222.000         165.000
 01 12 19 21 33 59.9950000  0  8G 4G 2G28G27G26G 7G 8G11
  -5336427.12749  -4125770.69145  23238396.853    23238399.018    23238426.751
       207.000         151.000
   -781147.76949   -606835.97247  21445096.808    21445096.184    21445110.103
       231.000         188.000
  -6590682.63449  -5124478.08047  19675933.387    19675933.123    19675942.605
       241.000         209.000
   4872435.07949   3797103.30445  22265601.102    22265600.279    22265618.422
       209.000         150.000
 -15098580.07149 -11741885.50847  21173529.005    21173529.471    21173542.452
       235.000         193.000
 -18621901.21849 -14466030.15547  19083802.201    19083801.904    19083812.776
       237.000         209.000
  -1442464.17049  -1116517.00247  19910251.182    19910250.713    19910262.682
       237.000         201.000
  -9209888.89649  -7153455.04846  22365663.969    22365663.817    22365679.179
       222.000         165.000
 01 12 19 21 34 29.9950000  0  8G 4G 2G28G27G26G 7G 8G11
  -5486798.61649  -4242942.50645  23209781.448    23209783.675    23209811.243
       208.000         152.000
   -777386.20749   -603904.98346  21445812.705    21445812.081    21445826.020
       231.000         187.000
  -6611314.69549  -5140555.03847  19672007.216    19672006.957    19672016.466
       241.000         209.000
   4926318.50949   3839090.13245  22275854.924    22275854.128    22275872.388
       204.000         151.000
 -15137624.43249 -11772309.65447  21166099.114    21166099.548    21166112.503
       236.000         193.000
 -18691544.16849 -14520297.34547  19070549.555    19070549.272    19070560.103
       237.000         208.000
  -1414925.88649  -1095058.69347  19915491.702    19915491.164    19915503.129
       238.000         201.000
  -9222901.97349  -7163595.20546  22363187.620    22363187.526    22363202.905
       220.000         164.000
 01 12 19 21 34 59.9950000  0  8G 4G 2G28G27G26G 7G 8G11
  -5637246.37149  -4360173.73645  23181151.544    23181153.820    23181181.250
       203.000         150.000
   -773510.08549   -600884.71747  21446550.438    21446549.772    21446563.753
       232.000         191.000
  -6631761.66949  -5156487.77547  19668116.295    19668116.022    19668125.549
       241.000         209.000
   4980440.23449   3881262.67645  22286154.176    22286153.349    22286171.619
       210.000         151.000
 -15176107.54649 -11802296.46247  21158775.970    21158776.428    21158789.364
       236.000         193.000
 -18760732.20649 -14574210.06047  19057383.466    19057383.185    19057393.994
       237.000         209.000
  -1386995.00749  -1073294.46547  19920806.893    19920806.309    19920818.305
       237.000         202.000
  -9235405.57249  -7173338.34946  22360808.216    22360808.136    22360823.591
       221.000         165.000
 01 12 19 21 35 29.9950000  0  8G 4G 2G28G27G26G 7G 8G11
  -5787779.33649  -4477471.31545  23152505.404    23152507.689    23152534.930
       210.000         151.000
   -769530.85349   -597784.11547  21447307.804    21447307.102    21447321.114
       232.000         191.000
  -6652035.26949  -5172285.41547  19664258.348    19664258.100    19664267.611
       242.000         209.000
   5034786.80049   3923610.36045  22296496.222    22296495.369    22296513.685
       209.000         155.000
 -15214041.90449 -11831855.67547  21151557.265    21151557.733    21151570.641
       235.000         193.000
 -18829477.39749 -14627777.70347  19044301.654    19044301.370    19044312.183
       238.000         208.000
  -1358684.28749  -1051234.25647  19926194.327    19926193.741    19926205.742
       237.000         201.000
  -9247412.15049  -7182694.18646  22358523.477    22358523.380    22358538.843
       221.000         165.000
 01 12 19 21 35 59.9950000  0  8G 4G 2G28G27G26G 7G 8G11
  -5938393.07349  -4594831.88645  23123844.008    23123846.320    23123873.311
       205.000         149.000
   -765446.32049   -594601.45147  21448085.197    21448084.476    21448098.500
       231.000         190.000
  -6672134.06249  -5187946.84347  19660433.707    19660433.441    19660442.939
       242.000         209.000
   5089358.19749   3966133.30345  22306881.121    22306880.230    22306898.432
       209.000         150.000
 -15251426.48649 -11860986.49247  21144443.176    21144443.652    21144456.551
       235.000         193.000
 -18897778.19449 -14680999.06647  19031304.446    19031304.149    19031314.943
       238.000         208.000
  -1329992.93449  -1028877.45547  19931654.200    19931653.604    19931665.602
       238.000         201.000
  -9258920.85649  -7191662.08646  22356333.504    22356333.388    22356348.841
       223.000         165.000
 01 12 19 21 36 29.9950000  0  8G 4G 2G28G27G26G 7G 8G11
  -6089083.29849  -4712252.09445  23095168.082    23095170.349    23095197.079
       206.000         150.000
   -761254.56349   -591335.23347  21448882.967    21448882.231    21448896.270
       231.000         188.000
  -6692056.43449  -5203470.80147  19656642.643    19656642.361    19656651.860
       242.000         209.000
   5144154.47049   4008831.41645  22317308.711    22317307.828    22317326.044
       210.000         155.000
 -15288260.56049 -11889688.34447  21137433.821    21137434.318    21137447.222
       235.000         193.000
 -18965633.30849 -14733873.15047  19018392.009    19018391.714    19018402.492
       237.000         209.000
  -1300920.78349  -1006223.92947  19937186.554    19937185.933    19937197.928
       238.000         200.000
  -9269930.68349  -7200241.21246  22354238.476    22354238.342    22354253.724
       223.000         165.000
 01 12 19 21 36 59.9950000  0  8G 4G 2G28G27G26G 7G 8G11
  -6239869.68849  -4829747.26645  23066473.774    23066476.028    23066502.651
       209.000         151.000
   -756977.72749   -588002.72846  21449696.848    21449696.154    21449710.222
       230.000         187.000
  -6711824.65849  -5218874.63747  19652880.888    19652880.605    19652890.106
       242.000         209.000
   5199151.53049   4051686.02345  22327774.662    22327773.752    22327791.825
       207.000         153.000
 -15324567.27349 -11917979.26547  21130524.823    21130525.342    21130538.219
       235.000         192.000
 -19033065.50849 -14786417.69147  19005560.066    19005559.768    19005570.519
       237.000         208.000
  -1271491.19849   -983291.89647  19942786.903    19942786.281    19942798.286
       238.000         201.000
  -9280464.96549  -7208449.77046  22352233.989    22352233.838    22352249.161
       222.000         164.000
 01 12 19 21 37 29.9950000  0  8G 4G 2G28G27G26G 7G 8G11
  -6390744.52649  -4947311.35645  23037762.616    23037764.917    23037791.373
       208.000         148.000
   -752610.64249   -584599.88646  21450527.925    21450527.246    21450541.349
       230.000         186.000
  -6731433.94449  -5234154.62847  19649149.363    19649149.104    19649158.610
       242.000         209.000
   5254352.51549   4094699.48645  22338279.269    22338278.347    22338296.499
       210.000         153.000
 -15360342.74049 -11945856.23547  21123716.955    21123717.466    21123730.319
       235.000         193.000
 -19100070.25449 -14838629.15647  18992809.451    18992809.162    18992819.892
       237.000         208.000
  -1241700.50649   -960078.47147  19948455.988    19948455.358    19948467.366
       237.000         200.000
  -9290519.66249  -7216284.59545  22350320.651    22350320.523    22350335.821
       221.000         162.000
 01 12 19 21 37 59.9950000  0  8G 4G 2G28G27G26G 7G 8G11
  -6541697.60749  -5064936.52645  23009036.645    23009038.898    23009065.219
       206.000         146.000
   -748145.54449   -581120.67246  21451377.655    21451376.972    21451391.104
       231.000         186.000
  -6750877.35449  -5249305.35747  19645449.368    19645449.140    19645458.664
       241.000         209.000
   5309762.98349   4137876.26445  22348823.590    22348822.774    22348841.006
       203.000         149.000
 -15395580.36749 -11973314.10447  21117011.437    21117011.945    21117024.768
       235.000         193.000
 -19166640.48149 -14890502.03247  18980141.552    18980141.244    18980151.947
       237.000         208.000
  -1211542.36849   -936578.73147  19954194.938    19954194.326    19954206.363
       237.000         200.000
  -9300088.10349  -7223740.53845  22348499.775    22348499.700    22348515.017
       219.000         159.000
 01 12 19 21 38 29.9950000  0  8G 4G 2G28G27G26G 7G 8G11
  -6692722.48049  -5182617.63045  22980297.059    22980299.278    22980325.365
       205.000         149.000
   -743578.88449   -577562.32146  21452246.738    21452246.052    21452260.179
       232.000         186.000
  -6770151.56249  -5264324.24647  19641781.628    19641781.401    19641790.930
       242.000         209.000
   5365384.72049   4181217.57245  22359408.173    22359407.366    22359425.758
       207.000         154.000
 -15430277.53749 -12000350.84347  21110408.828    21110409.275    21110422.061
       236.000         191.000
 -19232773.07349 -14942033.89847  18967556.918    18967556.609    18967567.294
       237.000         208.000
  -1181014.61149   -912790.98247  19960004.263    19960003.634    19960015.712
       237.000         200.000
  -9309167.81449  -7230815.64145  22346771.901    22346771.898    22346787.214
       219.000         160.000
 01 12 19 21 38 59.9950000  0  8G 4G 2G28G27G26G 7G 8G11
  -6843833.30949  -5300365.64745  22951541.139    22951543.343    22951569.228
       204.000         148.000
   -738927.03949   -573937.58146  21453132.033    21453131.361    21453145.483
       232.000         186.000
  -6789273.44649  -5279224.43547  19638142.926    19638142.658    19638152.170
       242.000         209.000
   5421199.34649   4224709.25645  22370029.455    22370028.684    22370047.176
       202.000         147.000
 -15464452.08549 -12026980.34147  21103905.662    21103906.066    21103918.799
       235.000         192.000
 -19298484.98249 -14993237.95447  18955052.329    18955052.016    18955062.703
       237.000         208.000
  -1150135.05849   -888729.09647  19965880.521    19965879.890    19965891.992
       237.000         200.000
  -9317776.41749  -7237523.64845  22345133.718    22345133.729    22345149.072
       220.000         161.000
 01 12 19 21 39 29.9950000  0  8G 4G 2G28G27G26G 7G 8G11
  -6995011.76949  -5418166.39545  22922772.289    22922774.485    22922800.151
       205.000         147.000
   -734174.45949   -570234.35246  21454036.530    21454035.837    21454049.966
       231.000         187.000
  -6808227.76749  -5293994.05347  19634536.077    19634535.786    19634545.299
       242.000         208.000
   5477220.31049   4268361.67945  22380690.120    22380689.288    22380707.903
       201.000         152.000
 -15498089.51849 -12053191.30647  21097504.701    21097505.076    21097517.738
       235.000         191.000
 -19363761.49049 -15044102.73947  18942630.586    18942630.287    18942640.958
       237.000         208.000
  -1118889.63249   -864382.12747  19971826.397    19971825.777    19971837.900
       238.000         200.000
  -9325899.73349  -7243853.53645  22343587.940    22343587.935    22343603.269
       221.000         161.000
 01 12 19 21 39 59.9950000  0  8G 4G 2G28G27G26G 7G 8G11
  -7146266.28349  -5536026.39645  22893989.082    22893991.219    22894016.701
       207.000         150.000
   -729331.90549   -566461.01646  21454958.117    21454957.424    21454971.569
       231.000         186.000
  -6827025.56249  -5308641.69947  19630959.041    19630958.734    19630968.195
       243.000         209.000
   5533434.70849   4312164.81245  22391387.545    22391386.735    22391405.427
       209.000         151.000
 -15531202.08449 -12078993.28747  21091203.550    21091203.959    21091216.583
       235.000         191.000
 -19428614.11549 -15094637.22247  18930289.518    18930289.214    18930299.875
       237.000         208.000
  -1087290.66349   -839759.67047  19977839.608    19977838.961    19977851.084
       238.000         200.000
  -9333549.71249  -7249814.59846  22342132.295    22342132.250    22342147.563
       223.000         163.000
 01 12 19 21 40 29.9950000  0  8G 4G 2G28G27G26G 7G 8G11
  -7297596.35649  -5653945.28145  22865191.469    22865193.554    22865218.939
       200.000         147.000
   -724401.49249   -562619.22246  21455896.418    21455895.730    21455909.899
       231.000         187.000
  -6845669.53449  -5323169.48547  19627411.288    19627410.955    19627420.380
       243.000         209.000
   5589838.45649   4356115.58145  22402121.019    22402120.226    22402138.860
       203.000         152.000
 -15563793.00749 -12104388.79747  21085001.681    21085002.063    21085014.711
       235.000         191.000
 -19493045.48549 -15144843.45547  18918028.591    18918028.301    18918038.950
       237.000         208.000
  -1055341.50549   -814864.33947  19983919.406    19983918.774    19983930.889
       237.000         199.000
  -9340729.50149  -7255409.27046  22340766.173    22340766.035    22340781.328
       222.000         164.000
 01 12 19 21 40 59.9950000  0  8G 4G 2G28G27G26G 7G 8G11
  -7448992.67449  -5771915.83845  22836381.126    22836383.162    22836408.518
       204.000         145.000
   -719376.47949   -558703.71846  21456852.764    21456852.048    21456866.243
       230.000         186.000
  -6864153.22849  -5337572.37747  19623893.985    19623893.663    19623903.073
       242.000         209.000
   5646436.22849   4400217.38345  22412891.423    22412890.571    22412909.338
       210.000         157.000
 -15595856.71249 -12129373.49547  21078900.154    21078900.543    21078913.163
       235.000         190.000
 -19557049.62949 -15194716.78047  18905848.990    18905848.685    18905859.325
       237.000         208.000
  -1023037.10349   -789692.19647  19990066.805    19990066.174    19990078.311
       237.000         199.000
  -9347433.53149  -7260633.23046  22339490.541    22339490.367    22339505.648
       222.000         163.000
 01 12 19 21 41 29.9950000  0  8G 4G 2G28G27G26G 7G 8G11
  -7600458.65949  -5889940.67445  22807557.823    22807559.725    22807584.808
       201.000         142.000
   -714262.87349   -554719.18446  21457825.919    21457825.220    21457839.447
       230.000         186.000
  -6882483.16649  -5351855.46547  19620405.908    19620405.581    19620415.033
       241.000         208.000
   5703219.85849   4444464.16845  22423697.291    22423696.389    22423715.051
       203.000         149.000
 -15627400.70349 -12153953.22147  21072897.487    21072897.879    21072910.546
       234.000         191.000
 -19620633.46549 -15244262.59447  18893749.422    18893749.087    18893759.702
       237.000         208.000
   -990384.97849   -764249.10247  19996280.365    19996279.744    19996291.877
       237.000         198.000
  -9353669.35849  -7265492.38745  22338303.967    22338303.769    22338319.040
       222.000         162.000
 01 12 19 21 41 59.9950000  0  8G 4G 2G28G27G26G 7G 8G11
  -7751988.14849  -6008014.98245  22778722.269    22778724.147    22778749.043
       202.000         144.000
   -709057.13649   -550662.86146  21458816.629    21458815.915    21458830.189
       229.000         186.000
  -6900656.03549  -5366016.16447  19616947.665    19616947.399    19616956.849
       242.000         208.000
   5760190.90149   4488856.86845  22434538.686    22434537.807    22434556.585
       208.000         157.000
 -15658422.86449 -12178126.32847  21066994.170    21066994.555    21067007.200
       235.000         191.000
 -19683794.04049 -15293478.58547  18881730.397    18881730.020    18881740.613
       237.000         208.000
   -957383.35749   -738533.67147  20002560.444    20002559.819    20002571.975
       237.000         198.000
  -9359434.77249  -7269985.00145  22337206.925    22337206.728    22337221.987
       222.000         161.000
 01 12 19 21 42 29.9950000  0  8G 4G 2G28G27G26G 7G 8G11
  -7903581.59649  -6126139.10345  22749874.418    22749876.364    22749901.149
       199.000         142.000
   -703761.99949   -546536.87246  21459824.332    21459823.607    21459837.917
       229.000         185.000
  -6918674.88149  -5380056.83747  19613518.803    19613518.543    19613527.985
       242.000         208.000
   5817344.52149   4533391.90345  22445414.800    22445413.971    22445432.759
       204.000         152.000
 -15688927.38049 -12201896.08047  21061189.353    21061189.741    21061202.379
       235.000         191.000
 -19746534.89749 -15342367.52347  18869791.207    18869790.824    18869801.412
       237.000         208.000
   -924036.41149   -712549.15647  20008906.202    20008905.591    20008917.794
       236.000         197.000
  -9364733.69149  -7274114.12645  22336198.647    22336198.401    22336213.681
       221.000         157.000
 01 12 19 21 42 59.9950000  0  9G 4G 2G28G27G26G 7G 8G 9G11
  -8055232.72749  -6244308.17645  22721015.663    22721017.601    22721042.243
       204.000         143.000
   -698373.83749   -542338.40446  21460849.744    21460849.025    21460863.327
       229.000         186.000
  -6936536.58449  -5393975.06447  19610119.808    19610119.553    19610129.042
       242.000         208.000
   5874681.99549   4578070.17545  22456325.944    22456325.135    22456343.960
       209.000         157.000
 -15718911.95549 -12225260.68847  21055483.494    21055483.856    21055496.502
       234.000         191.000
 -19808853.29849 -15390927.27147  18857932.357    18857932.004    18857942.589
       237.000         208.000
   -890342.03449   -686293.92047  20015318.087    20015317.486    20015329.730
       236.000         197.000
   -443629.37459   -312910.33655  23287478.124    23287476.989    23287499.053
       203.000         145.000
  -9369563.95249  -7277878.09845  22335279.486    22335279.281    22335294.558
       220.000         156.000
 01 12 19 21 43 29.9950000  0  9G 4G 2G28G27G26G 7G 8G 9G11
  -8206941.59849  -6362522.28145  22692145.987    22692147.904    22692172.339
       202.000         143.000
   -692895.32449   -538069.53846  21461892.367    21461891.620    21461905.959
       229.000         186.000
  -6954244.20649  -5407773.23247  19606750.164    19606749.924    19606759.418
       242.000         208.000
   5932198.59349   4622888.05345  22467271.267    22467270.425    22467289.293
       208.000         156.000
 -15748380.70849 -12248223.35647  21049875.738    21049876.121    21049888.772
       234.000         191.000
 -19870752.68449 -15439160.51147  18846153.271    18846152.920    18846163.477
       237.000         208.000
   -856304.53949   -659771.32347  20021795.294    20021794.696    20021806.946
       236.000         197.000
   -594484.70449   -430459.70445  23258771.246    23258771.591    23258791.670
       199.000         144.000
  -9373929.66549  -7281280.07145  22334448.773    22334448.548    22334463.772
       220.000         156.000
 01 12 19 21 43 59.9940000  0  9G 4G 2G28G27G26G 7G 8G 9G11
  -8358710.76549  -6480783.32045  22663264.669    22663266.566    22663290.949
       203.000         142.000
   -687336.97649   -533738.46146  21462950.164    21462949.413    21462963.768
       230.000         187.000
  -6971807.69649  -5421459.08447  19603408.012    19603407.731    19603417.217
       243.000         208.000
   5989880.26549   4667834.54645  22478247.905    22478247.045    22478266.050
       211.000         159.000
 -15777344.45049 -12270792.50347  21044364.082    21044364.471    21044377.138
       235.000         191.000
 -19932242.07349 -15487074.27447  18834452.195    18834451.848    18834462.389
       237.000         208.000
   -821936.94449   -632991.50047  20028335.337    20028334.712    20028346.979
       236.000         197.000
   -745317.34559   -547991.33855  23230068.431    23230067.636    23230089.771
       201.000         142.000
  -9377842.25349  -7284328.99845  22333704.248    22333704.054    22333719.215
       219.000         154.000
 01 12 19 21 44 29.9940000  0  9G 4G 2G28G27G26G 7G 8G 9G11
  -8510545.28049  -6599095.37245  22634370.896    22634372.912    22634397.161
       201.000         141.000
   -681695.91149   -529342.91946  21464023.642    21464022.931    21464037.302
       230.000         186.000
  -6989226.04749  -5435031.84647  19600093.460    19600093.162    19600102.642
       242.000         208.000
   6047731.10349   4712912.87945  22489256.747    22489255.897    22489274.966
       209.000         159.000
 -15805803.93849 -12292968.73547  21038948.406    21038948.807    21038961.479
       235.000         192.000
 -19993324.00349 -15534670.53747  18822828.661    18822828.325    18822838.836
       236.000         208.000
   -787235.99949   -605951.92147  20034938.815    20034938.183    20034950.475
       236.000         198.000
   -896133.00049   -665509.76845  23201369.020    23201368.330    23201390.034
       200.000         140.000
  -9381300.81049  -7287024.11845  22333046.116    22333045.944    22333061.100
       219.000         155.000
 01 12 19 21 44 59.9940000  0  9G 4G 2G28G27G26G 7G 8G 9G11
  -8662429.52549  -6717446.11645  22605467.808    22605469.842    22605493.904
       200.000         140.000
   -675964.26449   -524876.79046  21465114.383    21465113.683    21465128.073
       230.000         185.000
  -7006491.16049  -5448485.20547  19596808.042    19596807.745    19596817.225
       242.000         209.000
   6105755.08849   4758126.12145  22500298.458    22500297.673    22500316.801
       208.000         156.000
 -15833751.85049 -12314746.33847  21033630.113    21033630.508    21033643.161
       235.000         191.000
 -20053989.18949 -15581942.06347  18811284.412    18811284.084    18811294.600
       236.000         207.000
   -752196.57349   -578648.59447  20041606.723    20041606.064    20041618.393
       235.000         197.000
  -1046917.19649   -783003.62845  23172675.476    23172675.021    23172696.855
       202.000         144.000
  -9384298.54949  -7289360.14345  22332475.767    22332475.560    22332490.702
       219.000         155.000
 01 12 19 21 45 29.9940000  0  9G 4G 2G28G27G26G 7G 8G 9G11
  -8814352.27749  -6835826.87145  22576557.435    22576559.508    22576583.303
       201.000         142.000
   -670133.51149   -520333.45246  21466223.989    21466223.312    21466237.697
       230.000         184.000
  -7023594.91749  -5461812.83447  19593553.289    19593553.014    19593562.536
       242.000         209.000
   6163958.44549   4803479.14745  22511374.382    22511373.633    22511392.803
       212.000         160.000
 -15861181.16049 -12336119.83647  21028410.483    21028410.871    21028423.544
       235.000         191.000
 -20114229.92149 -15628882.85047  18799820.888    18799820.614    18799831.137
       236.000         208.000
   -716811.63149   -551076.03847  20048340.316    20048339.681    20048352.051
       235.000         196.000
  -1197659.51249   -900464.91245  23143990.037    23143989.730    23144011.350
       203.000         143.000
  -9386828.59349  -7291331.73845  22331994.389    22331994.180    22332009.323
       219.000         155.000
 01 12 19 21 45 59.9940000  0  9G 4G 2G28G27G26G 7G 8G 9G11
  -8966314.57949  -6954238.46345  22547639.440    22547641.498    22547665.296
       203.000         142.000
   -664207.24749   -515715.69546  21467351.785    21467351.121    21467365.494
       228.000         182.000
  -7040541.01249  -5475017.60947  19590328.572    19590328.301    19590337.825
       243.000         208.000
   6222335.63749   4848967.59545  22522483.348    22522482.613    22522501.941
       212.000         160.000
 -15888096.88649 -12357093.13447  21023288.614    21023288.976    21023301.654
       235.000         192.000
 -20174050.54449 -15675496.27747  18788437.348    18788437.093    18788447.621
       236.000         208.000
   -681086.49849   -523238.39547  20055138.599    20055138.003    20055150.447
       234.000         196.000
  -1348361.86649  -1017895.00345  23115312.261    23115311.864    23115333.611
       209.000         145.000
  -9388895.59849  -7292942.52145  22331601.089    22331600.873    22331616.073
       218.000         157.000
 01 12 19 21 46 29.9940000  0  9G 4G 2G28G27G26G 7G 8G 9G11
  -9118313.64149  -7072678.71845  22518714.617    22518716.620    22518740.226
       204.000         143.000
   -658185.47649   -511023.51146  21468497.721    21468497.091    21468511.469
       228.000         181.000
  -7057329.73349  -5488099.75247  19587133.756    19587133.523    19587143.045
       242.000         208.000
   6280884.39049   4894589.73545  22533625.023    22533624.268    22533643.687
       212.000         161.000
 -15914500.59449 -12377667.45447  21018264.169    21018264.523    21018277.217
       235.000         192.000
 -20233452.09749 -15721783.16347  18777133.579    18777133.308    18777143.856
       236.000         207.000
   -645022.69949   -495136.85147  20062001.360    20062000.769    20062013.298
       235.000         196.000
  -1499022.42249  -1135292.61945  23086642.418    23086642.171    23086663.739
       205.000         144.000
  -9390501.49749  -7294194.00845  22331295.626    22331295.383    22331310.588
       218.000         155.000
 01 12 19 21 46 59.9940000  0  9G 4G 2G28G27G26G 7G 8G 9G11
  -9270354.96049  -7191151.89645  22489781.667    22489783.602    22489807.119
       208.000         142.000
   -652075.76349   -506262.80646  21469660.349    21469659.776    21469674.182
       228.000         181.000
  -7073969.45249  -5501065.79647  19583967.289    19583967.072    19583976.612
       242.000         208.000
   6339594.80649   4940337.85745  22544797.426    22544796.653    22544816.156
       211.000         159.000
 -15940401.80449 -12397850.22447  21013335.306    21013335.677    21013348.382
       234.000         191.000
 -20292443.32049 -15767750.30947  18765907.838    18765907.604    18765918.168
       235.000         207.000
   -608629.70849   -466778.79447  20068926.783    20068926.201    20068938.771
       235.000         195.000
  -1649647.31849  -1252662.39045  23057979.338    23057979.152    23058000.658
       207.000         144.000
  -9391655.46149  -7295093.34345  22331076.160    22331075.943    22331091.105
       215.000         153.000
 01 12 19 21 47 29.9940000  0  9G 4G 2G28G27G26G 7G 8G 9G11
  -9422444.19649  -7309662.45145  22460839.629    22460841.519    22460864.854
       206.000         144.000
   -645886.87649   -501440.40946  21470838.117    21470837.531    21470851.981
       228.000         182.000
  -7090468.98449  -5513922.60247  19580827.520    19580827.339    19580836.885
       242.000         208.000
   6398456.11049   4986203.54045  22555998.486    22555997.760    22556017.347
       210.000         160.000
 -15965810.68449 -12417649.35347  21008500.158    21008500.529    21008513.218
       236.000         191.000
 -20351033.71649 -15813405.12747  18754758.411    18754758.189    18754768.747
       235.000         207.000
   -571917.80149   -438172.23547  20075912.959    20075912.352    20075924.887
       235.000         195.000
  -1800243.44449  -1370009.79045  23029321.824    23029321.605    23029343.004
       210.000         148.000
  -9392367.23349  -7295648.10245  22330940.661    22330940.497    22330955.799
       215.000         154.000
 01 12 19 21 47 59.9940000  0  9G 4G 2G28G27G26G 7G 8G 9G11
  -9574577.66349  -7428207.48645  22431889.218    22431891.063    22431914.221
       206.000         143.000
   -639617.62149   -496555.39646  21472031.216    21472030.595    21472045.094
       227.000         183.000
  -7106827.44749  -5526669.48147  19577714.658    19577714.456    19577724.029
       243.000         209.000
   6457467.38949   5032186.05246  22567228.205    22567227.432    22567247.092
       214.000         163.000
 -15990727.62649 -12437065.15847  21003758.587    21003758.990    21003771.682
       235.000         192.000
 -20409222.98149 -15858747.38447  18743685.314    18743685.098    18743695.659
       235.000         207.000
   -534887.69749   -409317.73047  20082959.666    20082959.052    20082971.584
       234.000         195.000
  -1950807.86749  -1487332.43345  23000670.125    23000670.079    23000691.404
       211.000         146.000
  -9392637.53849  -7295858.82345  22330889.308    22330889.084    22330904.541
       214.000         155.000
 01 12 19 21 48 29.9940000  0  9G 4G 2G28G27G26G 7G 8G 9G11
  -9726740.06749  -7546775.04845  22402933.344    22402935.182    22402958.109
       210.000         145.000
   -633255.35549   -491597.91246  21473242.037    21473241.400    21473255.893
       227.000         182.000
  -7123032.56549  -5539296.86747  19574630.956    19574630.749    19574640.351
       242.000         209.000
   6516638.91449   5078293.48445  22578488.380    22578487.624    22578507.318
       211.000         161.000
 -16015141.67049 -12456089.09847  20999112.699    20999113.146    20999125.844
       234.000         192.000
 -20466999.44549 -15903767.97847  18732690.768    18732690.566    18732701.141
       235.000         207.000
   -497528.28249   -380206.60947  20090069.008    20090068.398    20090080.950
       234.000         194.000
  -2101326.47149  -1604619.41945  22972027.271    22972027.293    22972048.435
       211.000         145.000
  -9392455.34549  -7295716.95345  22330924.019    22330923.789    22330939.318
       215.000         156.000
 01 12 19 21 48 59.9940000  0  9G 4G 2G28G27G26G 7G 8G 9G11
  -9878924.63749  -7665359.94245  22373973.115    22373974.887    22373997.729
       209.000         145.000
   -626795.81549   -486564.62846  21474471.335    21474470.694    21474485.206
       227.000         183.000
  -7139080.63449  -5551801.88047  19571577.114    19571576.915    19571586.552
       242.000         209.000
   6575972.77249   5124527.38145  22589779.437    22589778.690    22589798.445
       212.000         159.000
 -16039050.50549 -12474719.36247  20994562.984    20994563.459    20994576.162
       235.000         192.000
 -20524360.04649 -15948464.52647  18721775.338    18721775.170    18721785.759
       234.000         207.000
   -459837.36949   -350837.18847  20097241.454    20097240.847    20097253.403
       233.000         194.000
  -2251793.18749  -1721865.93745  22943394.267    22943394.331    22943415.458
       213.000         148.000
  -9391817.96749  -7295220.39845  22331045.339    22331045.138    22331060.770
       217.000         158.000
 01 12 19 21 49 29.9940000  0  9G 4G 2G28G27G26G 7G 8G 9G11
 -10031138.89549  -7783967.96745  22345007.386    22345009.068    22345031.696
       210.000         146.000
   -620249.30049   -481463.58446  21475717.139    21475716.535    21475731.096
       225.000         184.000
  -7154982.18849  -5564192.71647  19568551.175    19568550.971    19568560.634
       242.000         208.000
   6635456.60449   5170878.16245  22601099.053    22601098.270    22601118.096
       214.000         162.000
 -16062466.00749 -12492965.21847  20990107.165    20990107.641    20990120.333
       236.000         192.000
 -20581315.86149 -15992845.66247  18710936.973    18710936.796    18710947.416
       235.000         207.000
   -421826.65649   -321218.58247  20104474.739    20104474.139    20104486.711
       233.000         193.000
  -2402216.42449  -1839078.57045  22914769.529    22914769.692    22914790.677
       213.000         149.000
  -9390737.25849  -7294378.35645  22331251.027    22331250.870    22331266.592
       218.000         160.000
 01 12 19 21 49 59.9940000  0  9G 4G 2G28G27G26G 7G 8G 9G11
 -10183376.51449  -7902594.23145  22316037.206    22316038.824    22316061.277
       212.000         145.000
   -613612.22849   -476291.99546  21476980.208    21476979.604    21476994.234
       226.000         184.000
  -7170733.63949  -5576466.58647  19565553.764    19565553.592    19565563.252
       242.000         209.000
   6695091.82949   5217346.88346  22612447.526    22612446.713    22612466.623
       213.000         165.000
 -16085386.18149 -12510825.11047  20985745.611    20985746.072    20985758.771
       235.000         192.000
 -20637864.27349 -16036909.34347  18700176.183    18700175.992    18700186.574
       235.000         207.000
   -383494.26249   -291349.30747  20111769.224    20111768.629    20111781.233
       232.000         193.000
  -2552590.66649  -1956253.01845  22886154.077    22886154.265    22886175.207
       216.000         148.000
  -9389211.00849  -7293189.13045  22331541.606    22331541.409    22331557.204
       221.000         162.000
 01 12 19 21 50 29.9940000  0  9G 4G 2G28G27G26G 7G 8G 9G11
 -10335631.43649  -8021234.00745  22287063.826    22287065.341    22287087.572
       215.000         148.000
   -606880.96149   -471046.98846  21478261.182    21478260.593    21478275.278
       227.000         184.000
  -7186332.17749  -5588621.30147  19562585.475    19562585.309    19562594.985
       242.000         209.000
   6754879.77149   5263934.58746  22623824.999    22623824.191    22623844.184
       214.000         164.000
 -16107809.35049 -12528297.72447  20981478.635    20981479.083    20981491.789
       235.000         192.000
 -20694002.90249 -16080653.71347  18689493.421    18689493.165    18689503.716
       235.000         207.000
   -344838.58149   -261228.12347  20119125.261    20119124.659    20119137.283
       232.000         193.000
  -2702910.82049  -2073385.35345  22857548.868    22857549.171    22857569.977
       215.000         150.000
  -9387237.45249  -7291651.33145  22331917.232    22331917.037    22331932.894
       219.000         161.000
 01 12 19 21 50 59.9940000  0  9G 4G 2G28G27G26G 7G 8G 9G11
 -10487906.99549  -8139889.87645  22258086.311    22258087.865    22258109.885
       214.000         147.000
   -600061.42049   -465733.20246  21479558.993    21479558.395    21479573.130
       226.000         184.000
  -7201783.97149  -5600661.66847  19559645.133    19559644.953    19559654.664
       242.000         209.000
   6814812.18949   5310634.86645  22635229.948    22635229.121    22635249.238
       213.000         161.000
 -16129743.32449 -12545389.14347  20977304.750    20977305.180    20977317.922
       235.000         192.000
 -20749738.66949 -16124084.15847  18678887.273    18678886.994    18678897.522
       235.000         207.000
   -305867.30549   -230861.01947  20126541.346    20126540.747    20126553.412
       233.000         193.000
  -2853181.12249  -2190478.81645  22828953.151    22828953.534    22828974.298
       217.000         149.000
  -9384824.40749  -7289771.10345  22332376.435    22332376.238    22332392.161
       218.000         161.000
 01 12 19 21 51 29.9940000  0  9G 4G 2G28G27G26G 7G 8G 9G11
 -10640203.62349  -8258562.15745  22229104.783    22229106.412    22229128.296
       212.000         149.000
   -593156.87849   -460353.18446  21480873.016    21480872.391    21480887.157
       227.000         185.000
  -7217092.31649  -5612590.25047  19556732.078    19556731.894    19556741.595
       242.000         209.000
   6874883.64849   5357443.52345  22646661.353    22646660.537    22646680.732
       216.000         162.000
 -16151192.95649 -12562103.15947  20973222.996    20973223.454    20973236.213
       234.000         191.000
 -20805075.84349 -16167204.01347  18668356.940    18668356.665    18668367.163
       235.000         206.000
   -266585.32649   -200251.80647  20134016.559    20134015.959    20134028.660
       233.000         193.000
  -3003402.94449  -2307534.49445  22800366.608    22800367.078    22800387.840
       217.000         150.000
  -9381976.61149  -7287552.10845  22332918.385    22332918.182    22332934.189
       217.000         160.000
 01 12 19 21 51 59.9940000  0  9G 4G 2G28G27G26G 7G 8G 9G11
 -10792514.37649  -8377245.42245  22200120.752    22200122.286    22200144.063
       215.000         149.000
   -586163.25349   -454903.75046  21482204.000    21482203.351    21482218.121
       228.000         185.000
  -7232253.42749  -5624404.09347  19553847.036    19553846.836    19553856.531
       242.000         208.000
   6935096.17749   5404362.07846  22658119.617    22658118.786    22658139.100
       213.000         163.000
 -16172155.86849 -12578437.91347  20969233.895    20969234.326    20969247.136
       234.000         192.000
 -20860011.18049 -16210010.74447  18657903.014    18657902.783    18657913.290
       234.000         206.000
   -226990.28849   -169398.65547  20141551.319    20141550.749    20141563.511
       232.000         192.000
  -3153570.31449  -2424547.79045  22771790.492    22771790.980    22771811.655
       214.000         152.000
  -9378691.31349  -7284992.18845  22333543.596    22333543.423    22333559.486
       216.000         159.000
 01 12 19 21 52 29.9940000  0  9G 4G 2G28G27G26G 7G 8G 9G11
 -10944837.21049  -8495938.12645  22171134.306    22171135.860    22171157.493
       216.000         151.000
   -579080.95449   -449385.22246  21483551.855    21483551.191    21483565.962
       228.000         184.000
  -7247268.41949  -5636104.08347  19550989.743    19550989.576    19550999.267
       242.000         208.000
   6995446.88049   5451388.24145  22669604.143    22669603.374    22669623.769
       209.000         161.000
 -16192634.79249 -12594395.53747  20965336.889    20965337.308    20965350.165
       234.000         192.000
 -20914546.51849 -16252505.78547  18647525.228    18647525.007    18647535.527
       234.000         207.000
   -187084.71749   -138303.53747  20149145.223    20149144.621    20149157.441
       232.000         192.000
  -3303682.26149  -2541517.89645  22743224.872    22743225.457    22743246.026
       216.000         148.000
  -9374971.28949  -7282093.52145  22334251.564    22334251.386    22334267.468
       218.000         158.000
 01 12 19 21 52 59.9940000  0  9G 4G 2G28G27G26G 7G 8G 9G11
 -11097153.38249  -8614625.63345  22142149.234    22142150.771    22142172.213
       216.000         151.000
   -571893.98249   -443785.12046  21484919.641    21484918.949    21484933.721
       227.000         183.000
  -7262121.45749  -5647677.86647  19548163.309    19548163.155    19548172.859
       242.000         208.000
   7055949.67149   5498532.92646  22681117.671    22681116.898    22681137.317
       215.000         164.000
 -16212615.26849 -12609964.76147  20961534.749    20961535.160    20961548.037
       234.000         192.000
 -20968666.77249 -16294677.38447  18637226.481    18637226.246    18637236.760
       234.000         206.000
   -146854.13549   -106955.15347  20156800.929    20156800.341    20156813.205
       232.000         191.000
  -3453720.62449  -2658430.63345  22714673.423    22714673.977    22714694.475
       216.000         149.000
  -9370802.08349  -7278844.86845  22335045.021    22335044.828    22335060.861
       218.000         156.000
 01 12 19 21 53 29.9940000  0  9G 4G 2G28G27G26G 7G 8G 9G11
 -11249481.43049  -8733322.38045  22113161.824    22113163.347    22113184.617
       215.000         154.000
   -564623.54949   -438119.98146  21486303.309    21486302.598    21486317.363
       226.000         182.000
  -7276833.86749  -5659142.07347  19545363.591    19545363.456    19545373.208
       241.000         208.000
   7116581.07149   5545777.83246  22692655.679    22692654.899    22692675.391
       214.000         164.000
 -16232120.50649 -12625163.66847  20957823.046    20957823.433    20957836.339
       234.000         192.000
 -21022394.27049 -16336542.93447  18627002.453    18627002.219    18627012.736
       234.000         206.000
   -106321.71349    -75371.57047  20164514.063    20164513.500    20164526.374
       232.000         191.000
  -3603704.73549  -2775301.14945  22686132.265    22686132.846    22686153.157
       212.000         153.000
  -9366206.52849  -7275264.00845  22335919.608    22335919.407    22335935.365
       217.000         156.000
 01 12 19 21 53 59.9940000  0  9G 4G 2G28G27G26G 7G 8G 9G11
 -11401819.99449  -8852027.29345  22084172.383    22084173.911    22084195.048
       218.000         153.000
   -557271.01049   -432390.87746  21487702.507    21487701.832    21487716.642
       224.000         179.000
  -7291407.52249  -5670498.15647  19542590.274    19542590.156    19542599.936
       242.000         208.000
   7177337.48049   5593120.10945  22704217.573    22704216.710    22704237.273
       211.000         160.000
 -16251153.73449 -12639994.77647  20954201.167    20954201.560    20954214.451
       234.000         192.000
 -21075731.54849 -16378104.41347  18616852.671    18616852.452    18616862.978
       233.000         206.000
    -65490.75749    -43555.35847  20172284.063    20172283.480    20172296.395
       232.000         191.000
  -3753634.32449  -2892129.18045  22657601.298    22657601.965    22657622.192
       217.000         152.000
  -9361187.85449  -7271353.46445  22336874.702    22336874.470    22336890.476
       217.000         155.000
 01 12 19 21 54 29.9940000  0  9G 4G 2G28G27G26G 7G 8G 9G11
 -11554161.45649  -8970734.45545  22055182.418    22055183.946    22055204.957
       215.000         154.000
   -549831.36349   -426593.89446  21489118.390    21489117.673    21489132.496
       225.000         179.000
  -7305837.55249  -5681742.32647  19539844.302    19539844.203    19539853.996
       241.000         208.000
   7238221.68649   5640561.99345  22715803.719    22715802.843    22715823.499
       214.000         161.000
 -16269711.87849 -12654455.69747  20950669.697    20950670.066    20950682.964
       234.000         192.000
 -21128674.70749 -16419358.78947  18606777.911    18606777.674    18606788.206
       234.000         206.000
    -24358.14049    -11504.09347  20180111.398    20180110.854    20180123.812
       231.000         191.000
  -3903502.35049  -3008909.18945  22629082.127    22629082.827    22629103.132
       215.000         150.000
  -9355742.67149  -7267110.56945  22337910.975    22337910.750    22337926.640
       215.000         152.000
 01 12 19 21 54 59.9940000  0  9G 4G 2G28G27G26G 7G 8G 9G11
 -11706500.65349  -9089439.81845  22026192.762    22026194.414    22026215.228
       217.000         154.000
   -542302.43349   -420727.32346  21490551.227    21490550.514    21490565.341
       224.000         178.000
  -7320122.10749  -5692873.13847  19537126.058    19537125.946    19537135.734
       242.000         209.000
   7299233.64049   5688103.45245  22727414.139    22727413.295    22727434.025
       213.000         160.000
 -16287794.63549 -12668546.17947  20947228.700    20947229.066    20947241.944
       235.000         192.000
 -21181222.60449 -16460305.16247  18596778.345    18596778.116    18596788.659
       233.000         206.000
     17076.79649     20782.77047  20187996.306    20187995.746    20188008.752
       231.000         191.000
  -4053304.87549  -3125638.14645  22600575.501    22600576.198    22600596.425
       217.000         155.000
  -9349870.44749  -7262534.90345  22339028.466    22339028.236    22339044.104
       214.000         152.000
 01 12 19 21 55 29.9940000  0  9G 4G 2G28G27G26G 7G 8G 9G11
 -11858838.69749  -9208144.27545  21997203.401    21997205.093    21997225.732
       217.000         156.000
   -534688.04349   -414794.17646  21492000.233    21491999.553    21492014.465
       223.000         179.000
  -7334265.17849  -5703893.72547  19534434.701    19534434.610    19534444.420
       242.000         209.000
   7360367.13449   5735739.59545  22739047.716    22739046.876    22739067.642
       210.000         157.000
 -16305407.78549 -12682270.73747  20943877.074    20943877.421    20943890.285
       235.000         193.000
 -21233380.32449 -16500947.50947  18586853.082    18586852.819    18586863.354
       235.000         206.000
     58808.23649     53300.65447  20195937.595    20195937.058    20195950.134
       232.000         190.000
  -4203043.89249  -3242317.68045  22572080.989    22572081.632    22572101.698
       218.000         156.000
  -9343577.07049  -7257631.09145  22340226.123    22340225.893    22340241.731
       216.000         155.000
 01 12 19 21 55 59.9940000  0  9G 4G 2G28G27G26G 7G 8G 9G11
 -12011165.93049  -9326840.27645  21968216.198    21968217.816    21968238.337
       216.000         158.000
   -526981.12149   -408788.92646  21493466.905    21493466.222    21493481.218
       226.000         182.000
  -7348260.11549  -5714798.88247  19531771.584    19531771.480    19531781.282
       243.000         209.000
   7421626.91249   5783474.10545  22750705.307    22750704.447    22750725.298
       209.000         156.000
 -16322546.40949 -12695625.53947  20940615.715    20940616.077    20940628.925
       234.000         192.000
 -21285141.86049 -16541281.14547  18577003.180    18577002.912    18577013.433
       235.000         206.000
    100841.28749     86053.56647  20203936.318    20203935.761    20203948.885
       231.000         190.000
  -4352710.45049  -3358940.69645  22543600.173    22543600.841    22543620.856
       219.000         153.000
  -9336857.17549  -7252394.90945  22341504.949    22341504.743    22341520.584
       218.000         156.000
 01 12 19 21 56 29.9940000  0  9G 4G 2G28G27G26G 7G 8G 9G11
 -12163477.10649  -9445523.75445  21939231.955    21939233.598    21939254.037
       215.000         157.000
   -519179.08249   -402709.55746  21494951.636    21494950.988    21494966.067
       225.000         181.000
  -7362104.76249  -5725586.93847  19529137.080    19529136.925    19529146.722
       242.000         208.000
   7483013.14349   5831307.14445  22762386.986    22762386.149    22762407.066
       213.000         162.000
 -16339210.01949 -12708610.19747  20937444.760    20937445.125    20937457.976
       234.000         192.000
 -21336506.06349 -16581305.17347  18567228.903    18567228.629    18567239.121
       235.000         206.000
    143176.60249    119042.01747  20211992.523    20211991.987    20212005.151
       232.000         190.000
  -4502300.39749  -3475503.99545  22515133.981    22515134.609    22515154.582
       217.000         153.000
  -9329710.34549  -7246826.04045  22342865.056    22342864.820    22342880.663
       216.000         157.000
 01 12 19 21 56 59.9940000  0  9G 4G 2G28G27G26G 7G 8G 9G11
 -12315769.91449  -9564192.86845  21910251.199    21910252.867    21910273.163
       217.000         159.000
   -511282.21049   -396556.29146  21496454.411    21496453.778    21496468.929
       226.000         181.000
  -7375799.82049  -5736258.43447  19526531.044    19526530.879    19526540.657
       243.000         209.000
   7544523.24649   5879236.70746  22774092.283    22774091.396    22774112.380
       216.000         165.000
 -16355400.93249 -12721226.52347  20934363.761    20934364.104    20934376.982
       235.000         192.000
 -21387474.43549 -16621020.76847  18557529.904    18557529.652    18557540.157
       235.000         206.000
    185811.70949    152264.08147  20220105.820    20220105.263    20220118.494
       231.000         190.000
  -4651812.15549  -3592006.39145  22486682.675    22486683.260    22486703.151
       218.000         155.000
  -9322138.50549  -7240926.00345  22344305.992    22344305.765    22344321.650
       214.000         157.000
 01 12 19 21 57 29.9940000  0  9G 4G 2G28G27G26G 7G 8G 9G11
 -12468049.82149  -9682851.96945  21881272.889    21881274.596    21881294.764
       216.000         159.000
   -503298.72649   -390335.52846  21497973.678    21497973.071    21497988.242
       227.000         182.000
  -7389353.78849  -5746819.99547  19523951.827    19523951.649    19523961.421
       242.000         209.000
   7606146.83749   5927254.69046  22785819.164    22785818.254    22785839.289
       218.000         166.000
 -16371129.40649 -12733482.51247  20931370.728    20931371.087    20931383.975
       234.000         192.000
 -21438056.39349 -16660435.26847  18547904.478    18547904.212    18547914.732
       234.000         207.000
    228736.70349    185712.01847  20228274.263    20228273.723    20228286.999
       231.000         189.000
  -4801252.21649  -3708452.91945  22458244.964    22458245.553    22458265.398
       215.000         157.000
  -9314151.95749  -7234702.81545  22345825.819    22345825.630    22345841.520
       214.000         155.000
 01 12 19 21 57 59.9940000  0  9G 4G 2G28G27G26G 7G 8G 9G11
 -12620307.06149  -9801493.36245  21852298.867    21852300.579    21852320.713
       216.000         159.000
   -495221.55549   -384041.76946  21499510.788    21499510.178    21499525.433
       225.000         182.000
  -7402759.81949  -5757266.29147  19521400.718    19521400.577    19521410.363
       242.000         209.000
   7667888.68149   5975364.83546  22797568.563    22797567.625    22797588.709
       217.000         164.000
 -16386390.58049 -12745374.37247  20928466.562    20928466.957    20928479.895
       234.000         191.000
 -21488246.05649 -16699544.08747  18538353.648    18538353.406    18538363.949
       235.000         206.000
    271956.65749    219389.78547  20236498.868    20236498.296    20236511.600
       232.000         189.000
  -4950611.59049  -3824836.59945  22429822.512    22429823.193    22429842.973
       216.000         154.000
  -9305745.58249  -7228152.47345  22347425.497    22347425.339    22347441.311
       212.000         153.000
 01 12 19 21 58 29.9940000  0  9G 4G 2G28G27G26G 7G 8G 9G11
 -12772535.74549  -9920112.53245  21823330.192    21823332.000    21823352.037
       216.000         162.000
   -487047.75849   -377672.72846  21501066.327    21501065.701    21501080.999
       226.000         182.000
  -7416014.95049  -5767595.01247  19518878.376    19518878.216    19518888.032
       242.000         209.000
   7729749.58949   6023567.77345  22809340.547    22809339.621    22809360.792
       216.000         158.000
 -16401183.40349 -12756901.28447  20925651.545    20925651.962    20925664.934
       234.000         191.000
 -21538041.69249 -16738345.87547  18528877.803    18528877.572    18528888.125
       235.000         206.000
    315472.63249    253298.20847  20244779.775    20244779.207    20244792.501
       232.000         189.000
  -5099885.07449  -3941153.31645  22401416.420    22401417.181    22401436.905
       217.000         154.000
  -9296918.11849  -7221273.99445  22349105.356    22349105.215    22349121.273
       214.000         154.000
 01 12 19 21 58 59.9940000  0  9G 4G 2G28G27G26G 7G 8G 9G11
 -12924735.74349 -10038709.35045  21794367.008    21794368.890    21794388.868
       217.000         159.000
   -478779.91249   -371230.40446  21502639.735    21502639.114    21502654.454
       225.000         181.000
  -7429121.59649  -5777808.02547  19516384.269    19516384.116    19516393.936
       243.000         209.000
   7791724.60449   6071859.64445  22821134.294    22821133.366    22821154.603
       211.000         149.000
 -16415512.40949 -12768066.78547  20922924.820    20922925.249    20922938.244
       233.000         190.000
 -21587446.95149 -16776843.47747  18519476.271    18519476.041    18519486.590
       235.000         206.000
    359280.30849    287433.94747  20253116.259    20253115.664    20253128.933
       232.000         189.000
  -5249073.42149  -4057403.69145  22373026.574    22373027.356    22373047.097
       215.000         158.000
  -9287673.71149  -7214070.63745  22350864.548    22350864.432    22350880.561
       213.000         155.000
 01 12 19 21 59 29.9940000  0  9G 4G 2G28G27G26G 7G 8G 9G11
 -13076903.35949 -10157280.92045  21765410.077    21765411.923    21765431.843
       217.000         160.000
   -470417.00049   -364713.99446  21504231.230    21504230.611    21504246.012
       224.000         180.000
  -7442079.71049  -5787905.30547  19513918.463    19513918.305    19513928.108
       243.000         209.000
   7853812.50249   6120239.48245  22832949.521    22832948.569    22832969.887
       205.000         141.000
 -16429379.02549 -12778871.98347  20920286.115    20920286.526    20920299.537
       233.000         191.000
 -21636462.32749 -16815037.28147  18510148.935    18510148.701    18510159.254
       234.000         207.000
    403378.48549    321796.03447  20261507.996    20261507.391    20261520.626
       232.000         190.000
  -5398173.70849  -4173585.44745  22344653.515    22344654.288    22344673.974
       217.000         159.000
  -9278013.58749  -7206543.33245  22352702.872    22352702.733    22352718.873
       212.000         154.000
 01 12 19 21 59 59.9940000  0  9G 4G 2G28G27G26G 7G 8G 9G11
 -13229038.33149 -10275827.10445  21736459.416    21736461.228    21736480.939
       215.000         161.000
   -461961.58149   -358125.51246  21505840.315    21505839.719    21505855.192
       224.000         179.000
  -7454891.88549  -5797888.87947  19511480.430    19511480.249    19511490.080
       242.000         209.000
   7916008.40449   6168703.50244  22844785.275    22844784.279    22844805.662
       198.000         130.000
 -16442787.87349 -12789320.47947  20917734.474    20917734.919    20917747.941
       233.000         191.000
 -21685091.53849 -16852930.17447  18500895.082    18500894.867    18500905.436
       234.000         206.000
    447762.69649    356381.01547  20269954.148    20269953.536    20269966.792
       232.000         189.000
  -5547186.61649  -4289699.11245  22316297.090    22316297.881    22316317.517
       216.000         159.000
  -9267942.40049  -7198695.73545  22354619.378    22354619.290    22354635.513
       212.000         155.000
 01 12 19 22  0 29.9940000  0  9G 4G 2G28G27G26G 7G 8G 9G11
 -13381129.17149 -10394338.93745  21707517.098    21707518.910    21707538.433
       216.000         161.000
   -453404.75349   -351457.99446  21507468.753    21507468.142    21507483.633
       224.000         179.000
  -7467549.53049  -5807752.03847  19509071.781    19509071.612    19509081.425
       242.000         209.000
   7978318.71848   6217256.64844  22856642.734                    22856638.503
       193.000         119.000
 -16455732.19449 -12799407.01647  20915271.276    20915271.695    20915284.742
       234.000         190.000
 -21733326.90149 -16890516.16947  18491716.196    18491715.963    18491726.548
       235.000         206.000
    492440.01349    391194.37747  20278456.066    20278455.438    20278468.707
       231.000         189.000
  -5696101.32849  -4405736.20945  22287959.224    22287960.114    22287979.758
       218.000         160.000
  -9257453.34749  -7190522.53945  22356615.474    22356615.357    22356631.632
       213.000         156.000
 01 12 19 22  0 59.9930000  0  9G 4G 2G28G27G26G 7G 8G 9G11
 -13533161.44249 -10512805.12045  21678585.911    21678587.698    21678607.112
       215.000         161.000
   -444740.38249   -344706.68246  21509117.581    21509116.999    21509132.524
       223.000         176.000
  -7480046.24549  -5817489.79747  19506693.779    19506693.593    19506703.403
       243.000         209.000
   8040745.67148   6265900.71544  22868522.420    22868523.717    22868541.347
       186.000         110.000
 -16468207.40349 -12809128.00047  20912897.337    20912897.760    20912910.828
       234.000         191.000
 -21781161.80149 -16927790.11447  18482613.530    18482613.298    18482623.844
       234.000         207.000
    537413.06449    426238.18047  20287014.228    20287013.617    20287026.930
       230.000         188.000
  -5844904.45349  -4521686.37145  22259642.651    22259643.576    22259663.227
       217.000         160.000
  -9246542.14549  -7182020.38745  22358691.811    22358691.739    22358708.063
       214.000         156.000
 01 12 19 22  1 29.9930000  0  9G 4G 2G28G27G26G 7G 8G 9G11
 -13685142.01249 -10631231.08146  21649664.524    21649666.359    21649685.596
       216.000         163.000
   -435967.24149   -337870.61146  21510787.120    21510786.552    21510802.127
       224.000         177.000
  -7492382.25349  -5827102.33047  19504346.315    19504346.150    19504355.996
       243.000         209.000
                   6314637.51654  22880424.767
       179.000          97.000
 -16480215.85149 -12818485.27947  20910612.257    20910612.660    20910625.722
       234.000         191.000
 -21828599.94049 -16964754.88847  18473586.345    18473586.125    18473596.641
       235.000         207.000
    582683.81249    461513.96547  20295628.989    20295628.423    20295641.809
       230.000         188.000
  -5993603.43549  -4637555.35845  22231345.912    22231346.848    22231366.465
       217.000         161.000
  -9235209.39149  -7173189.77545  22360848.465    22360848.370    22360864.684
       215.000         156.000
 01 12 19 22  1 59.9930000  0  9G 4G 2G28G27G26G 7G 8G 9G11
 -13837071.49449 -10749617.24545  21620752.863    21620754.681    21620773.802
       214.000         162.000
   -427094.27049   -330956.73846  21512475.722    21512475.138    21512490.753
       225.000         178.000
  -7504565.99149  -5836596.21047  19502027.857    19502027.696    19502037.531
       242.000         208.000
                   6363456.98553  22892347.206
       171.000          94.000
 -16491767.83449 -12827486.86647  20908414.035    20908414.431    20908427.488
       234.000         190.000
 -21875649.83649 -17001417.13847  18464633.086    18464632.824    18464643.336
       234.000         206.000
    628240.01249    497012.17547  20304298.100    20304297.543    20304310.994
       230.000         188.000
  -6142200.02449  -4753344.56745  22203068.723    22203069.627    22203089.165
       216.000         162.000
  -9223465.97249  -7164039.17145  22363083.233    22363083.149    22363099.521
       215.000         155.000
 01 12 19 22  2 29.9930000  0  9G 4G 2G28G27G26G 7G 8G 9G11
 -13988942.43949 -10867957.82046  21591852.261    21591854.155    21591873.211
       217.000         163.000
   -418116.82549   -323961.44846  21514184.176    21514183.582    21514199.231
       224.000         177.000
  -7516592.98249  -5845967.94947  19499739.214    19499739.057    19499748.912
       242.000         209.000
                   6412361.11153  22904290.359
       170.000          89.000
 -16502861.04149 -12836130.97047  20906303.103    20906303.486    20906316.573
       233.000         190.000
 -21922307.87149 -17037774.03647  18455754.352    18455754.085    18455764.606
       234.000         206.000
    674084.48449    532735.01547  20313022.080    20313021.551    20313035.018
       230.000         188.000
  -6290687.71949  -4869048.91045  22174812.110    22174813.093    22174832.602
       217.000         162.000
  -9211309.51649  -7154566.71945  22365396.647    22365396.538    22365412.884
       214.000         155.000
 01 12 19 22  2 59.9930000  0  9G 4G 2G28G27G26G 7G 8G 9G11
 -14140749.22249 -10986248.44846  21562964.048    21562965.942    21562984.785
       217.000         164.000
   -409032.05849   -316882.54846  21515913.079    21515912.468    21515928.152
       225.000         178.000
  -7528460.68949  -5855215.56847  19497480.925    19497480.748    19497490.608
       243.000         209.000
                      9528.32153  22916254.343
       155.000          74.000
 -16513495.07149 -12844417.26247  20904279.568    20904279.937    20904293.024
       233.000         190.000
 -21968572.77349 -17073824.59547  18446950.436    18446950.164    18446960.681
       235.000         206.000
    720217.86949    568682.99346  20321801.075    20321800.524    20321814.055
       230.000         187.000
  -6439061.73349  -4984664.65946  22146577.311    22146578.222    22146597.730
       215.000         163.000
  -9198739.03349  -7144771.67145  22367788.853    22367788.750    22367805.090
       216.000         156.000
 01 12 19 22  3 29.9930000  0  8G 4G 2G28G26G 7G 8G 9G11
 -14292488.48349 -11104486.47446  21534088.801    21534090.569    21534109.208
       218.000         163.000
   -399839.24849   -309719.43446  21517662.562    21517661.927    21517677.627
       226.000         179.000
  -7540168.75949  -5864338.79547  19495252.962    19495252.801    19495262.700
       242.000         209.000
 -16523671.30049 -12852346.82847  20902343.069    20902343.471    20902356.610
       232.000         190.000
 -22014445.18149 -17109569.31047  18438221.200    18438220.933    18438231.458
       235.000         206.000
    766638.73049    604854.97046  20330634.737    20330634.190    20330647.806
       230.000         187.000
  -6587319.31549  -5100189.70146  22118364.532    22118365.458    22118384.903
       219.000         164.000
  -9185755.85949  -7134655.04545  22370259.602    22370259.462    22370275.817
       216.000         157.000
 01 12 19 22  3 59.9930000  0  8G 4G 2G28G26G 7G 8G 9G11
 -14444163.90949 -11222674.77946  21505225.682    21505227.375    21505245.907
       218.000         164.000
   -390544.75649   -302477.10346  21519431.384    21519430.723    21519446.439
       225.000         176.000
  -7551723.73849  -5873342.73347  19493054.152    19493053.981    19493063.919
       243.000         209.000
 -16533398.61349 -12859926.59147  20900492.009    20900492.430    20900505.605
       233.000         190.000
 -22059933.05049 -17145014.38547  18429565.125    18429564.873    18429575.396
       235.000         207.000
    813338.61549    641244.35546  20339521.505    20339520.965    20339534.628
       229.000         186.000
  -6735465.25949  -5215627.75946  22090173.101    22090174.004    22090193.368
       218.000         164.000
  -9172368.63649  -7124223.55645  22372807.165    22372807.070    22372823.397
       215.000         157.000
 01 12 19 22  4 29.9930000  0  8G 4G 2G28G26G 7G 8G 9G11
 -14595765.92649 -11340805.92546  21476376.454    21476378.116    21476396.484
       219.000         164.000
   -381141.93249   -295150.35146  21521220.761    21521220.104    21521235.804
       226.000         175.000
  -7563119.28149  -5882222.42347  19490885.696    19490885.520    19490895.481
       243.000         208.000
 -16542672.47949 -12867153.00347  20898727.264    20898727.692    20898740.895
       233.000         190.000
 -22105030.79749 -17180155.46647  18420983.325    18420983.041    18420993.584
       234.000         206.000
    860322.29149    677854.89946  20348462.310    20348461.745    20348475.456
       229.000         186.000
  -6883490.83649  -5330972.02146  22062004.556    22062005.463    22062024.751
       218.000         165.000
  -9158572.75949  -7113473.63545  22375432.486    22375432.405    22375448.760
       215.000         157.000
 01 12 19 22  4 59.9930000  0  8G 4G 2G28G26G 7G 8G 9G11
 -14747291.17749 -11458877.24945  21447541.807    21447543.500    21447561.707
       216.000         162.000
   -371630.12849   -287738.68546  21523030.862    21523030.225    21523045.946
       227.000         178.000
  -7574354.86549  -5890977.46147  19488747.676    19488747.505    19488757.452
       242.000         208.000
 -16551494.82249 -12874027.58147  20897048.437    20897048.876    20897062.103
       233.000         190.000
 -22149739.45549 -17214993.35847  18412475.494    18412475.253    18412485.781
       234.000         206.000
    907588.29349    714685.41246  20357456.765    20357456.242    20357470.038
       229.000         186.000
  -7031393.37349  -5446220.41846  22033859.466    22033860.330    22033879.526
       218.000         166.000
  -9144369.77049  -7102406.50345  22378135.278    22378135.218    22378151.594
       214.000         157.000
 01 12 19 22  5 29.9930000  0  8G 4G 2G28G26G 7G 8G 9G11
 -14898740.80649 -11576889.66146  21418721.533    21418723.260    21418741.367
       216.000         163.000
   -362013.45449   -280245.29246  21524860.932    21524860.308    21524876.054
       226.000         178.000
  -7585434.69649  -5899611.14047  19486639.327    19486639.137    19486649.088
       243.000         208.000
 -16559871.91249 -12880555.20947  20895454.382    20895454.797    20895468.022
       232.000         190.000
 -22194064.22349 -17249532.11547  18404040.757    18404040.508    18404051.046
       234.000         206.000
    955130.45549    751731.13046  20366503.791    20366503.284    20366517.166
       229.000         185.000
  -7179174.80549  -5561374.44946  22005737.362    22005738.272    22005757.310
       220.000         166.000
  -9129765.58649  -7091026.76045  22380914.416    22380914.362    22380930.788
       214.000         158.000
 01 12 19 22  5 59.9930000  0  8G 4G 2G28G26G 7G 8G 9G11
 -15050099.28049 -11694831.06046  21389918.767    21389920.350    21389938.388
       218.000         165.000
   -352279.52149   -272660.56246  21526713.311    21526712.699    21526728.524
       225.000         178.000
  -7596346.71549  -5908114.05047  19484562.864    19484562.675    19484572.649
       242.000         208.000
 -16567793.60649 -12886727.98747  20893946.935    20893947.384    20893960.595
       233.000         189.000
 -22237994.09849 -17283763.16647  18395681.169    18395680.941    18395691.467
       234.000         206.000
   1002959.34749    789000.27846  20375605.444    20375604.922    20375618.829
       229.000         185.000
  -7326820.56649  -5676422.77346  21977641.114    21977641.980    21977660.951
       219.000         166.000
  -9114750.11949  -7079326.53945  22383771.875    22383771.803    22383788.282
       215.000         159.000
 01 12 19 22  6 29.9930000  0  8G 4G 2G28G26G 7G 8G 9G11
 -15201372.61049 -11812706.11846  21361132.061    21361133.686    21361151.701
       216.000         164.000
   -342436.85249   -264991.08646  21528586.373    21528585.785    21528601.682
       226.000         178.000
  -7607099.38849  -5916492.79247  19482516.737    19482516.555    19482526.512
       243.000         208.000
 -16575270.96549 -12892554.53547  20892524.111    20892524.522    20892537.725
       233.000         189.000
 -22281539.07649 -17317694.29747  18387394.802    18387394.580    18387405.108
       234.000         206.000
   1051064.13849    826484.39546  20384759.604    20384759.073    20384772.980
       230.000         185.000
  -7474337.51249  -5791370.74246  21949569.389    21949570.245    21949589.096
       220.000         166.000
  -9099333.86149  -7067314.04645  22386705.635    22386705.538    22386722.011
       216.000         159.000
 01 12 19 22  6 59.9930000  0  8G 4G 2G28G26G 7G 8G 9G11
 -15352559.76649 -11930514.03546  21332361.943    21332363.508    21332381.366
       216.000         165.000
   -332487.33549   -257238.34546  21530479.796    21530479.222    21530495.141
       227.000         178.000
  -7617694.95149  -5924749.10747  19480500.516    19480500.323    19480510.275
       242.000         208.000
 -16582308.16849 -12898038.09947  20891184.976    20891185.417    20891198.608
       232.000         188.000
 -22324702.43549 -17351328.06347  18379181.022    18379180.830    18379191.399
       234.000         206.000
   1099440.94949    864180.48046  20393965.551    20393964.992    20393978.910
       230.000         185.000
  -7621725.43649  -5906218.18146  21921522.126    21921523.007    21921541.789
       221.000         166.000
  -9083520.97549  -7054992.48845  22389714.972    22389714.776    22389731.222
       215.000         158.000
 01 12 19 22  7 29.9930000  0  8G 4G 2G28G26G 7G 8G 9G11
 -15503660.57649 -12048254.64446  21303608.182    21303609.665    21303627.478
       216.000         164.000
   -322433.41749   -249404.26246  21532393.082    21532392.533    21532408.467
       225.000         175.000
  -7628136.30849  -5932885.25747  19478513.611    19478513.425    19478523.384
       243.000         208.000
 -16588910.34149 -12903182.67447  20889928.614    20889929.075    20889942.287
       232.000         188.000
 -22367488.16749 -17384667.57647  18371039.094    18371038.946    18371049.533
       235.000         206.000
   1148085.11549    902084.87346  20403222.369    20403221.788    20403235.701
       229.000         185.000
  -7768985.02649  -6020965.64346  21893499.283    21893500.209    21893518.901
       219.000         168.000
  -9067316.11949  -7042365.48145  22392798.842    22392798.580    22392815.036
       215.000         159.000
 01 12 19 22  7 59.9930000  0  8G 4G 2G28G26G 7G 8G 9G11
 -15654664.25949 -12165919.58646  21274872.898    21274874.377    21274892.060
       214.000         164.000
   -312267.18749   -241482.67946  21534327.729    21534327.191    21534343.177
       226.000         178.000
  -7638415.72249  -5940895.21347  19476557.517    19476557.342    19476567.292
       242.000         207.000
 -16595071.92649 -12907983.93946  20888756.134    20888756.580    20888769.783
       232.000         187.000
 -22409889.98749 -17417707.93447  18362970.298    18362970.124    18362980.723
       234.000         206.000
   1197002.36749    940202.06746  20412531.096    20412530.551    20412544.445
       228.000         184.000
  -7916106.19349  -6135605.25446  21865502.823    21865503.759    21865522.343
       218.000         168.000
  -9050713.57249  -7029428.57045  22395958.318    22395958.037    22395974.579
       212.000         157.000
 01 12 19 22  8 29.9930000  0  8G 4G 2G28G26G 7G 8G 9G11
 -15805576.85749 -12283513.52946  21246154.949    21246156.386    21246174.053
       213.000         163.000
   -301997.61049   -233480.55746  21536282.141    21536281.568    21536297.622
       228.000         179.000
  -7648542.16849  -5948785.97147  19474630.530    19474630.362    19474640.322
       242.000         207.000
 -16600804.38549 -12912450.82746  20887665.310    20887665.762    20887678.941
       232.000         187.000
 -22451918.10649 -17450457.10147  18354972.624    18354972.436    18354983.019
       234.000         206.000
   1246181.71949    978523.49246  20421889.726    20421889.167    20421903.083
       228.000         184.000
  -8063096.03049  -6250142.52946  21837531.374    21837532.297    21837550.744
       219.000         168.000
  -9033724.29849  -7016190.32145  22399191.342    22399191.117    22399207.658
       212.000         157.000
 01 12 19 22  8 59.9930000  0  8G 4G 2G28G26G 7G 8G 9G11
 -15956392.30549 -12401031.77346  21217455.362    21217456.863    21217474.543
       214.000         163.000
   -291621.47649   -225395.39246  21538256.884    21538256.253    21538272.334
       228.000         177.000
  -7658512.69849  -5956555.22847  19472733.207    19472733.049    19472743.021
       241.000         207.000
 -16606106.70249 -12916582.53646  20886656.355    20886656.777    20886669.977
       231.000         187.000
 -22493570.65449 -17482913.60947  18347046.422    18347046.213    18347056.781
       234.000         207.000
   1295624.29049   1017050.00646  20431298.420    20431297.870    20431311.837
       227.000         184.000
  -8209949.08149  -6364573.23346  21809585.991    21809586.892    21809605.189
       217.000         166.000
  -9016347.32249  -7002649.97045  22402498.191    22402497.963    22402514.548
       212.000         156.000
 01 12 19 22  9 29.9930000  0  8G 4G 2G28G26G 7G 8G 9G11
 -16107108.04649 -12518472.31846  21188774.837    21188776.317    21188793.977
       212.000         164.000
   -281138.88649   -217227.24646  21540251.840    21540251.163    21540267.249
       226.000         175.000
  -7668327.65149  -5964203.25847  19470865.477    19470865.348    19470875.346
       242.000         207.000
 -16610981.91549 -12920381.43746  20885728.671    20885729.079    20885742.289
       231.000         187.000
 -22534849.48449 -17515078.92047  18339191.313    18339191.109    18339201.659
       234.000         206.000
   1345327.60349   1055779.70546  20440756.858    20440756.226    20440770.203
       228.000         184.000
  -8356663.57249  -6478895.96346  21781666.975    21781667.850    21781686.040
       219.000         167.000
  -8998585.39649  -6988809.64545  22405878.280    22405878.065    22405894.618
       212.000         155.000
 01 12 19 22  9 59.9930000  0  8G 4G 2G28G26G 7G 8G 9G11
 -16257724.64749 -12635835.60546  21160113.128    21160114.681    21160132.316
       213.000         165.000
   -270553.62049   -208979.13446  21542266.278    21542265.594    21542281.715
       226.000         175.000
  -7677990.88249  -5971733.05647  19469026.664    19469026.529    19469036.533
       242.000         207.000
 -16615435.87349 -12923852.09946  20884881.145    20884881.541    20884894.756
       232.000         186.000
 -22575759.57249 -17546956.89447  18331406.363    18331406.160    18331416.699
       234.000         207.000
   1395286.25649   1094708.35646  20450263.727    20450263.125    20450277.190
       227.000         183.000
  -8503240.95449  -6593111.86846  21753774.039    21753774.889    21753792.963
       218.000         168.000
  -8980443.78949  -6974673.45045  22409330.545    22409330.332    22409346.987
       212.000         156.000
 01 12 19 22 10 29.9930000  0  8G 4G 2G28G26G 7G 8G 9G11
 -16408235.55949 -12753116.53546  21131471.609    21131473.137    21131490.806
       214.000         166.000
   -259861.69549   -200647.90846  21544301.026    21544300.327    21544316.471
       227.000         174.000
  -7687498.66949  -5979141.72747  19467217.405    19467217.283    19467227.284
       242.000         207.000
 -16619467.22049 -12926993.45846  20884114.028    20884114.409    20884127.646
       231.000         186.000
 -22616298.42649 -17578545.60147  18323692.070    18323691.852    18323702.401
       234.000         207.000
   1445501.88149   1133837.25246  20459819.570    20459818.975    20459833.053
       227.000         184.000
  -8649675.18549  -6707216.22146  21725908.321    21725909.192    21725927.133
       219.000         169.000
  -8961921.04449  -6960240.24445  22412855.365    22412855.175    22412871.913
       214.000         158.000
 01 12 19 22 10 59.9930000  0  8G 4G 2G28G26G 7G 8G 9G11
 -16558641.36649 -12870315.56946  21102850.211    21102851.641    21102869.290
       214.000         166.000
   -249066.79849   -192236.43846  21546355.372    21546354.647    21546370.844
       228.000         175.000
  -7696854.79449  -5986432.21747  19465436.996    19465436.887    19465446.919
       242.000         207.000
 -16623082.20749 -12929810.37646  20883426.127    20883426.526    20883439.775
       231.000         186.000
 -22656471.35849 -17609849.17147  18316047.375    18316047.184    18316057.737
       235.000         206.000
   1495968.66849   1173161.84646  20469423.276    20469422.625    20469436.700
       227.000         183.000
  -8795968.03849  -6821210.39646  21698069.542    21698070.387    21698088.255
       220.000         167.000
  -8943023.14649  -6945514.71545  22416451.570    22416451.371    22416468.186
       214.000         159.000
 01 12 19 22 11 29.9930000  0  8G 4G 2G28G26G 7G 8G 9G11
 -16708936.23349 -12987428.16046  21074250.000    21074251.284    21074268.877
       216.000         168.000
   -238165.80049   -183742.27246  21548429.876    21548429.186    21548445.384
       229.000         174.000
  -7706056.20149  -5993602.14447  19463686.062    19463685.948    19463695.976
       242.000         207.000
 -16626280.13349 -12932302.31446  20882817.646    20882818.013    20882831.258
       232.000         187.000
 -22696276.53249 -17640866.17447  18308472.691    18308472.483    18308483.040
       234.000         206.000
   1546687.56349   1212682.89646  20479074.928    20479074.256    20479088.350
       228.000         183.000
  -8942114.19049  -6935090.26346  21670258.661    21670259.494    21670277.291
       221.000         168.000
  -8923749.20449  -6930496.17845  22420119.299    22420119.138    22420135.988
       216.000         161.000
 01 12 19 22 11 59.9930000  0  8G 4G 2G28G26G 7G 8G 9G11
 -16859107.47649 -13104444.43446  21045673.186    21045674.453    21045691.950
       216.000         168.000
   -227148.97249   -175157.84546  21550526.442    21550525.742    21550541.939
       228.000         171.000
  -7715093.42749  -6000644.14647  19461966.371    19461966.240    19461976.282
       242.000         206.000
 -16629053.97649 -12934463.80846  20882289.878    20882290.215    20882303.434
       231.000         186.000
 -22735705.84949 -17671590.30547  18300969.529    18300969.323    18300979.870
       234.000         207.000
   1597666.32749   1252406.43046  20488775.954    20488775.310    20488789.439
       228.000         183.000
  -9088101.97249  -7048846.71746  21642477.962    21642478.749    21642496.516
       218.000         169.000
  -8904091.68149  -6915178.75045  22423860.115    22423859.952    22423876.796
       216.000         161.000
 01 12 19 22 12 29.9930000  0  8G 4G 2G28G26G 7G 8G 9G11
 -17009163.62049 -13221371.03046  21017118.311    21017119.548    21017136.940
       216.000         168.000
   -216027.49149   -166491.87946  21552642.867    21552642.203    21552658.385
       227.000         168.000
  -7723977.87549  -6007567.09547  19460275.714    19460275.597    19460285.629
       242.000         206.000
 -16631417.40849 -12936305.50346  20881840.182    20881840.511    20881853.710
       232.000         185.000
 -22774772.13649 -17702031.55147  18293535.479    18293535.254    18293545.785
       234.000         207.000
   1648891.23149   1292321.77746  20498523.845    20498523.196    20498537.405
       226.000         183.000
  -9233940.61749  -7162486.97846  21614725.594    21614726.365    21614744.057
       219.000         168.000
  -8884064.12949  -6899572.97045  22427671.361    22427671.193    22427688.051
       215.000         161.000
 01 12 19 22 12 59.9930000  0  8G 4G 2G28G26G 7G 8G 9G11
 -17159095.90349 -13338201.11546  20988586.949    20988588.179    20988605.497
       217.000         169.000
   -204795.85649   -157740.06446  21554780.236    21554779.611    21554795.782
       227.000         170.000
  -7732703.90549  -6014366.60747  19458615.203    19458615.108    19458625.140
       242.000         206.000
 -16633367.40149 -12937825.04146  20881469.169    20881469.479    20881482.659
       231.000         186.000
 -22813471.13749 -17732186.60347  18286171.278    18286171.064    18286181.592
       233.000         207.000
   1700365.89049   1332431.72846  20508319.301    20508318.621    20508332.860
       227.000         182.000
  -9379622.22449  -7276004.85446  21587003.040    21587003.839    21587021.515
       218.000         167.000
  -8863663.02149  -6883676.13045  22431553.638    22431553.476    22431570.406
       214.000         160.000
 01 12 19 22 13 29.9930000  0  8G 4G 2G28G26G 7G 8G 9G11
 -17308898.62649 -13454930.26346  20960080.276    20960081.451    20960098.654
       218.000         169.000
   -193450.99549   -148900.07046  21556939.119    21556938.547    21556954.784
       226.000         171.000
  -7741268.75449  -6021040.52647  19456985.396    19456985.290    19456995.305
       242.000         206.000
 -16634903.40549 -12939022.00346  20881176.929    20881177.226    20881190.401
       232.000         186.000
 -22851801.38849 -17762054.31647  18278877.282    18278877.050    18278887.570
       233.000         207.000
   1752091.45249   1372737.17146  20518162.396    20518161.775    20518176.108
       226.000         181.000
  -9525141.65349  -7389396.36746  21559311.305    21559312.174    21559329.825
       219.000         168.000
  -8842887.58049  -6867487.61345  22435507.200    22435507.034    22435523.947
       215.000         159.000
 01 12 19 22 13 59.9930000  0  8G 4G 2G28G26G 7G 8G 9G11
 -17458564.29849 -13571552.62346  20931599.578    20931600.779    20931617.902
       218.000         169.000
   -181988.45049   -139968.37346  21559120.452    21559119.889    21559136.183
       225.000         171.000
  -7749668.10749  -6027585.49147  19455387.048    19455386.958    19455396.955
       242.000         206.000
 -16636023.79549 -12939895.09746  20880963.746    20880964.061    20880977.228
       231.000         185.000
 -22889759.92849 -17791632.38847  18271653.997    18271653.765    18271664.289
       233.000         207.000
   1804069.71049   1413239.54546  20528053.664    20528053.041    20528067.409
       227.000         181.000
  -9670492.49549  -7502656.48046  21531651.690    21531652.581    21531670.249
       219.000         168.000
  -8821736.03149  -6851006.05045  22439532.332    22439532.138    22439549.053
       213.000         159.000
 01 12 19 22 14 29.9930000  0  8G 4G 2G28G26G 7G 8G 9G11
 -17608086.13649 -13688062.92746  20903146.164    20903147.475    20903164.514
       219.000         169.000
   -170404.08949   -130941.74246  21561324.932    21561324.386    21561340.767
       223.000         168.000
  -7757898.10249  -6033998.49047  19453820.922    19453820.826    19453830.856
       241.000         206.000
 -16636727.07149 -12940443.17246  20880829.939    20880830.268    20880843.442
       231.000         185.000
 -22927344.27949 -17820918.88347  18264501.926    18264501.703    18264512.196
       233.000         207.000
   1856302.90949   1453940.57346  20537993.456    20537992.810    20538007.191
       226.000         181.000
  -9815668.40749  -7615780.28446  21504025.372    21504026.295    21504043.932
       220.000         169.000
  -8800206.23749  -6834229.73645  22443629.389    22443629.215    22443646.215
       210.000         157.000
 01 12 19 22 14 59.9930000  0  8G 4G 2G28G26G 7G 8G 9G11
 -17757462.81349 -13804460.13346  20874720.632    20874721.861    20874738.769
       218.000         170.000
   -158699.55949   -121821.46846  21563552.265    21563551.742    21563568.214
       222.000         167.000
  -7765960.52149  -6040280.91447  19452286.660    19452286.592    19452296.670
       241.000         206.000
 -16637017.39749 -12940669.47246  20880774.709    20880775.051    20880788.201
       231.000         185.000
 -22964557.72149 -17849916.36347  18257420.431    18257420.200    18257430.706
       234.000         207.000
   1908786.99249   1494837.10446  20547980.950    20547980.301    20547994.732
       225.000         180.000
  -9960668.96249  -7728767.45946  21476432.492    21476433.399    21476451.004
       221.000         169.000
  -8778302.35549  -6817161.89445  22447797.568    22447797.407    22447814.550
       211.000         156.000
 01 12 19 22 15 29.9930000  0  8G 4G 2G28G26G 7G 8G 9G11
 -17906705.03449 -13920752.56746  20846320.671    20846321.855    20846338.602
       220.000         171.000
   -146888.45949   -112618.16746  21565799.951    21565799.388    21565815.914
       221.000         165.000
  -7773869.09849  -6046443.46347  19450781.731    19450781.656    19450791.764
       242.000         207.000
 -16636911.14449 -12940586.75346  20880794.947    20880795.295    20880808.454
       231.000         185.000
 -23001415.33949 -17878636.57947  18250406.641    18250406.418    18250416.926
       233.000         207.000
   1961506.25649   1535916.86846  20558013.182    20558012.542    20558027.053
       224.000         180.000
 -10105505.80949  -7841627.07446  21448870.836    21448871.663    21448889.212
       221.000         170.000
  -8756040.31949  -6799814.98545  22452033.914    22452033.771    22452051.015
       213.000         157.000
 01 12 19 22 15 59.9930000  0  8G 4G 2G28G26G 7G 8G 9G11
 -18055806.68449 -14036935.49046  20817947.504    20817948.609    20817965.230
       220.000         172.000
   -134967.54249   -103329.29046  21568068.532    21568067.970    21568084.550
       221.000         167.000
  -7781620.75949  -6052483.74347  19449306.681    19449306.588    19449316.695
       241.000         205.000
 -16636407.82149 -12940194.62346  20880890.760    20880891.124    20880904.284
       231.000         186.000
 -23037915.53749 -17907078.28847  18243460.927    18243460.673    18243471.163
       234.000         207.000
   2014461.71549   1577180.70346  20568090.351    20568089.766    20568104.339
       223.000         180.000
 -10250173.69049  -7954355.02646  21421341.354    21421342.085    21421359.572
       220.000         171.000
  -8733419.13449  -6782188.20845  22456338.679    22456338.531    22456355.843
       216.000         160.000
 01 12 19 22 16 29.9930000  0  8G 4G 2G28G26G 7G 8G 9G11
 -18204767.65049 -14153008.78146  20789601.090    20789602.102    20789618.599
       221.000         171.000
   -122939.66049    -93957.07046  21570357.460    21570356.897    21570373.565
       218.000         166.000
  -7789218.37349  -6058403.99547  19447860.926    19447860.837    19447870.920
       241.000         205.000
 -16635512.66549 -12939497.18346  20881061.209    20881061.522    20881074.701
       231.000         185.000
 -23074062.51649 -17935244.76447  18236582.398    18236582.149    18236592.606
       234.000         207.000
   2067648.38849   1618624.68846  20578211.577    20578210.956    20578225.608
       224.000         180.000
 -10394672.99549  -8066951.64046  21393843.859    21393844.584    21393862.014
       221.000         171.000
  -8710443.95449  -6764285.59845  22460710.788    22460710.663    22460728.028
       216.000         161.000
 01 12 19 22 16 59.9930000  0  8G 4G 2G28G26G 7G 8G 9G11
 -18353572.87949 -14268960.70946  20761284.220    20761285.247    20761301.605
       221.000         170.000
   -110792.58749    -84491.98546  21572669.070    21572668.474    21572685.213
       216.000         164.000
  -7796649.81649  -6064194.76347  19446446.820    19446446.701    19446456.771
       241.000         206.000
 -16634216.32449 -12938487.12946  20881307.987    20881308.269    20881321.445
       230.000         184.000
 -23109845.83649 -17963127.87047  18229773.114    18229772.807    18229783.258
       234.000         207.000
   2121076.26749   1660256.63746  20588378.741    20588378.092    20588392.746
       224.000         180.000
 -10538989.38049  -8179405.70546  21366381.144    21366381.905    21366399.240
       224.000         171.000
  -8687104.97549  -6746099.50546  22465152.111    22465151.973    22465169.404
       218.000         163.000
 01 12 19 22 17 29.9920000  0  8G 4G 2G28G26G 7G 8G 9G11
 -18502219.77349 -14384789.25446  20732997.561    20732998.521    20733014.776
       222.000         171.000
    -98532.06249    -74938.49946  21575002.310    21575001.677    21575018.507
       218.000         165.000
  -7803920.31249  -6069860.12847  19445063.318    19445063.181    19445073.252
       240.000         205.000
 -16632526.80349 -12937170.70146  20881629.553    20881629.818    20881643.011
       230.000         184.000
 -23145271.10449 -17990731.97547  18223031.893    18223031.603    18223042.044
       234.000         207.000
   2174735.97149   1702069.21946  20598589.998    20598589.326    20598603.983
       223.000         180.000
 -10683121.32749  -8291716.06346  21338953.519    21338954.315    21338971.565
       224.000         173.000
  -8663410.72049  -6727636.58545  22469661.078    22469660.940    22469678.409
       218.000         160.000
 01 12 19 22 17 59.9920000  0  8G 4G 2G28G26G 7G 8G 9G11
 -18650712.45949 -14500497.61346  20704740.159    20704741.154    20704757.339
       223.000         172.000
    -86154.41449    -65293.73446  21577357.819    21577357.172    21577374.080
       217.000         163.000
  -7811027.75649  -6075398.44147  19443710.803    19443710.708    19443720.775
       241.000         205.000
 -16630443.88349 -12935547.72046  20882026.006    20882026.254    20882039.437
       231.000         184.000
 -23180339.52349 -18018058.01247  18216358.591    18216358.294    18216368.743
       233.000         207.000
   2228631.61449   1744065.64446  20608846.040    20608845.417    20608860.112
       223.000         178.000
 -10827073.62349  -8403886.43546  21311560.132    21311560.923    21311578.070
       224.000         174.000
  -8639359.02449  -6708895.13345  22474238.090    22474237.929    22474255.405
       218.000         160.000
 01 12 19 22 18 29.9920000  0  8G 4G 2G28G26G 7G 8G 9G11
 -18799034.98249 -14616073.38946  20676515.263    20676516.189    20676532.253
       222.000         172.000
    -73651.90049    -55551.66546  21579737.142    21579736.434    21579753.350
       220.000         164.000
  -7817963.60349  -6080803.03647  19442391.011    19442390.887    19442400.945
       242.000         205.000
 -16627962.08949 -12933613.93046  20882498.333    20882498.583    20882511.769
       230.000         185.000
 -23215043.22449 -18045099.85547  18209754.710    18209754.412    18209764.846
       234.000         207.000
   2282767.68849   1786249.41846  20619147.885    20619147.273    20619162.036
       223.000         179.000
 -10970830.83649  -8515904.79146  21284203.887    21284204.655    21284221.705
       224.000         174.000
  -8614944.82749  -6689871.18645  22478884.126    22478883.891    22478901.359
       218.000         161.000
 01 12 19 22 18 59.9920000  0  8G 4G 2G28G26G 7G 8G 9G11
 -18947190.64549 -14731519.10346  20648322.039    20648322.970    20648338.940
       222.000         172.000
    -61031.02649    -45717.35845  21582138.979    21582138.256    21582155.160
       219.000         162.000
  -7824734.49149  -6086079.09047  19441102.579    19441102.455    19441112.491
       241.000         204.000
 -16625090.72249 -12931376.57346  20883044.766    20883045.039    20883058.235
       230.000         185.000
 -23249390.41449 -18071863.89847  18203218.617    18203218.331    18203228.794
       233.000         206.000
   2337135.16349   1828613.51346  20629493.777    20629493.176    20629507.997
       223.000         179.000
 -11114397.16949  -8627774.42746  21256883.984    21256884.734    21256901.659
       224.000         175.000
  -8590177.03349  -6670571.69145  22483597.410    22483597.131    22483614.651
       217.000         159.000
 01 12 19 22 19 29.9920000  0  8G 4G 2G28G26G 7G 8G 9G11
 -19095166.43849 -14846824.64746  20620162.955    20620163.949    20620179.875
       222.000         172.000
    -48281.44949    -35782.77245  21584565.257    21584564.537    21584581.450
       218.000         162.000
  -7831330.19949  -6091218.65047  19439847.447    19439847.330    19439857.394
       240.000         204.000
 -16621822.12349 -12928829.69146  20883666.770    20883667.047    20883680.294
       230.000         184.000
 -23283372.16049 -18098343.18247  18196752.101    18196751.809    18196762.266
       233.000         206.000
   2391742.37949   1871164.40846  20639885.290    20639884.683    20639899.585
       222.000         178.000
 -11257760.21849  -8739485.65246  21229602.712    21229603.469    21229620.301
       224.000         174.000
  -8565047.66249  -6650990.46345  22488379.468    22488379.185    22488396.749
       214.000         156.000
 01 12 19 22 19 59.9920000  0  8G 4G 2G28G26G 7G 8G 9G11
 -19242972.85349 -14961998.19646  20592036.095    20592037.126    20592053.038
       221.000         173.000
    -35416.41149    -25758.23246  21587013.475    21587012.740    21587029.737
       216.000         163.000
  -7837764.25449  -6096232.24947  19438623.125    19438623.000    19438633.087
       241.000         206.000
 -16618172.49749 -12925985.90146  20884361.263    20884361.588    20884374.864
       230.000         184.000
 -23317003.63849 -18124549.53047  18190352.178    18190351.938    18190362.419
       233.000         206.000
   2446573.51849   1913889.78646  20650319.396    20650318.814    20650333.807
       222.000         178.000
 -11400931.53849  -8851047.47146  21202357.929    21202358.667    21202375.451
       225.000         174.000
  -8539572.77549  -6631140.00045  22493227.254    22493226.982    22493244.575
       211.000         153.000
 01 12 19 22 20 29.9920000  0  8G 4G 2G28G26G 7G 8G 9G11
 -19390606.92449 -15077037.44646  20563941.990    20563943.068    20563958.991
       220.000         172.000
    -22436.14349    -15643.90645  21589483.652    21589482.933    21589500.001
       216.000         162.000
  -7844036.84649  -6101120.03347  19437429.541    19437429.399    19437439.520
       241.000         206.000
 -16614144.58749 -12922847.35046  20885127.789    20885128.098    20885141.392
       230.000         183.000
 -23350286.46849 -18150484.20647  18184018.650    18184018.423    18184028.898
       233.000         207.000
   2501626.29549   1956787.87446  20660795.734    20660795.130    20660810.184
       222.000         177.000
 -11543908.97549  -8962458.21846  21175150.036    21175150.783    21175167.501
       224.000         175.000
  -8513754.47849  -6611021.96645  22498140.365    22498140.084    22498157.730
       211.000         152.000
 01 12 19 22 20 59.9920000  0  8G 4G 2G28G26G 7G 8G 9G11
 -19538071.35649 -15191944.49046  20535880.168    20535881.257    20535897.217
       221.000         173.000
     -9346.05449     -5443.99646  21591974.733    21591974.045    21591991.154
       216.000         163.000
  -7850153.77749  -6105886.52647  19436265.530    19436265.397    19436275.565
       241.000         205.000
 -16609746.84849 -12919420.60846  20885964.688    20885965.026    20885978.298
       230.000         183.000
 -23383227.79849 -18176152.78047  18177750.136    18177749.906    18177760.361
       234.000         207.000
   2556893.05449   1999852.69046  20671312.777    20671312.200    20671327.245
       223.000         177.000
 -11686695.69149  -9073720.34846  21147978.454    21147979.194    21147995.853
       226.000         174.000
  -8487600.91649  -6590642.69045  22503117.310    22503117.019    22503134.675
       212.000         154.000
 01 12 19 22 21 29.9920000  0  8G 4G 2G28G26G 7G 8G 9G11
 -19685347.47649 -15306704.79446  20507854.140    20507855.300    20507871.247
       222.000         173.000
      3869.53649      4853.70545  21594489.710    21594488.985    21594506.138
       218.000         162.000
  -7856099.24849  -6110519.41247  19435134.225    19435134.053    19435144.217
       242.000         204.000
 -16604966.25249 -12915695.53846  20886874.500    20886874.805    20886888.054
       231.000         183.000
 -23415813.49049 -18201544.23347  18171549.286    18171549.044    18171559.519
       233.000         206.000
   2612387.06349   2043094.58546  20681873.160    20681872.527    20681887.541
       223.000         176.000
 -11829273.67149  -9184819.82546  21120846.565    21120847.308    21120863.923
       226.000         175.000
  -8461098.69249  -6569991.72745  22508160.625    22508160.350    22508177.955
       213.000         154.000
 01 12 19 22 21 59.9920000  0  8G 4G 2G28G26G 7G 8G 9G11
 -19832429.34949 -15421313.73846  20479865.202    20479866.345    20479882.223
       222.000         173.000
     17213.32449     15251.33245  21597029.180    21597028.432    21597045.490
       218.000         159.000
  -7861870.19549  -6115016.29947  19434036.128    19434035.930    19434046.075
       241.000         204.000
 -16599802.68649 -12911672.05646  20887857.212    20887857.463    20887870.713
       230.000         184.000
 -23448042.44749 -18226657.71447  18165416.338    18165416.085    18165426.571
       233.000         207.000
   2668109.11149   2086514.18246  20692476.890    20692476.245    20692491.273
       222.000         175.000
 -11971637.96549  -9295752.81646  21093755.397    21093756.114    21093772.654
       225.000         174.000
  -8434247.20949  -6549068.59545  22513270.406    22513270.120    22513287.731
       215.000         157.000
 01 12 19 22 22 29.9920000  0  8G 4G 2G28G26G 7G 8G 9G11
 -19979317.74349 -15535771.91646  20451913.047    20451914.193    20451930.028
       224.000         175.000
     30681.82249     25746.11745  21599592.292    21599591.551    21599608.600
       214.000         156.000
  -7867470.71149  -6119380.39047  19432970.456    19432970.242    19432980.375
       241.000         205.000
 -16594262.58449 -12907355.16546  20888911.555    20888911.777    20888925.031
       230.000         183.000
 -23479919.74149 -18251497.16947  18159350.347    18159350.050    18159360.537
       234.000         207.000
   2724053.20549   2130106.78546  20703122.797    20703122.181    20703137.251
       222.000         176.000
 -12113790.05749  -9406520.41746  21066704.576    21066705.307    21066721.742
       226.000         174.000
  -8407052.72749  -6527878.19845  22518445.458    22518445.175    22518462.784
       214.000         158.000
 01 12 19 22 22 59.9920000  0  8G 4G 2G28G26G 7G 8G 9G11
 -20126007.75749 -15650075.52746  20423998.768    20423999.838    20424015.568
       224.000         175.000
     44277.20849     36339.78245  21602179.605    21602178.862    21602195.891
       214.000         156.000
  -7872898.71349  -6123610.06247  19431937.586    19431937.369    19431947.504
       241.000         204.000
 -16588346.70549 -12902745.46046  20890037.371    20890037.582    20890050.828
       230.000         184.000
 -23511445.07949 -18276062.38047  18153351.344    18153351.012    18153361.439
       235.000         207.000
   2780219.30749   2173872.40046  20713810.971    20713810.354    20713825.476
       222.000         177.000
 -12255725.80149  -9517119.47546  21039694.918    21039695.664    21039711.999
       225.000         174.000
  -8379515.46549  -6506420.68445  22523685.784    22523685.469    22523703.080
       213.000         158.000
 01 12 19 22 23 29.9920000  0  8G 4G 2G28G26G 7G 8G 9G11
 -20272499.41549 -15764224.57346  20396122.158    20396123.197    20396138.837
       224.000         174.000
     57996.48549     47029.99445  21604790.483    21604789.709    21604806.720
       212.000         154.000
  -7878157.05949  -6127707.53247  19430936.988    19430936.779    19430946.926
       241.000         204.000
 -16582060.77449 -12897847.42046  20891233.617    20891233.835    20891247.066
       230.000         184.000
 -23542622.87349 -18300356.77247  18147418.502    18147418.123    18147428.495
       234.000         207.000
   2836602.16049   2217806.90546  20724540.420    20724539.801    20724554.996
       223.000         177.000
 -12397445.59149  -9627550.26746  21012726.372    21012727.095    21012743.353
       226.000         174.000
  -8351640.84049  -6484700.29745  22528990.290    22528989.963    22529007.570
       216.000         160.000
 01 12 19 22 23 59.9920000  0  8G 4G 2G28G26G 7G 8G 9G11
 -20418802.25949 -15878226.50846  20368281.423    20368282.470    20368298.067
       223.000         175.000
     71826.86149     57806.77545  21607422.420    21607421.685    21607438.711
       212.000         154.000
  -7883258.52549  -6131682.76047  19429966.291    19429966.045    19429976.186
       242.000         204.000
 -16575420.19149 -12892673.00946  20892497.335    20892497.554    20892510.778
       230.000         183.000
 -23573467.44949 -18324391.51347  18141548.954    18141548.592    18141558.950
       233.000         206.000
   2893187.08049   2261898.86546  20735308.327    20735307.699    20735322.939
       222.000         177.000
 -12538959.86149  -9737820.92246  20985796.954    20985797.660    20985813.818
       227.000         175.000
  -8323443.92449  -6462728.78145  22534356.052    22534355.737    22534373.365
       214.000         159.000
 01 12 19 22 24 29.9920000  0  8G 4G 2G28G26G 7G 8G 9G11
 -20564901.16949 -15992069.54046  20340479.513    20340480.574    20340496.049
       225.000         175.000
     85780.63649     68679.72345  21610077.798    21610077.080    21610094.190
       212.000         156.000
  -7888190.90349  -6135526.22147  19429027.759    19429027.503    19429037.601
       241.000         204.000
 -16568415.70449 -12887215.04046  20893830.338    20893830.519    20893843.756
       230.000         183.000
 -23603968.29249 -18348158.40947  18135744.848    18135744.473    18135754.855
       234.000         207.000
   2949983.72349   2306155.80446  20746116.571    20746115.894    20746131.185
       222.000         176.000
 -12680254.30149  -9847920.27546  20958909.330    20958910.051    20958926.145
       226.000         175.000
  -8294915.08249  -6440498.61745  22539784.995    22539784.672    22539802.348
       214.000         161.000
 01 12 19 22 24 59.9920000  0  8G 4G 2G28G26G 7G 8G 9G11
 -20710786.16749 -16105745.89946  20312718.382    20312719.388    20312734.763
       224.000         176.000
     99864.80949     79654.24445  21612758.083    21612757.348    21612774.474
       212.000         159.000
  -7892947.08149  -6139232.38047  19428122.728    19428122.482    19428132.552
       241.000         204.000
 -16561042.96949 -12881470.13146  20895233.432    20895233.588    20895246.798
       231.000         183.000
 -23634119.96849 -18371653.22347  18130007.199    18130006.826    18130017.198
       234.000         207.000
   3006997.03349   2350581.57146  20756966.028    20756965.309    20756980.646
       220.000         176.000
 -12821319.68749  -9957841.15546  20932065.292    20932066.028    20932082.039
       226.000         175.000
  -8266049.56649  -6418006.12145  22545278.007    22545277.717    22545295.408
       216.000         161.000
 01 12 19 22 25 29.9920000  0  8G 4G 2G28G26G 7G 8G 9G11
 -20856471.36949 -16219266.58746  20284995.188    20284996.229    20285011.494
       226.000         177.000
    114062.31049     90717.10245  21615459.926    21615459.201    21615476.349
       212.000         157.000
  -7897544.49549  -6142814.84147  19427247.898    19427247.666    19427257.752
       241.000         204.000
 -16553322.01949 -12875453.88446  20896702.761    20896702.923    20896716.116
       230.000         183.000
 -23663941.24449 -18394890.58047  18124332.388    18124332.016    18124342.431
       233.000         207.000
   3064207.55949   2395160.99846  20767852.961    20767852.238    20767867.624
       221.000         175.000
 -12962170.69749 -10067594.99846  20905262.053    20905262.802    20905278.730
       227.000         176.000
  -8236867.01749  -6395266.58645  22550831.382    22550831.090    22550848.773
       216.000         162.000
 01 12 19 22 25 59.9920000  0  8G 4G 2G28G26G 7G 8G 9G11
 -21001945.35849 -16332622.71446  20257312.319    20257313.292    20257328.401
       227.000         178.000
    128381.98249    101875.13245  21618184.949    21618184.285    21618201.408
       208.000         155.000
  -7901974.35149  -6146266.72747  19426404.959    19426404.738    19426414.836
       241.000         204.000
 -16545247.15149 -12869161.86046  20898239.416    20898239.597    20898252.789
       230.000         182.000
 -23693425.24149 -18417865.12247  18118721.737    18118721.380    18118731.820
       233.000         207.000
   3121621.73049   2439899.10946  20778778.634    20778777.921    20778793.399
       221.000         174.000
 -13102796.47949 -10177173.32446  20878501.760    20878502.441    20878518.307
       228.000         177.000
  -8207361.13049  -6372275.11145  22556446.212    22556445.933    22556463.658
       217.000         162.000
 01 12 19 22 26 29.9920000  0  8G 4G 2G28G26G 7G 8G 9G11
 -21147211.13649 -16445816.62146  20229669.090    20229670.003    20229684.952
       227.000         179.000
    142817.51749    113123.43145  21620931.930    21620931.348    21620948.513
       205.000         154.000
  -7906242.79749  -6149592.83447  19425592.773    19425592.526    19425602.647
       241.000         204.000
 -16536827.16349 -12862600.91846  20899841.714    20899841.952    20899855.145
       230.000         181.000
 -23722579.50049 -18440582.72547  18113173.801    18113173.497    18113183.947
       233.000         207.000
   3179231.02849   2484789.27746  20789741.493    20789740.767    20789756.235
       222.000         175.000
 -13243200.91249 -10286579.17946  20851783.547    20851784.206    20851799.974
       229.000         177.000
  -8177540.44949  -6349038.33046  22562120.958    22562120.682    22562138.445
       217.000         164.000
 01 12 19 22 26 59.9920000  0  9G 4G 2G28G26G24G 7G 8G 9G11
 -21292266.81649 -16558846.81846  20202065.773    20202066.690    20202081.501
       227.000         180.000
    157368.01749    124461.33545  21623700.896    21623700.278    21623717.535
       207.000         153.000
  -7910350.91849  -6152794.01747  19424811.018    19424810.797    19424820.964
       240.000         204.000
 -16528066.06349 -12855774.17446  20901508.980    20901509.194    20901522.398
       229.000         182.000
  -2470455.17159  -1497390.95155  22745435.292    22745435.780    22745465.084
       208.000         146.000
 -23751406.70449 -18463045.47747  18107688.187    18107687.874    18107698.319
       234.000         207.000
   3237032.47649   2529829.16046  20800740.977    20800740.181    20800755.651
       220.000         174.000
 -13383382.66549 -10395811.51446  20825107.685    20825108.343    20825124.030
       229.000         179.000
  -8147408.52049  -6325559.03946  22567854.878    22567854.658    22567872.458
       218.000         164.000
 01 12 19 22 27 29.9920000  0  9G 4G 2G28G26G24G 7G 8G 9G11
 -21437111.90749 -16671712.94146  20174502.511    20174503.457    20174518.127
       227.000         180.000
    172030.94949    135886.86045  21626491.362    21626490.666    21626507.931
       207.000         154.000
  -7914301.52849  -6155872.46147  19424059.295    19424059.069    19424069.253
       241.000         204.000
 -16518969.23649 -12848685.81846  20903240.128    20903240.338    20903253.538
       229.000         181.000
  -2626273.32649  -1618806.94745  22715783.361    22715784.101    22715813.418
       208.000         151.000
 -23779911.22149 -18485256.78647  18102263.936    18102263.634    18102274.096
       234.000         207.000
   3295020.90249   2575014.73946  20811776.009    20811775.175    20811790.674
       222.000         173.000
 -13523342.02649 -10504870.57546  20798474.173    20798474.809    20798490.420
       229.000         179.000
  -8116970.45949  -6301841.16646  22573647.107    22573646.894    22573664.734
       219.000         165.000
 01 12 19 22 27 59.9920000  0  9G 4G 2G28G26G24G 7G 8G 9G11
 -21581739.97849 -16784409.95746  20146980.569    20146981.485    20146996.096
       227.000         180.000
    186809.73949    147402.62945  21629303.882    21629303.128    21629320.399
       207.000         154.000
  -7918090.75549  -6158825.14847  19423338.341    19423338.075    19423348.242
       241.000         203.000
 -16509536.10449 -12841335.41446  20905035.288    20905035.458    20905048.644
       228.000         180.000
  -2782198.92949  -1740306.72545  22686111.101    22686111.980    22686141.283
       207.000         146.000
 -23808091.11249 -18507215.14447  18096901.494    18096901.191    18096911.629
       234.000         207.000
   3353197.61549   2620347.02546  20822846.757    20822845.987    20822861.541
       220.000         172.000
 -13663073.30949 -10613751.90846  20771884.027    20771884.667    20771900.203
       230.000         179.000
  -8086225.14549  -6277883.87246  22579497.796    22579497.593    22579515.497
       219.000         165.000
 01 12 19 22 28 29.9920000  0  9G 4G 2G28G26G24G 7G 8G 9G11
 -21726145.74249 -16896933.75646  20119500.892    20119501.809    20119516.342
       227.000         181.000
    201706.67549    159010.47345  21632138.862    21632138.076    21632155.298
       209.000         155.000
  -7921716.41449  -6161650.37647  19422648.523    19422648.212    19422658.352
       241.000         203.000
 -16499767.07749 -12833723.27546  20906894.306    20906894.495    20906907.732
       228.000         180.000
  -2938227.00549  -1861886.36445  22656419.335    22656420.433    22656449.562
       206.000         143.000
 -23835945.74249 -18528920.05447  18091600.978    18091600.639    18091611.067
       234.000         207.000
   3411562.75649   2665826.13346  20833953.474    20833952.663    20833968.267
       221.000         173.000
 -13802571.84249 -10722451.87346  20745338.251    20745338.840    20745354.292
       230.000         180.000
  -8055172.75049  -6253687.29746  22585406.939    22585406.753    22585424.675
       219.000         165.000
 01 12 19 22 28 59.9920000  0  9G 4G 2G28G26G24G 7G 8G 9G11
 -21870325.63249 -17009281.54046  20092064.212    20092065.121    20092079.582
       227.000         180.000
    216722.49649    170710.97945  21634996.478    21634995.676    21635012.858
       209.000         158.000
  -7925177.94049  -6164347.70847  19421989.880    19421989.570    19421999.688
       240.000         203.000
 -16489664.63549 -12825851.32746  20908816.730    20908816.957    20908830.265
       229.000         181.000
  -3094354.60249  -1983543.57345  22626708.633    22626709.836    22626738.863
       207.000         147.000
 -23863476.14949 -18550372.32447  18086362.148    18086361.794    18086372.207
       234.000         207.000
   3470114.66849   2711450.80246  20845095.741    20845094.896    20845110.502
       221.000         174.000
 -13941834.64649 -10830968.15146  20718837.298    20718837.853    20718853.245
       230.000         179.000
  -8023815.16249  -6229252.91646  22591374.154    22591373.983    22591391.942
       219.000         165.000
 01 12 19 22 29 29.9920000  0  9G 4G 2G28G26G24G 7G 8G 9G11
 -22014269.98349 -17121445.80546  20064672.387    20064673.285    20064687.674
       229.000         181.000
    231863.43049    182508.98245  21637877.807    21637876.990    21637894.233
       211.000         161.000
  -7928468.87449  -6166912.11547  19421363.679    19421363.364    19421373.495
       241.000         203.000
 -16479225.07749 -12817716.68546  20910803.406    20910803.614    20910816.973
       228.000         181.000
  -3250572.90149  -2105271.41745  22596980.655    22596982.015    22597010.907
       206.000         150.000
 -23890677.48349 -18571568.17647  18081185.903    18081185.555    18081195.941
       234.000         207.000
   3528857.56349   2757224.27846  20856274.415    20856273.505    20856289.062
       222.000         174.000
 -14080853.11749 -10939294.04646  20692382.872    20692383.391    20692398.694
       230.000         179.000
  -7992148.26049  -6204577.51346  22597400.240    22597400.053    22597418.060
       219.000         163.000
 01 12 19 22 29 59.9920000  0  9G 4G 2G28G26G24G 7G 8G 9G11
 -22157981.50549 -17233428.63346  20037324.815    20037325.727    20037340.049
       228.000         181.000
    247124.29749    194400.43546  21640781.947    21640781.136    21640798.426
       211.000         163.000
  -7931594.42149  -6169347.65147  19420768.987    19420768.646    19420778.790
       241.000         204.000
 -16468456.68549 -12809325.81946  20912852.591    20912852.833    20912866.269
       228.000         181.000
  -3406885.15049  -2227072.39145  22567234.883    22567236.350    22567264.990
       205.000         145.000
 -23917556.78949 -18592513.10047  18076070.923    18076070.588    18076080.973
       235.000         207.000
   3587783.75049   2803140.57146  20867487.903    20867486.986    20867502.549
       222.000         172.000
 -14219630.18249 -11047431.81446  20665974.315    20665974.868    20665990.085
       229.000         180.000
  -7960179.77449  -6179667.09745  22603483.761    22603483.542    22603501.555
       218.000         161.000
 01 12 19 22 30 29.9920000  0  9G 4G 2G28G26G24G 7G 8G 9G11
 -22301442.72749 -17345216.42946  20010025.015    20010025.828    20010040.061
       230.000         181.000
    262519.62149    206396.64945  21643711.705    21643710.875    21643728.224
       210.000         162.000
  -7934540.16449  -6171643.07547  19420208.474    19420208.147    19420218.307
       241.000         203.000
 -16457347.96249 -12800669.76846  20914966.593    20914966.817    20914980.308
       228.000         182.000
  -3563273.95749  -2348932.99245  22537474.450    22537476.063    22537504.546
       208.000         146.000
 -23944101.28049 -18613197.13547  18071019.739    18071019.367    18071029.730
       234.000         207.000
   3646905.45849   2849209.20646  20878738.579    20878737.669    20878753.246
       221.000         171.000
 -14358149.12249 -11155368.46546  20639614.896    20639615.446    20639630.605
       228.000         179.000
  -7927897.84049  -6154512.44045  22609626.923    22609626.706    22609644.684
       218.000         161.000
 01 12 19 22 30 59.9920000  0  9G 4G 2G28G26G24G 7G 8G 9G11
 -22444652.79349 -17456808.51446  19982772.891    19982773.729    19982787.871
       229.000         182.000
    278047.11949    218495.83145  21646666.538    21646665.783    21646683.151
       208.000         162.000
  -7937308.55049  -6173800.29847  19419681.741    19419681.395    19419691.559
       241.000         203.000
 -16445904.10049 -12791752.57446  20917144.398    20917144.581    20917158.132
       227.000         181.000
  -3719739.28149  -2470853.16745  22507699.558    22507701.202    22507729.557
       206.000         149.000
 -23970315.04349 -18633623.46147  18066031.449    18066031.065    18066041.426
       235.000         207.000
   3706218.02049   2895426.58346  20890025.524    20890024.652    20890040.233
       221.000         172.000
 -14496410.09549 -11263104.08046  20613304.577    20613305.139    20613320.193
       229.000         178.000
  -7895307.33749  -6129117.31945  22615828.797    22615828.553    22615846.569
       217.000         158.000
 01 12 19 22 31 29.9920000  0  9G 4G 2G28G26G24G 7G 8G 9G11
 -22587621.82149 -17568212.75246  19955566.631    19955567.464    19955581.565
       228.000         182.000
    293693.61949    230687.76746  21649644.056    21649643.319    21649660.697
       211.000         164.000
  -7939912.59349  -6175829.46347  19419186.312    19419185.932    19419196.086
       241.000         203.000
 -16434141.06649 -12782586.66846  20919382.895    20919383.091    20919396.686
       227.000         180.000
  -3876292.53549  -2592841.73345  22477907.854    22477909.542    22477937.794
       204.000         146.000
 -23996212.62949 -18653803.41147  18061103.321    18061102.921    18061113.279
       235.000         207.000
   3765706.14749   2941780.75846  20901345.935    20901345.067    20901360.657
       222.000         172.000
 -14634423.63149 -11370646.90346  20587041.350    20587041.910    20587056.878
       229.000         178.000
  -7862423.92749  -6103493.95245  22622086.386    22622086.137    22622104.175
       215.000         156.000
 01 12 19 22 31 59.9920000  0  9G 4G 2G28G26G24G 7G 8G 9G11
 -22730344.93849 -17679425.36846  19928407.098    19928407.995    19928422.083
       228.000         183.000
    309461.31549    242974.11846  21652644.695    21652643.964    21652661.358
       212.000         166.000
  -7942350.43649  -6177729.12347  19418722.430    19418722.069    19418732.216
       240.000         202.000
 -16422059.88749 -12773172.86446  20921681.942    20921682.129    20921695.777
       228.000         179.000
  -4032928.76249  -2714894.93045  22448100.285    22448102.100    22448130.258
       207.000         149.000
 -24021793.80749 -18673736.80747  18056235.386    18056234.990    18056245.350
       235.000         207.000
   3825369.56349   2988271.55446  20912699.760    20912698.839    20912714.358
       222.000         172.000
 -14772185.39849 -11477993.54046  20560826.040    20560826.607    20560841.475
       230.000         178.000
  -7829247.83249  -6077642.50245  22628399.674    22628399.443    22628417.457
       214.000         153.000
 01 12 19 22 32 29.9920000  0  9G 4G 2G28G26G24G 7G 8G 9G11
 -22872815.90049 -17790441.49946  19901295.680    19901296.525    19901310.583
       229.000         182.000
    325353.39949    255357.41046  21655669.009    21655668.281    21655685.673
       213.000         168.000
  -7944618.48049  -6179496.47447  19418290.859    19418290.514    19418300.676
       240.000         202.000
 -16409660.10649 -12763510.80346  20924041.589    20924041.787    20924055.453
       226.000         178.000
  -4189642.51549  -2837008.55645  22418277.970    22418279.822    22418307.951
       203.000         146.000
 -24047056.95049 -18693422.38647  18051427.972    18051427.579    18051437.939
       235.000         208.000
   3885209.31449   3034899.72246  20924087.031    20924086.116    20924101.649
       222.000         171.000
 -14909689.72749 -11585139.56546  20534659.674    20534660.250    20534675.046
       229.000         177.000
  -7795778.47549  -6051562.54745  22634768.731    22634768.511    22634786.597
       213.000         152.000
 01 12 19 22 32 59.9920000  0  9G 4G 2G28G26G24G 7G 8G 9G11
 -23015035.92049 -17901262.09846  19874231.944    19874232.785    19874246.845
       227.000         183.000
    341365.55249    267834.25946  21658716.136    21658715.414    21658732.820
       215.000         170.000
  -7946721.18049  -6181134.98047  19417890.705    19417890.401    19417900.573
       239.000         201.000
 -16396948.97149 -12753606.12046  20926460.513    20926460.689    20926474.363
       227.000         178.000
  -4346435.54249  -2959183.86345  22388440.406    22388442.445    22388470.537
       206.000         148.000
 -24072007.83949 -18712864.64747  18046680.002    18046679.603    18046689.948
       235.000         208.000
   3945218.85649   3081660.19846  20935506.638    20935505.723    20935521.294
       221.000         169.000
 -15046938.70449 -11692086.63346  20508541.913    20508542.497    20508557.232
       228.000         178.000
  -7762022.39749  -6025259.16945  22641192.325    22641192.116    22641210.266
       210.000         149.000
 01 12 19 22 33 29.9910000  0  9G 4G 2G28G26G24G 7G 8G 9G11
 -23157000.77149 -18011883.86146  19847216.770    19847217.622    19847231.658
       230.000         184.000
    357493.98449    280401.72246  21661785.389    21661784.662    21661802.078
       216.000         173.000
  -7948661.48449  -6182646.95147  19417521.438    19417521.174    19417531.373
       239.000         200.000
 -16383933.28149 -12743464.12846  20928937.382    20928937.541    20928951.215
       226.000         177.000
  -4503303.85349  -3081417.86245  22358588.661    22358590.788    22358618.722
       206.000         150.000
 -24096650.82449 -18732066.97747  18041990.626    18041990.218    18042000.567
       235.000         208.000
   4005390.32449   3128546.89146  20946957.041    20946956.133    20946971.716
       221.000         169.000
 -15183928.85249 -11798832.00846  20482473.390    20482473.999    20482488.682
       230.000         177.000
  -7727986.68449  -5998737.90645  22647669.150    22647668.941    22647687.163
       210.000         149.000
 01 12 19 22 33 59.9910000  0  9G 4G 2G28G26G24G 7G 8G 9G11
 -23298704.02149 -18122301.77146  19820251.313    19820252.227    19820266.212
       228.000         184.000
    373752.55349    293070.60446  21664879.405    21664878.688    21664896.143
       217.000         174.000
  -7950426.99149  -6184022.71447  19417185.503    19417185.234    19417195.442
       239.000         200.000
 -16370602.26149 -12733076.42946  20931474.220    20931474.404    20931488.094
       226.000         176.000
  -4660242.30649  -3203706.50945  22328723.630    22328725.657    22328753.451
       203.000         145.000
 -24120976.40349 -18751021.97647  18037361.633    18037361.225    18037371.590
       235.000         209.000
   4065738.57249   3175571.30946  20958441.048    20958440.192    20958455.832
       220.000         168.000
 -15320654.15249 -11905371.01646  20456455.283    20456455.875    20456470.508
       229.000         177.000
  -7693658.78649  -5971988.97345  22654201.555    22654201.332    22654219.605
       209.000         145.000
 01 12 19 22 34 29.9910000  0  9G 4G 2G28G26G24G 7G 8G 9G11
 -23440143.09649 -18232513.85446  19793336.155    19793337.098    19793351.052
       229.000         185.000
    390135.53749    305836.42146  21667997.095    21667996.381    21668013.862
       218.000         174.000
  -7952022.74349  -6185266.20347  19416881.828    19416881.590    19416891.826
       239.000         200.000
 -16356964.36249 -12722449.60346  20934069.470    20934069.655    20934083.367
       227.000         176.000
  -4817248.33549  -3326047.88245  22298845.660    22298847.758    22298875.273
       207.000         147.000
 -24144990.44149 -18769734.21047  18032791.939    18032791.514    18032801.893
       236.000         209.000
   4126254.06649   3222726.06646  20969956.899    20969956.061    20969971.745
       221.000         171.000
 -15457112.85249 -12011702.27346  20430487.892    20430488.470    20430503.088
       229.000         178.000
  -7659047.32249  -5945019.04045  22660787.895    22660787.707    22660806.009
       209.000         143.000
 01 12 19 22 34 59.9910000  0  9G 4G 2G28G26G24G 7G 8G 9G11
 -23581319.61849 -18342521.34246  19766470.949    19766471.925    19766485.830
       228.000         185.000
    406638.29749    318695.59046  21671137.597    21671136.854    21671154.386
       219.000         176.000
  -7953453.08649  -6186380.80547  19416609.656    19416609.431    19416619.652
       239.000         200.000
 -16343027.09649 -12711589.50346  20936721.709    20936721.886    20936735.618
       226.000         175.000
  -4974324.21849  -3448443.68045  22268954.497    22268956.594    22268983.810
       202.000         147.000
 -24168699.36149 -18788208.68547  18028280.290    18028279.889    18028290.244
       236.000         209.000
   4186929.92049   3270005.75646  20981503.243    20981502.415    20981518.215
       222.000         170.000
 -15593307.10149 -12117827.44946  20404570.810    20404571.399    20404586.005
       228.000         178.000
  -7624159.54549  -5917833.79145  22667426.904    22667426.707    22667445.025
       207.000         139.000
 01 12 19 22 35 29.9910000  0  9G 4G 2G28G26G24G 7G 8G 9G11
 -23722231.83949 -18452322.89046  19739656.089    19739657.065    19739670.900
       228.000         185.000
    423259.77449    331647.26646  21674300.635    21674299.920    21674317.518
       220.000         176.000
  -7954719.10149  -6187367.36547  19416368.759    19416368.549    19416378.771
       240.000         200.000
 -16328794.89449 -12700499.58746  20939430.073    20939430.273    20939443.988
       225.000         176.000
  -5131468.95749  -3570893.13545  22239050.137    22239052.329    22239079.318
       204.000         144.000
 -24192105.95249 -18806447.58147  18023826.183    18023825.778    18023836.100
       236.000         209.000
   4247762.48149   3317407.55646  20993079.425    20993078.617    20993094.473
       221.000         169.000
 -15729235.54849 -12223745.51246  20378704.303    20378704.902    20378719.484
       228.000         179.000
  -7588999.11349  -5890436.07845  22674117.801    22674117.686    22674135.922
       204.000         136.000
 01 12 19 22 35 59.9910000  0  9G 4G 2G28G26G24G 7G 8G 9G11
 -23862872.31449 -18561912.69046  19712892.930    19712893.900    19712907.679
       228.000         185.000
    440004.80749    344695.24346  21677487.215    21677486.499    21677504.121
       222.000         179.000
  -7955816.38149  -6188222.44447  19416159.984    19416159.766    19416169.995
       239.000         200.000
 -16314265.79349 -12689178.31146  20942194.935    20942195.153    20942208.864
       226.000         176.000
  -5288675.32949  -3693390.69945  22209134.027    22209136.279    22209163.093
       203.000         145.000
 -24215207.26749 -18824448.59347  18019430.157    18019429.756    18019440.064
       236.000         209.000
   4308754.32549   3364933.49246  21004685.944    21004685.129    21004701.069
       219.000         166.000
 -15864891.32649 -12329451.10346  20352889.606    20352890.281    20352904.861
       229.000         180.000
  -7553563.90649  -5862824.27245  22680860.982    22680860.793    22680879.038
       204.000         133.000
 01 12 19 22 36 29.9910000  0  9G 4G 2G28G26G24G 7G 8G 9G11
 -24003231.32849 -18671283.18146  19686183.358    19686184.328    19686198.041
       229.000         186.000
    456879.65049    357844.35946  21680698.524    21680697.790    21680715.462
       224.000         180.000
  -7956738.31349  -6188940.89847  19415984.599    19415984.376    19415994.595
       239.000         200.000
 -16299436.41649 -12677623.06046  20945016.979    20945017.153    20945030.914
       226.000         175.000
  -5445934.40249  -3815929.35545  22179208.057    22179210.165    22179236.768
       203.000         146.000
 -24237998.53349 -18842208.00747  18015093.108    18015092.714    18015103.016
       236.000         208.000
   4369909.50749   3412586.69846  21016323.551    21016322.737    21016338.726
       221.000         167.000
 -16000265.72549 -12434937.44046  20327128.498    20327129.189    20327143.762
       228.000         180.000
  -7517850.00549  -5834995.29845  22687657.134    22687656.945    22687675.249
       205.000         134.000
 01 12 19 22 36 59.9910000  0  9G 4G 2G28G26G24G 7G 8G 9G11
 -24143318.13449 -18780441.55346  19659525.574    19659526.538    19659540.206
       229.000         186.000
    473872.30149    371085.27646  21683932.195    21683931.485    21683949.203
       224.000         179.000
  -7957496.81549  -6189531.99947  19415840.288    19415840.081    19415850.298
       238.000         199.000
 -16284321.88949 -12665845.60846  20947893.247    20947893.428    20947907.214
       227.000         175.000
  -5603255.97249  -3938516.78145  22149269.974    22149272.095    22149298.637
       202.000         143.000
 -24260493.37849 -18859736.45047  18010812.458    18010812.065    18010822.408
       236.000         209.000
   4431213.75249   3460356.06246  21027989.482    21027988.696    21028004.748
       221.000         168.000
 -16135368.49749 -12540212.12346  20301419.116    20301419.815    20301434.373
       230.000         180.000
  -7481871.76249  -5806960.34345  22694503.544    22694503.385    22694521.615
       205.000         133.000
 01 12 19 22 37 29.9910000  0  9G 4G 2G28G26G24G 7G 8G 9G11
 -24283116.56849 -18889375.24546  19632922.674    19632923.640    19632937.267
       229.000         186.000
    490995.79449    384428.15146  21687190.750    21687190.048    21687207.856
       223.000         178.000
  -7958078.63949  -6189985.43147  19415729.633    19415729.385    19415739.637
       239.000         200.000
 -16268911.88849 -12653837.92946  20950825.754    20950825.932    20950839.756
       226.000         176.000
  -5760624.09949  -4061140.52445  22119323.051    22119325.209    22119351.624
       201.000         143.000
 -24282680.46349 -18877025.08147  18006590.371    18006589.990    18006600.358
       236.000         209.000
   4492678.02349   3508250.12445  21039685.838    21039685.078    21039701.205
       218.000         160.000
 -16270184.04949 -12645263.00146  20275764.380    20275765.085    20275779.619
       229.000         181.000
  -7445618.69249  -5778711.21344  22701402.369    22701402.127    22701420.482
       203.000         131.000
 01 12 19 22 37 59.9910000  0  9G 4G 2G28G26G24G 7G 8G 9G11
 -24422629.95449 -18998086.82046  19606374.065    19606375.001    19606388.565
       230.000         186.000
    508243.99749    397868.20046  21690473.057    21690472.371    21690490.207
       222.000         178.000
  -7958490.07249  -6190306.08947  19415651.407    19415651.150    19415661.424
       239.000         200.000
 -16253215.52949 -12641607.11046  20953812.739    20953812.936    20953826.779
       226.000         175.000
  -5918042.46449  -4183803.43345  22089366.641    22089368.816    22089394.973
       199.000         142.000
 -24304567.61749 -18894079.99847  18002425.373    18002425.004    18002435.362
       236.000         209.000
   4554293.71349   3556262.14446  21051410.966    21051410.224    21051426.537
       218.000         165.000
 -16404716.10049 -12750092.97446  20250163.604    20250164.313    20250178.805
       229.000         181.000
  -7409099.51549  -5750254.74744  22708351.727    22708351.517    22708369.946
       200.000         127.000
 01 12 19 22 38 29.9910000  0  9G 4G 2G28G26G24G 7G 8G 9G11
 -24561862.24849 -19106579.36546  19579878.947    19579879.856    19579893.365
       230.000         187.000
    525609.79849    411399.87746  21693777.747    21693777.069    21693794.957
       222.000         178.000
  -7958738.11049  -6190499.42147  19415604.259    19415604.004    19415614.294
       239.000         200.000
 -16237243.12849 -12629161.19246  20956852.255    20956852.426    20956866.337
       225.000         175.000
  -6075515.81749  -4306509.23745  22059399.839    22059402.115    22059427.950
       199.000         140.000
 -24326163.57549 -18910908.01447  17998315.782    17998315.417    17998325.792
       236.000         209.000
   4616051.43749   3604384.90045  21063163.063    21063162.379    21063178.849
       216.000         162.000
 -16538969.55049 -12854705.85746  20224615.852    20224616.552    20224631.028
       229.000         182.000
  -7372323.87549  -5721598.41244  22715349.899    22715349.615    22715368.156
       196.000         118.000
 01 12 19 22 38 59.9910000  0  9G 4G 2G28G26G24G 7G 8G 9G11
 -24700805.72049 -19214846.85646  19553438.783    19553439.681    19553453.130
       230.000         187.000
    543098.07149    425026.99846  21697105.739    21697105.066    21697123.000
       224.000         178.000
  -7958817.81549  -6190561.58347  19415589.166    19415588.903    19415599.183
       240.000         200.000
 -16220992.68749 -12616498.61846  20959944.683    20959944.857    20959958.829
       226.000         175.000
  -6233036.40149  -4429251.88145  22029424.104    22029426.323    22029451.883
       198.000         141.000
 -24347465.11249 -18927506.61047  17994262.202    17994261.864    17994272.241
       236.000         209.000
   4677953.63949   3652620.17546  21074942.774    21074942.084    21074958.709
       220.000         163.000
 -16672937.11149 -12959095.97146  20199122.495    20199123.209    20199137.676
       229.000         182.000
  -7335289.19548  -5692740.17044  22722397.335    22722397.093    22722415.367
       191.000         111.000
 01 12 19 22 39 29.9910000  0 10G 4G 2G28G 5G26G24G 7G 8G 9G11
 -24839450.28349 -19322881.41747  19527055.460    19527056.377    19527069.784
       229.000         188.000
    560715.98649    438755.14946  21700458.418    21700457.730    21700475.725
       224.000         177.000
  -7958722.00349  -6190486.97947  19415607.451    19415607.182    19415617.479
       239.000         200.000
  -1200186.74159   -919971.13655  22514855.673    22514855.196    22514876.176
       205.000         145.000
 -16204460.12549 -12603616.21246  20963090.794    20963090.979    20963104.997
       226.000         176.000
  -6390594.94049  -4552024.10345  21999441.191    21999443.333    21999468.647
       200.000         136.000
 -24368466.83249 -18943871.59047  17990265.660    17990265.356    17990275.751
       236.000         209.000
   4740005.31349   3700971.92745  21086750.809    21086750.207    21086766.955
       218.000         162.000
 -16806609.20949 -13063255.86146  20173685.332    20173686.085    20173700.556
       229.000         183.000
  -7297991.10648  -5663676.77044  22729494.842    22729492.450    22729513.886
       187.000         106.000
 01 12 19 22 39 59.9910000  0  9G 4G 2G28G 5G26G24G 7G 8G 9
 -24977802.47149 -19430688.17847  19500727.810    19500728.695    19500742.059
       231.000         188.000
    578454.12749    452576.96446  21703833.952    21703833.298    21703851.316
       221.000         174.000
  -7958459.99449  -6190282.87447  19415657.349    19415657.078    19415667.413
       238.000         200.000
  -1333664.50049  -1023979.60645  22489455.423    22489455.051    22489476.176
       205.000         147.000
 -16187657.80649 -12590523.61546  20966288.328    20966288.459    20966302.489
       227.000         177.000
  -6548198.10449  -4674831.14145  21969449.773    21969451.876    21969476.900
       199.000         137.000
 -24389179.69149 -18960011.48847  17986324.143    17986323.836    17986334.235
       237.000         209.000
   4802194.71449   3749431.03145  21098585.125    21098584.551    21098601.386
       215.000         157.000
 -16939992.91649 -13167191.03046  20148303.109    20148303.877    20148318.309
       230.000         183.000
 01 12 19 22 40 29.9910000  0  9G 4G 2G28G 5G26G24G 7G 8G 9
 -25115865.99349 -19538269.99847  19474455.099    19474455.962    19474469.278
       231.000         189.000
    596305.72449    466487.18946  21707231.083    21707230.436    21707248.494
       219.000         173.000
  -7958038.41249  -6189954.42247  19415737.599    19415737.355    19415747.701
       238.000         199.000
  -1467200.24149  -1128033.24345  22464044.259    22464043.927    22464065.102
       205.000         149.000
 -16170595.47349 -12577228.39146  20969535.344    20969535.399    20969549.509
       226.000         177.000
  -6705850.01049  -4797676.11145  21939449.045    21939451.048    21939475.808
       198.000         134.000
 -24409612.21049 -18975932.94347  17982435.959    17982435.658    17982446.034
       236.000         209.000
   4864512.91749   3797990.49445  21110444.055    21110443.440    21110460.349
       216.000         158.000
 -17073092.52549 -13270904.82646  20122974.990    20122975.713    20122990.132
       230.000         184.000
 01 12 19 22 40 59.9910000  0  9G 4G 2G28G 5G26G24G 7G 8G 9
 -25253632.92449 -19645620.70447  19448238.818    19448239.673    19448252.945
       231.000         189.000
    614275.80049    480489.74146  21710650.715    21710650.098    21710668.208
       218.000         171.000
  -7957452.25149  -6189497.71847  19415849.147    19415848.920    19415859.293
       237.000         198.000
  -1600788.95949  -1232128.16745  22438623.050    22438622.782    22438643.855
       203.000         148.000
 -16153271.24049 -12563729.09246  20972832.176    20972832.193    20972846.343
       227.000         177.000
  -6863543.31149  -4920553.36645  21909440.430    21909442.396    21909466.939
       197.000         136.000
 -24429761.27949 -18991633.53047  17978601.736    17978601.418    17978611.787
       236.000         209.000
   4926962.42249   3846652.31846  21122327.992    21122327.336    21122344.272
       219.000         163.000
 -17205900.95949 -13374391.72646  20097702.280    20097702.973    20097717.375
       230.000         184.000
 01 12 19 22 41 29.9910000  0  9G 4G 2G28G 5G26G24G 7G 8G 9
 -25391087.45949 -19752727.97647  19422081.956    19422082.806    19422096.082
       231.000         189.000
    632377.12049    494594.55546  21714095.281    21714094.725    21714112.879
       216.000         169.000
  -7956688.66349  -6188902.76147  19415994.494    19415994.255    19416004.663
       238.000         199.000
  -1734417.55549  -1336254.15245  22413194.219    22413194.065    22413215.088
       204.000         147.000
 -16135675.18749 -12550017.99546  20976180.674    20976180.714    20976194.876
       226.000         177.000
  -7021262.68249  -5043450.94445  21879426.709    21879428.728    21879453.008
       195.000         134.000
 -24449615.38149 -19007104.27047  17974823.644    17974823.307    17974833.646
       237.000         209.000
   4989553.86049   3895424.59745  21134238.851    21134238.185    21134255.291
       215.000         156.000
 -17338402.88149 -13477639.79346  20072487.923    20072488.571    20072502.934
       232.000         183.000
 01 12 19 22 41 59.9910000  0  9G 4G 2G28G 5G26G24G 7G 8G 9
 -25528226.91549 -19859589.72947  19395984.990    19395985.874    19395999.161
       231.000         189.000
    650609.50249    508801.50446  21717564.920    21717564.321    21717582.462
       217.000         172.000
  -7955747.64249  -6188169.54647  19416173.572    19416173.345    19416183.807
       237.000         198.000
  -1868086.27949  -1440411.43245  22387757.957    22387757.743    22387778.627
       206.000         148.000
 -16117810.70749 -12536097.73546  20979580.260    20979580.300    20979594.496
       226.000         176.000
  -7179005.68149  -5166366.89045  21849408.598    21849410.635    21849434.632
       201.000         135.000
 -24469176.71749 -19022346.88547  17971101.221    17971100.896    17971111.252
       237.000         209.000
   5052284.69949   3944305.67445  21146176.406    21146175.667    21146192.689
       214.000         157.000
 -17470596.28449 -13580647.47146  20047332.256    20047332.859    20047347.200
       232.000         184.000
 01 12 19 22 42 29.9910000  0  9G 4G 2G28G 5G26G24G 7G 8G 9
 -25665052.33149 -19966206.77747  19369947.836    19369948.724    19369962.013
       232.000         190.000
    668968.87349    523107.39646  21721058.709    21721058.077    21721076.232
       219.000         174.000
  -7954633.13549  -6187301.14247  19416385.619    19416385.429    19416395.961
       237.000         198.000
  -2001798.74549  -1544602.80145  22362313.329    22362313.127    22362333.820
       209.000         149.000
 -16099684.62249 -12521973.62046  20983029.606    20983029.678    20983043.880
       226.000         176.000
  -7336773.86549  -5289302.50745  21819385.782    21819387.845    21819411.702
       198.000         132.000
 -24488450.76149 -19037365.64147  17967433.477    17967433.155    17967443.510
       237.000         209.000
   5115148.89549   3993290.54745  21158139.118    21158138.448    21158155.499
       215.000         150.000
 -17602482.43249 -13683415.72646  20022235.029    20022235.619    20022249.898
       231.000         184.000
 01 12 19 22 42 59.9910000  0  9G 4G 2G28G 5G26G24G 7G 8G 9
 -25801556.44549 -20072573.45747  19343971.786    19343972.702    19343985.994
       231.000         190.000
    687459.63949    537515.67646  21724577.475    21724576.869    21724595.002
       218.000         174.000
  -7953340.64149  -6186294.05047  19416631.595    19416631.401    19416641.994
       238.000         199.000
  -2135550.43649  -1648824.72145  22336861.063    22336860.956    22336881.589
       207.000         148.000
 -16081295.63649 -12507644.66346  20986529.032    20986529.088    20986543.271
       226.000         177.000
  -7494559.85649  -5412251.99245  21789359.502    21789361.617    21789385.376
       201.000         137.000
 -24507434.80849 -19052158.42347  17963820.921    17963820.623    17963830.954
       237.000         209.000
   5178148.30649   4042380.80345  21170127.585    21170126.924    21170144.129
       215.000         159.000
 -17734054.58049 -13785939.30146  19997197.546    19997198.137    19997212.359
       232.000         183.000
 01 12 19 22 43 29.9910000  0  9G 4G 2G28G 5G26G24G 7G 8G 9
 -25937747.49649 -20178696.19147  19318055.370    19318056.271    19318069.542
       232.000         191.000
    706070.67949    552017.68946  21728119.108    21728118.514    21728136.689
       220.000         175.000
  -7951881.35249  -6185157.00047  19416909.320    19416909.131    19416919.785
       238.000         199.000
  -2269352.41449  -1753085.82545  22311399.325    22311399.170    22311419.780
       205.000         146.000
 -16062657.94349 -12493121.90246  20990075.776    20990075.823    20990090.011
       225.000         177.000
  -7652372.85149  -5535222.50645  21759328.305    21759330.251    21759353.972
       201.000         134.000
 -24526141.73249 -19066735.26147  17960261.138    17960260.814    17960271.128
       237.000         209.000
   5241269.44149   4091565.95345  21182139.287    21182138.603    21182155.812
       213.000         147.000
 -17865321.68249 -13888225.17646  19972218.141    19972218.686    19972232.860
       232.000         184.000
 01 12 19 22 43 59.9910000  0  9G 4G 2G28G 5G26G24G 7G 8G 9
 -26073613.88849 -20284565.93247  19292200.738    19292201.637    19292214.868
       233.000         192.000
    724810.45049    566620.02046  21731685.269    21731684.670    21731702.868
       222.000         176.000
  -7950246.77149  -6183883.34547  19417220.446    19417220.234    19417230.901
       239.000         199.000
  -2403195.78149  -1857379.17345  22285929.524    22285929.466    22285950.113
       207.000         147.000
 -16043766.00349 -12478401.03746  20993670.852    20993670.930    20993685.111
       225.000         175.000
  -7810201.21149  -5658205.03845  21729294.117    21729295.962    21729319.600
       202.000         138.000
 -24544564.65649 -19081090.80247  17956755.391    17956755.059    17956765.349
       237.000         209.000
   5304518.72749   4140850.93545  21194175.413    21194174.707    21194191.952
       213.000         153.000
 -17996272.67149 -13990264.73246  19947298.898    19947299.415    19947313.516
       232.000         183.000
 01 12 19 22 44 29.9910000  0  9G 4G 2G28G 5G26G24G 7G 8G 9
 -26209144.86949 -20390174.31047  19266410.016    19266410.870    19266424.010
       233.000         192.000
    743686.95049    581328.90846  21735277.446    21735276.831    21735295.051
       221.000         175.000
  -7948428.62949  -6182466.65847  19417566.515    19417566.272    19417576.942
       239.000         199.000
  -2537072.27949  -1961698.34445  22260453.569    22260453.500    22260474.077
       209.000         148.000
 -16024614.94849 -12463478.25246  20997315.267    20997315.321    20997329.519
       226.000         176.000
  -7968034.54549  -5781191.41845  21699259.089    21699260.830    21699284.312
       205.000         137.000
 -24562697.33849 -19095220.18247  17953304.901    17953304.549    17953314.813
       238.000         209.000
   5367901.59549   4190240.02845  21206236.954    21206236.190    21206253.471
       213.000         152.000
 -18126897.20549 -14092049.91946  19922441.752    19922442.263    19922456.305
       233.000         185.000
